[[{"header":{"parameterUnit":"m.s-1","parameterCategory":1,"la1":31.0,"la2":29.5877,"lo1":-88.7671,"lo2":-86.6584,"dy":0.0162,"dx":0.0185,"nx":115,"ny":88,"refTime":"2026-04-03T12:00:00:Z","depth":0,"parameterNumber":2,"parameterNumberName":"U-component_of_WINDS"},"data":[0.0,0.0,0.0,0.0,0.0,0.0,0.0,0.0,0.0,0.0,0.0,0.0,0.0,0.0,0.0,0.0,0.0,0.0,0.0,0.0,0.0,0.0,0.0,0.0,0.0,0.0,0.0,0.0,0.0,0.0,0.0,0.0,0.0,0.0,0.0,0.0,0.0,0.0,0.0,0.0,0.0,0.0,0.0,0.0,0.0,0.0,0.0,0.0,0.0,0.0,0.0,0.0,0.0,0.0,0.0,0.0,0.0,0.0,0.0,0.0,0.0,0.0,0.0,0.0,0.0,0.0,0.0,0.0,0.0,0.0,0.0,0.0,0.0,0.0,0.0,0.0,0.0,0.0,0.0,0.0,0.0,0.0,0.0,0.0,0.0,0.0,0.0,0.0,0.0,0.0,0.0,0.0,0.0,0.0,0.0,0.0,0.0,0.0,0.0,0.0,0.0,0.0,0.0,0.0,0.0,0.0,0.0,0.0,0.0,0.0,0.0,0.0,0.0,0.0,0.0,0.0,0.0,0.0,0.0,0.0,0.0,0.0,0.0,0.0,0.0,0.0,0.0,0.0,0.0,0.0,0.0,0.0,0.0,0.0,0.0,0.0,0.0,0.0,0.0,0.0,0.0,0.0,0.0,0.0,0.0,0.0,0.0,0.0,0.0,0.0,0.0,0.0,0.0,0.0,0.0,0.0,0.0,0.0,0.0,0.0,0.0,0.0,0.0,0.0,0.0,0.0,0.0,0.0,0.0,0.0,0.0,0.0,0.0,0.0,0.0,0.0,0.0,0.0,0.0,0.0,0.0,0.0,0.0,0.0,0.0,0.0,0.0,0.0,0.0,0.0,0.0,0.0,0.0,0.0,0.0,0.0,0.0,0.0,0.0,0.0,0.0,0.0,0.0,0.0,0.0,0.0,0.0,0.0,0.0,0.0,0.0,0.0,0.0,0.0,0.0,0.0,0.0,0.0,0.0,0.0,0.0,0.0,0.0,0.0,0.0,0.0,0.0,0.0,0.0,0.0,0.0,0.0,0.0,0.0,0.0,0.0,0.0,0.0,0.0,0.0,0.0,0.0,0.0,0.0,0.0,0.0,0.0,0.0,0.0,0.0,0.0,0.0,0.0,0.0,0.0,0.0,0.0,0.0,0.0,0.0,0.0,0.0,0.0,0.0,0.0,0.0,0.0,0.0,0.0,0.0,0.0,0.0,0.0,0.0,0.0,0.0,0.0,0.0,0.0,0.0,0.0,0.0,0.0,0.0,0.0,0.0,0.0,0.0,0.0,0.0,0.0,0.0,0.0,0.0,0.0,0.0,0.0,0.0,0.0,0.0,0.0,0.0,0.0,0.0,0.0,0.0,0.0,0.0,0.0,0.0,0.0,0.0,0.0,0.0,0.0,0.0,0.0,0.0,0.0,0.0,0.0,0.0,0.0,0.0,0.0,0.0,0.0,0.0,0.0,0.0,0.0,0.0,0.0,0.0,0.0,0.0,0.0,0.0,0.0,0.0,0.0,0.0,0.0,0.0,0.0,0.0,0.0,0.0,0.0,0.0,0.0,0.0,0.0,0.0,0.0,0.0,0.0,0.0,0.0,0.0,0.0,0.0,0.0,0.0,0.0,0.0,0.0,0.0,0.0,0.0,0.0,0.0,0.0,0.0,0.0,0.0,0.0,0.0,0.0,0.0,0.0,0.0,0.0,0.0,0.0,0.0,0.0,0.0,0.0,0.0,0.0,0.0,0.0,0.0,0.0,0.0,0.0,0.0,0.0,0.0,0.0,0.0,0.0,0.0,0.0,0.0,0.0,0.0,0.0,0.0,0.0,0.0,0.0,0.0,0.0,0.0,0.0,0.0,0.0,0.0,0.0,0.0,0.0,0.0,0.0,0.0,0.0,0.0,0.0,0.0,0.0,0.0,0.0,0.0,0.0,0.0,0.0,0.0,0.0,0.0,0.0,0.0,0.0,0.0,0.0,0.0,0.0,0.0,0.0,0.0,0.0,0.0,0.0,0.0,0.0,0.0,0.0,0.0,0.0,0.0,0.0,0.0,0.0,0.0,0.0,0.0,0.0,0.0,0.0,0.0,0.0,0.0,0.0,0.0,0.0,0.0,0.0,0.0,0.0,0.0,0.0,0.0,0.0,0.0,0.0,0.0,0.0,0.0,0.0,0.0,0.0,0.0,0.0,0.0,0.0,0.0,0.0,0.0,0.0,0.0,0.0,0.0,0.0,0.0,0.0,0.0,0.0,0.0,0.0,0.0,0.0,0.0,0.0,0.0,0.0,0.0,0.0,0.0,0.0,0.0,0.0,0.0,0.0,0.0,0.0,0.0,0.0,0.0,0.0,0.0,0.0,0.0,0.0,0.0,0.0,0.0,0.0,0.0,0.0,0.0,0.0,0.0,0.0,0.0,0.0,0.0,0.0,0.0,0.0,0.0,0.0,0.0,0.0,0.0,0.0,0.0,0.0,0.0,0.0,0.0,0.0,0.0,0.0,0.0,0.0,0.0,0.0,0.0,0.0,0.0,0.0,0.0,0.0,0.0,0.0,0.0,0.0,0.0,0.0,0.0,0.0,0.0,0.0,0.0,0.0,0.0,0.0,0.0,0.0,0.0,0.0,0.0,0.0,0.0,0.0,0.0,0.0,0.0,0.0,0.0,0.0,0.0,0.0,0.0,0.0,0.0,0.0,0.0,0.0,0.0,0.0,0.0,0.0,0.0,0.0,0.0,0.0,0.0,0.0,0.0,0.0,0.0,0.0,0.0,0.0,0.0,0.0,0.0,0.0,0.0,0.0,0.0,0.0,0.0,0.0,0.0,0.0,0.0,0.0,0.0,0.0,0.0,0.0,0.0,0.0,0.0,0.0,0.0,0.0,0.0,0.0,0.0,0.0,0.0,0.0,0.0,0.0,0.0,0.0,0.0,0.0,0.0,0.0,0.0,0.0,0.0,0.0,0.0,0.0,0.0,0.0,0.0,0.0,0.0,0.0,0.0,0.0,0.0,0.0,0.0,0.0,0.0,0.0,0.0,0.0,0.0,0.0,0.0,0.0,0.0,0.0,0.0,0.0,0.0,0.0,0.0,0.0,0.0,0.0,0.0,0.0,0.0,0.0,0.0,0.0,0.0,0.0,0.0,0.0,0.0,0.0,0.0,0.0,0.0,0.0,0.0,0.0,0.0,0.0,0.0,0.0,0.0,0.0,0.0,0.0,0.0,0.0,0.0,0.0,0.0,0.0,0.0,0.0,0.0,0.0,0.0,0.0,0.0,0.0,0.0,0.0,0.0,0.0,0.0,0.0,0.0,0.0,0.0,0.0,0.0,0.0,0.0,0.0,0.0,0.0,0.0,0.0,0.0,0.0,0.0,0.0,0.0,0.0,0.0,0.0,0.0,0.0,0.0,0.0,0.0,0.0,0.0,0.0,0.0,0.0,0.0,0.0,0.0,0.0,0.0,0.0,0.0,0.0,0.0,0.0,0.0,0.0,0.0,0.0,0.0,0.0,0.0,0.0,0.0,0.0,0.0,0.0,0.0,0.0,0.0,0.0,0.0,0.0,0.0,0.0,0.0,0.0,0.0,0.0,0.0,0.0,0.0,0.0,0.0,0.0,0.0,0.0,0.0,0.0,0.0,0.0,0.0,0.0,0.0,0.0,0.0,0.0,0.0,0.0,0.0,0.0,0.0,0.0,0.0,0.0,0.0,0.0,0.0,0.0,0.0,0.0,0.0,0.0,0.0,0.0,0.0,0.0,0.0,0.0,0.0,0.0,0.0,0.0,0.0,0.0,0.0,0.0,0.0,0.0,0.0,0.0,0.0,0.0,0.0,0.0,0.0,0.0,0.0,0.0,0.0,0.0,0.0,0.0,0.0,0.0,0.0,0.0,0.0,0.0,0.0,0.0,0.0,0.0,0.0,0.0,0.0,0.0,0.0,0.0,0.0,0.0,0.0,0.0,0.0,0.0,0.0,0.0,0.0,0.0,0.0,0.0,0.0,0.0,0.0,0.0,0.0,0.0,0.0,0.0,0.0,0.0,0.0,0.0,0.0,0.0,0.0,0.0,0.0,0.0,0.0,0.0,0.0,0.0,0.0,0.0,0.0,0.0,0.0,0.0,0.0,0.0,0.0,0.0,0.0,0.0,0.0,0.0,0.0,0.0,0.0,0.0,0.0,0.0,0.0,0.0,0.0,0.0,0.0,0.0,0.0,0.0,0.0,0.0,0.0,0.0,0.0,0.0,0.0,0.0,0.0,0.0,0.0,0.0,0.0,0.0,0.0,1.469,0.0,0.0,0.0,0.0,0.0,0.0,0.0,0.0,0.0,0.0,0.0,0.0,0.0,0.0,0.0,0.0,0.0,0.0,0.0,0.0,0.0,0.0,0.0,0.0,0.0,0.0,0.0,0.0,0.0,0.0,0.0,0.0,0.0,0.0,0.0,0.0,0.0,0.0,0.0,0.0,0.0,0.0,0.0,0.0,0.0,0.0,0.0,0.0,0.0,0.0,0.0,0.0,0.0,0.0,0.0,0.0,0.0,0.0,0.0,0.0,0.0,0.0,0.0,0.0,0.0,0.0,0.0,0.0,0.0,0.0,0.0,0.0,0.0,0.0,0.0,0.0,0.0,0.0,0.0,0.0,0.0,0.0,0.0,0.0,0.0,0.0,0.0,0.0,0.0,0.0,0.0,0.0,0.0,0.0,0.0,0.0,0.0,0.0,0.0,0.0,0.0,0.0,0.0,0.0,0.0,0.0,0.0,0.0,0.0,0.0,1.5535,1.5523,1.5112,1.4907,1.4895,0.0,0.0,0.0,0.0,0.0,0.0,0.0,0.0,0.0,0.0,0.0,0.0,0.0,0.0,0.0,0.0,0.0,0.0,0.0,0.0,0.0,0.0,0.0,0.0,0.0,0.0,0.0,0.0,0.0,0.0,0.0,0.0,0.0,0.0,0.0,0.0,0.0,0.0,0.0,0.0,0.0,0.0,0.0,0.0,0.0,0.0,0.0,0.0,0.0,0.0,0.0,0.0,0.0,0.0,0.0,0.0,0.0,0.0,0.0,0.0,0.0,0.0,0.0,0.0,0.0,0.0,0.0,0.0,0.0,0.0,0.0,0.0,0.0,0.0,0.0,0.0,0.0,0.0,0.0,0.0,0.0,0.0,0.0,0.0,0.0,0.0,0.0,0.0,0.0,0.0,0.0,0.0,0.0,0.0,0.0,0.0,0.0,0.0,0.0,0.0,0.0,0.0,0.0,0.0,0.0,0.0,0.0,0.0,0.0,0.0,0.0,0.0,1.5439,1.5137,1.5016,0.0,0.0,0.0,0.0,0.0,0.0,0.0,0.0,0.0,0.0,0.0,0.0,0.0,0.0,0.0,0.0,0.0,0.0,0.0,0.0,0.0,0.0,0.0,0.0,0.0,0.0,0.0,0.0,0.0,0.0,0.0,0.0,0.0,0.0,0.0,0.0,0.0,0.0,0.0,0.0,0.0,0.0,0.0,0.0,0.0,0.0,0.0,0.0,0.0,0.0,0.0,0.0,0.0,0.0,0.0,0.0,0.0,0.0,0.0,0.0,0.0,0.0,0.0,0.0,0.0,0.0,0.0,0.0,0.0,0.0,0.0,0.0,0.0,0.0,0.0,0.0,0.0,0.0,0.0,0.0,0.0,0.0,0.0,0.0,0.0,0.0,0.0,0.0,0.0,0.0,0.0,0.0,0.0,0.0,0.0,0.0,0.0,0.0,0.0,0.0,0.0,0.0,0.0,0.0,0.0,0.0,0.0,0.0,0.0,0.0,1.5885,1.5912,1.5608,0.0,1.4775,0.0,0.0,0.0,0.0,0.0,0.0,0.0,0.0,0.0,0.0,0.0,0.0,0.0,0.0,0.0,0.0,0.0,0.0,0.0,0.0,0.0,0.0,0.0,0.0,0.0,0.0,0.0,0.0,0.0,0.0,0.0,0.0,0.0,0.0,0.0,0.0,0.0,0.0,0.0,0.0,0.0,0.0,0.0,0.0,0.0,0.0,0.0,0.0,0.0,0.0,0.0,0.0,0.0,0.0,0.0,0.0,0.0,0.0,0.0,0.0,0.0,0.0,0.0,0.0,0.0,0.0,0.0,0.0,0.0,0.0,0.0,0.0,0.0,0.0,0.0,0.0,0.0,0.0,0.0,0.0,0.0,0.0,0.0,0.0,0.0,0.0,0.0,0.0,0.0,0.0,0.0,0.0,0.0,0.0,0.0,0.0,0.0,0.0,0.0,0.0,0.0,0.0,0.0,0.0,0.0,0.0,0.0,0.0,0.0,0.0,0.0,1.6396,1.5801,1.5173,0.0,0.0,0.0,0.0,0.0,0.0,0.0,0.0,0.0,0.0,0.0,0.0,0.0,0.0,0.0,0.0,0.0,0.0,0.0,0.0,0.0,0.0,0.0,0.0,0.0,0.0,0.0,0.0,0.0,0.0,0.0,0.0,0.0,0.0,0.0,0.0,0.0,0.0,0.0,0.0,0.0,0.0,0.0,0.0,0.0,0.0,0.0,0.0,0.0,0.0,0.0,0.0,0.0,0.0,0.0,0.0,0.0,0.0,0.0,0.0,0.0,0.0,0.0,0.0,0.0,0.0,0.0,0.0,0.0,0.0,0.0,0.0,0.0,0.0,0.0,0.0,0.0,0.0,0.0,0.0,0.0,0.0,0.0,0.0,0.0,0.0,0.0,0.0,0.0,0.0,0.0,0.0,0.0,0.0,0.0,0.0,0.0,0.0,0.0,0.0,0.0,0.0,0.0,0.0,0.0,0.0,0.0,0.0,0.0,0.0,1.6187,0.0,1.6332,1.5741,1.5052,1.4328,0.0,0.0,0.0,0.0,0.0,0.0,0.0,0.0,0.0,0.0,0.0,0.0,0.0,0.0,0.0,0.0,0.0,0.0,0.0,0.0,0.0,0.0,0.0,0.0,0.0,0.0,0.0,0.0,0.0,0.0,0.0,0.0,0.0,0.0,0.0,0.0,0.0,0.0,0.0,0.0,0.0,0.0,0.0,0.0,0.0,0.0,0.0,0.0,0.0,0.0,0.0,0.0,0.0,0.0,0.0,0.0,0.0,0.0,0.0,0.0,0.0,0.0,0.0,0.0,0.0,0.0,0.0,0.0,0.0,0.0,0.0,0.0,0.0,0.0,0.0,0.0,0.0,0.0,0.0,0.0,0.0,0.0,0.0,0.0,0.0,0.0,0.0,0.0,0.0,0.0,0.0,0.0,0.0,0.0,0.0,0.0,0.0,0.0,0.0,0.0,0.0,0.0,0.0,0.0,0.0,0.0,0.0,0.0,0.0,1.591,1.5827,1.5584,1.527,1.4859,0.0,0.0,0.0,0.0,0.0,0.0,0.0,0.0,0.0,0.0,0.0,0.0,0.0,0.0,0.0,0.0,0.0,0.0,0.0,0.0,0.0,0.0,0.0,0.0,0.0,0.0,0.0,0.0,0.0,0.0,0.0,0.0,0.0,0.0,0.0,0.0,0.0,0.0,0.0,0.0,0.0,0.0,0.0,0.0,0.0,0.0,0.0,0.0,0.0,0.0,0.0,0.0,0.0,0.0,0.0,0.0,0.0,0.0,0.0,0.0,0.0,0.0,0.0,0.0,0.0,0.0,0.0,0.0,0.0,0.0,0.0,0.0,0.0,0.0,0.0,0.0,0.0,0.0,0.0,0.0,0.0,0.0,0.0,0.0,0.0,0.0,0.0,0.0,0.0,0.0,0.0,0.0,0.0,0.0,0.0,0.0,0.0,0.0,0.0,0.0,0.0,0.0,0.0,0.0,0.0,0.0,0.0,0.0,0.0,1.5885,1.5885,1.5765,1.5499,1.5089,1.4606,0.0,0.0,0.0,0.0,0.0,0.0,0.0,0.0,0.0,0.0,0.0,0.0,0.0,0.0,0.0,0.0,0.0,0.0,0.0,0.0,0.0,0.0,0.0,0.0,0.0,0.0,0.0,0.0,0.0,0.0,0.0,0.0,0.0,0.0,0.0,0.0,0.0,0.0,0.0,0.0,0.0,0.0,0.0,0.0,0.0,0.0,0.0,0.0,0.0,0.0,0.0,0.0,0.0,0.0,0.0,0.0,0.0,0.0,0.0,0.0,0.0,0.0,0.0,0.0,0.0,0.0,0.0,0.0,0.0,0.0,0.0,0.0,0.0,0.0,0.0,0.0,0.0,0.0,0.0,0.0,0.0,0.0,0.0,0.0,0.0,0.0,0.0,0.0,0.0,0.0,0.0,0.0,0.0,0.0,0.0,0.0,0.0,0.0,0.0,0.0,0.0,0.0,0.0,0.0,0.0,0.0,0.0,0.0,0.0,1.6006,0.0,1.6066,0.0,1.5282,1.4763,0.0,0.0,0.0,0.0,0.0,0.0,0.0,0.0,0.0,0.0,0.0,0.0,0.0,0.0,0.0,0.0,0.0,0.0,0.0,0.0,0.0,0.0,0.0,0.0,0.0,0.0,0.0,0.0,0.0,0.0,0.0,0.0,0.0,0.0,0.0,0.0,0.0,0.0,0.0,0.0,0.0,0.0,0.0,0.0,0.0,0.0,0.0,0.0,0.0,0.0,0.0,0.0,0.0,0.0,0.0,0.0,0.0,0.0,0.0,0.0,0.0,0.0,0.0,0.0,0.0,0.0,0.0,0.0,0.0,0.0,0.0,0.0,0.0,0.0,0.0,0.0,0.0,0.0,0.0,0.0,0.0,0.0,0.0,0.0,0.0,0.0,0.0,0.0,0.0,0.0,0.0,0.0,0.0,0.0,0.0,0.0,0.0,0.0,0.0,0.0,0.0,0.0,0.0,0.0,0.0,0.0,0.0,0.0,1.6069,1.6296,1.6803,1.6706,1.596,1.5873,1.5378,0.0,0.0,0.0,0.0,0.0,0.0,0.0,0.0,0.0,0.0,0.0,0.0,0.0,0.0,0.0,0.0,0.0,0.0,0.0,0.0,0.0,0.0,0.0,0.0,0.0,0.0,0.0,0.0,0.0,0.0,0.0,0.0,0.0,0.0,0.0,0.0,0.0,0.0,0.0,0.0,0.0,0.0,0.0,0.0,0.0,0.0,0.0,0.0,0.0,0.0,0.0,0.0,0.0,0.0,0.0,0.0,0.0,0.0,0.0,0.0,0.0,0.0,0.0,0.0,0.0,0.0,0.0,0.0,0.0,0.0,0.0,0.0,0.0,0.0,0.0,0.0,0.0,0.0,0.0,0.0,0.0,0.0,0.0,0.0,0.0,0.0,0.0,0.0,0.0,0.0,0.0,0.0,0.0,0.0,0.0,0.0,0.0,0.0,0.0,0.0,0.0,0.0,0.0,0.0,0.0,0.0,0.0,0.0,0.0,1.6598,1.7092,1.7153,1.6718,1.6175,1.5572,0.0,0.0,0.0,0.0,0.0,0.0,0.0,0.0,0.0,0.0,0.0,0.0,0.0,0.0,0.0,0.0,0.0,0.0,0.0,0.0,0.0,0.0,0.0,0.0,0.0,0.0,0.0,0.0,0.0,0.0,0.0,0.0,0.0,0.0,0.0,0.0,0.0,0.0,0.0,0.0,0.0,0.0,0.0,0.0,0.0,0.0,0.0,0.0,0.0,0.0,0.0,0.0,0.0,0.0,0.0,0.0,0.0,0.0,0.0,0.0,0.0,0.0,0.0,0.0,0.0,0.0,0.0,0.0,0.0,0.0,0.0,0.0,0.0,0.0,0.0,0.0,0.0,0.0,0.0,0.0,0.0,0.0,0.0,0.0,0.0,0.0,0.0,0.0,0.0,0.0,0.0,0.0,0.0,0.0,0.0,0.0,0.0,0.0,0.0,0.0,0.0,0.0,0.0,0.0,0.0,0.0,0.0,0.0,0.0,1.8493,1.8729,1.8572,1.8028,1.7394,1.6646,1.5728,0.0,0.0,0.0,0.0,0.0,0.0,0.0,0.0,0.0,0.0,0.0,0.0,0.0,0.0,0.0,0.0,0.0,0.0,0.0,0.0,0.0,0.0,0.0,0.0,0.0,0.0,0.0,0.0,0.0,0.0,0.0,0.0,0.0,0.0,0.0,0.0,0.0,0.0,0.0,0.0,0.0,0.0,0.0,0.0,0.0,0.0,0.0,0.0,0.0,0.0,0.0,0.0,0.0,0.0,0.0,0.0,0.0,0.0,0.0,0.0,0.0,0.0,0.0,0.0,0.0,0.0,0.0,0.0,0.0,0.0,0.0,0.0,0.0,0.0,0.0,0.0,0.0,0.0,0.0,0.0,0.0,0.0,0.0,0.0,0.0,0.0,0.0,0.0,0.0,0.0,0.0,0.0,0.0,0.0,0.0,0.0,0.0,0.0,0.0,0.0,0.0,0.0,0.0,0.0,0.0,0.0,0.0,0.0,2.1595,2.1474,2.0845,1.9721,1.9394,1.8456,0.0,0.0,0.0,0.0,0.0,0.0,0.0,0.0,0.0,0.0,0.0,0.0,0.0,0.0,0.0,0.0,0.0,0.0,0.0,0.0,0.0,0.0,0.0,0.0,0.0,0.0,0.0,0.0,0.0,0.0,0.0,0.0,0.0,0.0,0.0,0.0,0.0,0.0,0.0,0.0,0.0,0.0,0.0,0.0,0.0,0.0,0.0,0.0,0.0,0.0,0.0,0.0,0.0,0.0,0.0,0.0,0.0,0.0,0.0,0.0,0.0,0.0,0.0,0.0,0.0,0.0,0.0,0.0,0.0,0.0,0.0,0.0,0.0,0.0,0.0,0.0,0.0,0.0,0.0,0.0,0.0,0.0,0.0,0.0,0.0,0.0,0.0,0.0,0.0,0.0,0.0,0.0,0.0,0.0,0.0,0.0,0.0,0.0,0.0,0.0,0.0,0.0,0.0,0.0,0.0,0.0,0.0,0.0,0.0,2.3125,2.4299,2.3941,2.1933,2.1208,2.0023,0.0,0.0,0.0,0.0,0.0,0.0,0.0,0.0,0.0,0.0,0.0,0.0,0.0,0.0,0.0,0.0,0.0,0.0,0.0,0.0,0.0,0.0,0.0,0.0,0.0,0.0,0.0,0.0,0.0,0.0,0.0,0.0,0.0,0.0,0.0,0.0,0.0,0.0,0.0,0.0,0.0,0.0,0.0,0.0,0.0,0.0,0.0,0.0,0.0,0.0,0.0,0.0,0.0,0.0,0.0,0.0,0.0,0.0,0.0,0.0,0.0,0.0,0.0,0.0,0.0,0.0,0.0,0.0,0.0,0.0,0.0,0.0,0.0,0.0,0.0,0.0,0.0,0.0,0.0,0.0,0.0,0.0,0.0,0.0,0.0,0.0,0.0,0.0,0.0,0.0,0.0,0.0,0.0,0.0,0.0,0.0,0.0,0.0,0.0,0.0,0.0,0.0,0.0,0.0,0.0,0.0,0.0,0.0,2.2476,2.4439,2.6399,2.6472,2.454,2.3068,2.1366,0.0,0.0,0.0,0.0,0.0,0.0,0.0,0.0,0.0,0.0,0.0,0.0,0.0,0.0,0.0,0.0,0.0,0.0,0.0,0.0,0.0,0.0,0.0,0.0,0.0,0.0,0.0,0.0,0.0,0.0,0.0,0.0,0.0,0.0,0.0,0.0,0.0,0.0,0.0,0.0,0.0,0.0,0.0,0.0,0.0,0.0,0.0,0.0,0.0,0.0,0.0,0.0,0.0,0.0,0.0,0.0,0.0,0.0,0.0,0.0,0.0,0.0,0.0,0.0,0.0,0.0,0.0,0.0,0.0,0.0,0.0,0.0,0.0,0.0,0.0,0.0,0.0,0.0,0.0,0.0,0.0,0.0,0.0,0.0,0.0,0.0,0.0,0.0,0.0,0.0,0.0,0.0,0.0,0.0,0.0,0.0,0.0,0.0,0.0,0.0,0.0,0.0,0.0,0.0,0.0,0.0,0.0,0.0,2.3744,2.5535,2.786,2.8451,2.7114,2.4897,2.2679,0.0,0.0,0.0,0.0,0.0,0.0,0.0,0.0,0.0,0.0,0.0,0.0,0.0,0.0,0.0,0.0,0.0,0.0,0.0,0.0,0.0,0.0,0.0,0.0,0.0,0.0,0.0,0.0,0.0,0.0,0.0,0.0,0.0,0.0,0.0,0.0,0.0,0.0,0.0,0.0,0.0,0.0,0.0,0.0,0.0,0.0,0.0,0.0,0.0,0.0,0.0,0.0,0.0,0.0,0.0,0.0,0.0,0.0,0.0,0.0,0.0,0.0,0.0,0.0,0.0,0.0,0.0,0.0,0.0,0.0,0.0,0.0,0.0,0.0,0.0,0.0,0.0,0.0,0.0,0.0,0.0,0.0,0.0,0.0,0.0,0.0,0.0,0.0,0.0,0.0,0.0,0.0,0.0,0.0,0.0,0.0,0.0,0.0,0.0,0.0,0.0,0.0,0.0,0.0,0.0,0.0,0.0,0.0,2.5011,2.662,2.8415,2.8886,2.7968,2.6403,2.4444,0.0,0.0,0.0,0.0,0.0,0.0,0.0,0.0,0.0,0.0,0.0,0.0,0.0,0.0,0.0,0.0,0.0,0.0,0.0,0.0,0.0,0.0,0.0,0.0,0.0,0.0,0.0,0.0,0.0,0.0,0.0,0.0,0.0,0.0,0.0,0.0,0.0,0.0,0.0,0.0,0.0,0.0,0.0,0.0,0.0,0.0,0.0,0.0,1.8608,0.0,0.0,0.0,0.0,0.0,0.0,0.0,0.0,0.0,0.0,0.0,0.0,0.0,0.0,0.0,0.0,0.0,0.0,0.0,0.0,0.0,0.0,0.0,0.0,0.0,0.0,0.0,0.0,0.0,0.0,0.0,0.0,0.0,0.0,0.0,0.0,0.0,0.0,0.0,0.0,0.0,0.0,0.0,0.0,0.0,0.0,0.0,0.0,0.0,0.0,0.0,0.0,0.0,0.0,0.0,0.0,0.0,0.0,0.0,2.6186,2.7524,2.9139,2.9526,2.8608,2.7655,2.5784,0.0,0.0,0.0,0.0,0.0,0.0,0.0,0.0,0.0,0.0,0.0,0.0,0.0,0.0,0.0,0.0,0.0,0.0,0.0,0.0,0.0,0.0,0.0,0.0,0.0,0.0,0.0,0.0,0.0,0.0,0.0,0.0,0.0,0.0,0.0,0.0,0.0,0.0,0.0,0.0,0.0,0.0,0.0,0.0,0.0,0.0,0.0,0.0,0.0,0.0,0.0,0.0,0.0,0.0,0.0,0.0,0.0,0.0,0.0,0.0,0.0,0.0,0.0,0.0,0.0,0.0,0.0,0.0,0.0,0.0,0.0,0.0,0.0,0.0,0.0,0.0,0.0,0.0,0.0,0.0,0.0,0.0,0.0,0.0,0.0,0.0,0.0,0.0,0.0,0.0,0.0,0.0,0.0,0.0,0.0,0.0,0.0,0.0,0.0,0.0,0.0,0.0,0.0,0.0,0.0,0.0,0.0,2.5232,2.7159,2.8188,2.9765,3.0081,2.8982,2.8343,2.658,2.3523,0.0,0.0,0.0,0.0,0.0,0.0,0.0,0.0,0.0,0.0,0.0,0.0,0.0,0.0,0.0,0.0,0.0,0.0,0.0,0.0,0.0,0.0,0.0,0.0,0.0,0.0,0.0,0.0,0.0,0.0,0.0,0.0,0.0,0.0,0.0,0.0,0.0,0.0,1.8101,1.9128,0.0,0.0,0.0,0.0,0.0,0.0,0.0,0.0,1.9869,0.0,0.0,0.0,0.0,0.0,0.0,0.0,0.0,0.0,0.0,0.0,0.0,0.0,0.0,0.0,0.0,0.0,0.0,0.0,0.0,0.0,0.0,0.0,0.0,0.0,0.0,0.0,0.0,0.0,0.0,0.0,0.0,0.0,0.0,0.0,0.0,0.0,0.0,0.0,0.0,0.0,0.0,0.0,0.0,0.0,0.0,0.0,0.0,0.0,0.0,0.0,0.0,0.0,0.0,0.0,0.0,2.2682,2.5569,2.7422,2.8194,2.9756,2.9996,2.8729,2.7692,2.5993,2.3523,0.0,0.0,0.0,0.0,0.0,0.0,0.0,0.0,0.0,0.0,0.0,0.0,0.0,0.0,0.0,0.0,0.0,0.0,0.0,0.0,0.0,0.0,0.0,0.0,0.0,0.0,0.0,0.0,0.0,0.0,0.0,0.0,0.0,0.0,0.0,0.0,0.0,0.0,0.0,2.0507,2.099,0.0,0.0,0.0,0.0,0.0,0.0,0.0,0.0,2.0483,0.0,0.0,0.0,0.0,0.0,0.0,0.0,0.0,0.0,0.0,0.0,0.0,0.0,0.0,0.0,0.0,0.0,0.0,0.0,0.0,0.0,0.0,0.0,0.0,0.0,0.0,0.0,0.0,0.0,0.0,0.0,0.0,0.0,0.0,0.0,0.0,0.0,0.0,0.0,0.0,0.0,0.0,0.0,0.0,0.0,0.0,0.0,0.0,0.0,0.0,0.0,0.0,0.0,0.0,0.0,2.2296,2.5332,2.719,2.7783,2.9762,3.0045,2.8451,2.7244,2.5482,0.0,0.0,0.0,0.0,0.0,0.0,0.0,0.0,0.0,0.0,0.0,0.0,0.0,0.0,0.0,0.0,0.0,0.0,0.0,0.0,0.0,0.0,0.0,0.0,0.0,0.0,0.0,0.0,0.0,0.0,0.0,0.0,0.0,0.0,0.0,0.0,0.0,0.0,0.0,0.0,2.1655,2.2307,2.1813,0.0,0.0,0.0,0.0,0.0,0.0,2.1607,2.1111,0.0,0.0,0.0,0.0,0.0,0.0,0.0,0.0,0.0,0.0,0.0,0.0,0.0,0.0,0.0,0.0,0.0,0.0,0.0,0.0,0.0,0.0,0.0,0.0,0.0,0.0,0.0,0.0,0.0,0.0,0.0,0.0,0.0,0.0,0.0,0.0,0.0,0.0,0.0,0.0,0.0,0.0,0.0,0.0,0.0,0.0,0.0,0.0,0.0,0.0,0.0,0.0,0.0,0.0,0.0,2.1615,2.4615,2.6438,2.7029,2.9129,2.9522,2.7855,2.6535,2.4843,0.0,0.0,0.0,0.0,0.0,0.0,0.0,0.0,0.0,0.0,0.0,0.0,0.0,0.0,0.0,0.0,0.0,0.0,0.0,0.0,0.0,0.0,0.0,0.0,0.0,0.0,0.0,0.0,0.0,0.0,0.0,0.0,0.0,0.0,0.0,0.0,0.0,0.0,0.0,0.0,0.0,2.355,2.3227,2.2768,0.0,0.0,0.0,0.0,2.2852,2.2683,0.0,0.0,0.0,0.0,0.0,0.0,0.0,0.0,0.0,0.0,0.0,0.0,0.0,0.0,0.0,0.0,0.0,0.0,0.0,0.0,0.0,0.0,0.0,0.0,0.0,0.0,0.0,0.0,0.0,0.0,0.0,0.0,0.0,0.0,0.0,0.0,0.0,0.0,0.0,0.0,0.0,0.0,0.0,0.0,0.0,0.0,0.0,0.0,0.0,0.0,0.0,0.0,0.0,0.0,0.0,0.0,2.0896,2.3183,2.479,2.5808,2.7227,2.7513,2.6428,2.5354,2.3913,0.0,0.0,0.0,0.0,0.0,0.0,0.0,0.0,0.0,0.0,0.0,0.0,0.0,0.0,0.0,0.0,0.0,0.0,0.0,0.0,0.0,0.0,0.0,0.0,0.0,0.0,0.0,0.0,0.0,0.0,0.0,0.0,0.0,0.0,0.0,0.0,0.0,0.0,0.0,0.0,0.0,2.4523,2.4704,2.4463,2.4311,0.0,0.0,2.4403,2.4644,2.4656,0.0,0.0,0.0,0.0,0.0,0.0,0.0,0.0,0.0,0.0,0.0,0.0,0.0,0.0,0.0,0.0,0.0,0.0,0.0,0.0,0.0,0.0,0.0,0.0,0.0,0.0,0.0,0.0,0.0,0.0,0.0,0.0,0.0,0.0,0.0,0.0,0.0,0.0,0.0,0.0,0.0,0.0,0.0,0.0,0.0,0.0,0.0,0.0,0.0,0.0,0.0,0.0,0.0,0.0,0.0,1.6668,1.8832,2.1121,2.2672,2.3377,2.505,2.5442,2.4458,2.429,2.3337,0.0,0.0,0.0,0.0,0.0,0.0,0.0,0.0,0.0,0.0,0.0,0.0,0.0,0.0,0.0,0.0,0.0,0.0,0.0,0.0,0.0,0.0,0.0,0.0,0.0,0.0,0.0,0.0,0.0,0.0,0.0,0.0,0.0,0.0,0.0,0.0,0.0,0.0,0.0,0.0,0.0,0.0,2.6054,2.6017,0.0,0.0,0.0,2.6042,2.6307,0.0,0.0,0.0,0.0,0.0,0.0,0.0,0.0,0.0,0.0,0.0,0.0,0.0,0.0,0.0,0.0,0.0,0.0,0.0,0.0,0.0,0.0,0.0,0.0,0.0,0.0,0.0,0.0,0.0,0.0,0.0,0.0,0.0,0.0,0.0,0.0,0.0,0.0,0.0,0.0,0.0,0.0,0.0,0.0,0.0,0.0,0.0,0.0,0.0,0.0,0.0,0.0,0.0,0.0,0.0,0.0,0.0,1.7202,1.9505,2.0889,2.1355,2.2943,2.3559,2.2869,2.3136,0.0,0.0,0.0,0.0,0.0,0.0,0.0,0.0,0.0,0.0,0.0,0.0,0.0,0.0,0.0,0.0,0.0,0.0,0.0,0.0,0.0,0.0,0.0,0.0,0.0,0.0,0.0,1.5728,0.0,0.0,0.0,0.0,0.0,0.0,0.0,0.0,0.0,0.0,0.0,0.0,0.0,0.0,2.6616,2.7367,2.7596,2.7775,0.0,0.0,2.7644,2.7837,2.8089,2.7512,0.0,0.0,0.0,0.0,0.0,0.0,0.0,0.0,0.0,0.0,0.0,0.0,0.0,0.0,0.0,0.0,0.0,0.0,0.0,0.0,0.0,0.0,0.0,0.0,0.0,0.0,0.0,0.0,0.0,0.0,0.0,0.0,0.0,0.0,0.0,0.0,0.0,0.0,0.0,0.0,0.0,0.0,0.0,0.0,0.0,0.0,0.0,0.0,0.0,0.0,0.0,0.0,0.0,0.0,0.0,1.689,1.8641,1.989,2.0576,2.1203,2.1695,2.203,2.1818,2.1371,0.0,0.0,0.0,0.0,0.0,0.0,0.0,0.0,0.0,0.0,0.0,0.0,0.0,0.0,0.0,0.0,0.0,0.0,0.0,0.0,0.0,0.0,0.0,0.0,0.0,0.0,0.0,0.0,0.0,0.0,0.0,0.0,0.0,0.0,0.0,0.0,0.0,0.0,0.0,0.0,0.0,2.7968,2.8765,2.9296,2.9538,0.0,0.0,2.9248,2.9272,2.9284,2.8584,2.6439,0.0,0.0,0.0,0.0,0.0,0.0,0.0,0.0,0.0,0.0,0.0,0.0,0.0,0.0,0.0,0.0,0.0,0.0,0.0,0.0,0.0,0.0,0.0,0.0,0.0,0.0,0.0,0.0,0.0,0.0,0.0,0.0,0.0,0.0,0.0,0.0,0.0,0.0,0.0,0.0,0.0,0.0,0.0,0.0,0.0,0.0,0.0,0.0,0.0,0.0,0.0,0.0,0.0,1.4468,1.625,1.7974,1.9001,1.9234,1.961,1.9885,2.01,2.0816,2.0692,0.0,0.0,0.0,0.0,0.0,0.0,0.0,0.0,0.0,0.0,0.0,0.0,0.0,0.0,0.0,0.0,0.0,0.0,0.0,0.0,0.0,0.0,0.0,0.0,0.0,0.0,0.0,0.0,1.7865,1.7992,1.7907,0.0,0.0,0.0,0.0,0.0,0.0,0.0,0.0,0.0,0.0,2.9019,3.0298,3.0938,0.0,0.0,3.1336,3.101,3.0684,3.0358,2.9417,2.7304,2.5234,0.0,0.0,0.0,0.0,0.0,0.0,0.0,0.0,0.0,0.0,0.0,0.0,0.0,0.0,0.0,0.0,0.0,0.0,0.0,0.0,0.0,0.0,0.0,0.0,0.0,0.0,0.0,0.0,0.0,0.0,0.0,0.0,0.0,0.0,0.0,0.0,0.0,0.0,0.0,0.0,0.0,0.0,0.0,0.0,0.0,0.0,0.0,0.0,0.0,0.0,0.0,0.0,1.4231,1.5962,1.7643,1.8474,1.8474,1.8681,1.8832,1.8936,1.9919,2.0011,0.0,0.0,0.0,0.0,0.0,0.0,0.0,0.0,0.0,0.0,0.0,0.0,0.0,0.0,0.0,0.0,0.0,0.0,0.0,0.0,0.0,0.0,0.0,0.0,0.0,0.0,0.0,0.0,1.877,1.862,1.8197,0.0,0.0,0.0,0.0,0.0,0.0,0.0,0.0,0.0,0.0,2.9172,3.0708,3.1379,3.189,3.2258,3.208,3.1683,3.1068,3.0786,2.9912,2.786,0.0,0.0,0.0,0.0,0.0,0.0,0.0,0.0,0.0,0.0,0.0,0.0,0.0,0.0,0.0,0.0,0.0,0.0,0.0,0.0,0.0,0.0,0.0,0.0,0.0,0.0,0.0,1.7889,0.0,0.0,1.7439,0.0,0.0,0.0,0.0,0.0,0.0,0.0,0.0,0.0,0.0,0.0,0.0,0.0,0.0,0.0,0.0,0.0,0.0,0.0,0.0,0.0,0.0,1.4285,1.6062,1.7704,1.8481,1.8494,1.8687,1.8846,1.8895,1.9119,1.9195,1.904,0.0,0.0,0.0,0.0,0.0,0.0,0.0,0.0,0.0,0.0,0.0,0.0,0.0,0.0,0.0,0.0,0.0,0.0,0.0,0.0,0.0,0.0,0.0,0.0,0.0,0.0,1.9703,1.9845,1.9462,0.0,0.0,0.0,0.0,0.0,0.0,0.0,0.0,0.0,0.0,2.6441,2.8367,2.9557,3.0291,3.0804,3.0882,3.0998,3.0877,3.0218,3.0367,2.9972,0.0,0.0,0.0,0.0,0.0,0.0,0.0,0.0,0.0,0.0,0.0,0.0,0.0,0.0,0.0,0.0,0.0,0.0,0.0,0.0,0.0,0.0,0.0,0.0,0.0,0.0,0.0,1.8511,1.839,0.0,0.0,0.0,0.0,0.0,0.0,0.0,0.0,0.0,0.0,0.0,1.7542,1.7633,0.0,0.0,0.0,0.0,0.0,0.0,0.0,0.0,0.0,0.0,0.0,0.0,1.4482,1.6347,1.7996,1.8932,1.9062,1.9176,1.9158,1.8983,1.8787,1.833,1.753,0.0,0.0,0.0,0.0,0.0,0.0,0.0,0.0,0.0,0.0,0.0,0.0,0.0,0.0,0.0,0.0,0.0,0.0,0.0,0.0,0.0,0.0,0.0,0.0,0.0,1.8529,0.0,0.0,0.0,0.0,0.0,0.0,0.0,0.0,0.0,0.0,0.0,2.0486,2.2883,2.5751,2.7909,2.8761,2.9751,3.0309,0.0,0.0,0.0,0.0,0.0,0.0,0.0,0.0,0.0,0.0,0.0,0.0,0.0,0.0,2.7968,2.6822,2.6427,2.6375,2.646,0.0,0.0,0.0,0.0,0.0,0.0,0.0,0.0,0.0,0.0,0.0,0.0,0.0,0.0,1.8622,0.0,1.7865,0.0,0.0,0.0,0.0,0.0,0.0,0.0,0.0,1.6974,1.7654,1.7974,1.814,1.8062,0.0,1.7185,1.6026,0.0,0.0,0.0,0.0,0.0,0.0,0.0,0.0,1.4823,1.654,1.8335,1.9264,1.9352,1.9501,1.942,1.9067,1.8738,1.8065,1.7139,1.5823,1.4637,0.0,0.0,0.0,0.0,0.0,0.0,0.0,0.0,0.0,0.0,0.0,0.0,0.0,0.0,0.0,0.0,0.0,0.0,0.0,0.0,0.0,0.0,0.0,1.7795,0.0,0.0,0.0,0.0,0.0,0.0,0.0,0.0,0.0,1.8542,1.8874,1.9869,2.1939,2.4595,2.6541,2.7189,0.0,0.0,0.0,0.0,0.0,0.0,0.0,2.9017,2.8257,2.8104,2.8357,2.9089,2.9699,3.0247,3.0635,0.0,0.0,3.0064,2.9731,2.9682,2.9948,2.9803,2.9743,3.0081,3.0226,3.0407,0.0,0.0,0.0,0.0,0.0,0.0,0.0,0.0,1.875,1.854,0.0,1.7537,0.0,0.0,0.0,0.0,1.3623,1.3791,0.0,0.0,1.7039,1.7758,1.7956,1.8235,1.8253,1.8104,1.7799,1.7344,1.6601,1.4577,0.0,0.0,0.0,0.0,0.0,0.0,1.537,1.675,1.8674,1.9515,1.9271,1.9657,1.9671,1.9223,1.8837,1.838,1.7792,1.6938,1.5925,1.4688,1.3769,0.0,0.0,0.0,0.0,0.0,0.0,0.0,0.0,0.0,0.0,0.0,0.0,0.0,0.0,0.0,0.0,0.0,0.0,0.0,0.0,1.8048,0.0,0.0,0.0,0.0,0.0,0.0,0.0,0.0,0.0,0.0,1.85,1.8719,1.95,2.1217,0.0,0.0,0.0,0.0,2.6171,2.6238,2.6575,2.6774,2.6827,2.7567,2.809,2.7971,0.0,0.0,2.9411,2.978,2.9986,3.0044,3.0568,3.1483,3.2649,3.2831,3.2947,3.3255,3.3437,3.3762,3.3823,3.375,3.4052,2.4971,0.0,0.0,0.0,0.0,2.0619,2.0288,1.9833,1.9703,1.9516,1.9256,1.8328,0.0,0.0,0.0,0.0,0.0,0.0,1.5805,1.6788,1.7921,1.8525,1.8674,1.8857,1.8871,1.8728,1.8538,1.8192,1.7677,1.6741,1.5296,1.3403,0.0,0.0,0.0,0.0,1.5771,1.7507,1.8837,1.961,1.9841,1.9969,1.9875,1.9535,1.9185,1.8726,1.8157,1.7408,1.6564,1.5563,1.4479,0.0,0.0,0.0,0.0,0.0,0.0,0.0,0.0,0.0,0.0,0.0,0.0,0.0,0.0,0.0,0.0,0.0,0.0,0.0,1.7886,1.7128,1.6326,0.0,0.0,0.0,0.0,0.0,0.0,0.0,0.0,0.0,1.8692,1.8268,1.8474,0.0,0.0,2.269,2.2711,2.3496,2.3955,2.354,2.4,0.0,2.4413,2.5597,2.6568,2.6712,2.7655,2.8696,2.9578,2.9646,2.9578,2.9568,2.9893,3.0608,3.2191,3.3022,3.3682,3.4335,3.4641,3.4764,3.5114,3.5139,3.5126,2.4496,2.3663,2.317,2.221,2.1071,2.0934,2.0613,2.0231,2.0011,1.9885,1.9785,1.8692,1.7818,1.7021,1.6117,0.0,0.0,0.0,1.71,1.7941,1.8861,1.9312,1.9522,1.961,1.9576,1.9427,1.9217,1.8918,1.8525,1.8145,1.7141,1.5513,0.0,0.0,1.4505,1.5242,1.6361,1.7921,1.9047,1.9766,2.0092,2.0159,2.0051,1.9752,1.9508,1.9074,1.843,1.7968,1.7311,1.6466,1.5466,1.4421,0.0,0.0,0.0,0.0,0.0,0.0,0.0,0.0,0.0,0.0,0.0,1.4,0.0,0.0,0.0,0.0,1.6493,1.7057,1.6998,1.6491,0.0,0.0,0.0,0.0,0.0,0.0,0.0,1.8018,1.8732,1.9227,1.9296,1.8957,1.8909,1.9616,2.0906,2.1818,2.1857,0.0,2.2681,2.2412,2.2757,2.3138,2.3244,2.4286,2.5251,2.5738,2.6739,2.7619,2.8175,2.8175,2.8077,2.8045,2.8442,2.9354,3.0771,3.2135,3.3737,3.5394,3.5911,3.6129,3.654,3.643,3.6419,2.3383,2.3056,2.2784,2.2057,2.1137,2.0893,2.0555,2.0153,2.0031,1.9956,1.9847,1.8877,1.8097,1.746,1.6625,0.0,1.7148,1.7711,1.8405,1.9061,1.9644,2.0058,2.0329,2.0259,2.0248,2.0085,1.98,1.9508,1.921,1.8983,1.863,1.8104,1.6212,1.5445,1.5776,1.6317,1.7154,1.8192,1.9318,1.9969,2.0132,2.0275,2.02,1.9902,1.9766,1.9359,1.866,1.8606,1.8213,1.7372,1.6612,1.5791,1.4836,0.0,0.0,0.0,0.0,0.0,0.0,0.0,0.0,0.0,0.0,0.0,0.0,0.0,0.0,0.0,1.6084,0.0,1.6478,1.6187,0.0,0.0,0.0,1.5174,1.5983,1.6847,1.7561,1.8145,0.0,0.0,2.0098,2.0295,2.0333,2.0183,2.0875,2.1464,2.1819,2.1947,2.2108,2.2255,2.2473,2.2657,2.2903,2.3386,2.3992,2.4611,2.5227,2.5442,2.5653,2.5693,2.5653,2.5434,2.6405,2.747,2.8507,3.03,3.2869,3.5928,3.7003,3.7417,3.7698,3.7809,3.7712,2.2035,2.1837,2.174,2.1624,2.142,2.146,2.1245,2.079,2.0858,2.0702,2.0343,1.9759,1.9047,1.8247,1.7806,1.788,1.8412,1.8721,1.9108,1.9582,1.9997,2.0198,2.0266,2.0266,2.0248,2.0085,1.9807,1.9563,1.9373,1.9189,1.8932,1.8643,1.7982,1.7568,1.7351,1.7589,1.8179,1.9101,1.9725,2.0173,2.0431,2.0408,2.0349,2.0058,2.0017,1.9807,1.9406,1.9278,1.9013,1.8572,1.7738,1.6763,1.5805,1.4612,0.0,0.0,0.0,0.0,0.0,0.0,0.0,0.0,0.0,1.3558,1.3624,0.0,1.4493,0.0,1.604,1.6729,1.6869,1.6874,0.0,0.0,1.6653,1.6809,1.7384,1.814,1.8749,1.923,1.9969,2.0492,2.06,2.0838,2.1004,2.0949,2.1112,2.1316,2.1335,2.1466,2.1577,2.1684,2.1802,2.1958,2.2058,2.2033,2.2129,2.2284,2.2443,2.2499,2.2535,2.2535,2.2454,2.2492,2.3119,2.4265,2.5758,2.7331,2.9865,3.3408,3.5841,3.7524,3.8225,3.8414,3.8329,2.1584,2.1375,2.1375,2.1429,2.1485,2.1508,2.1484,2.1306,2.138,2.1313,2.1102,2.0594,1.999,1.9272,1.9162,1.9223,1.9468,1.9698,1.9888,2.0064,2.0376,2.0526,2.0532,2.06,2.0512,2.0288,1.9997,1.9746,1.9535,1.9447,1.9325,1.9222,1.921,1.9108,1.8857,1.8552,1.8796,1.9617,2.0071,2.0343,2.0444,2.0442,2.0273,1.9929,1.9963,1.98,1.9439,1.9339,1.9196,1.8891,1.8158,1.7358,1.6517,1.5316,1.3987,0.0,0.0,0.0,0.0,0.0,0.0,0.0,0.0,0.0,0.0,0.0,1.5013,1.5487,1.622,1.6904,1.7454,1.7861,1.8145,1.8337,1.8409,1.8613,1.8925,1.9508,2.0003,2.0315,2.0892,2.1292,2.136,2.1394,2.1441,2.1496,2.1394,2.136,2.1482,2.1536,2.1584,2.1652,2.1753,2.174,2.1686,2.1597,2.1564,2.1625,2.1638,2.1638,2.1638,2.1638,2.1638,2.1698,2.2118,2.2928,2.418,2.5737,2.7943,3.096,3.3508,3.5709,3.7963,3.8523,3.8511,2.1625,2.1409,2.1489,2.1422,2.1402,2.1489,2.1577,2.1699,2.1787,2.1774,2.1821,2.1272,2.0804,2.0417,2.037,2.0286,2.0336,2.0438,2.0428,2.0519,2.0675,2.075,2.0841,2.0926,2.0845,2.0469,2.0241,1.9963,1.9752,1.9732,1.9732,1.9759,1.9969,2.0112,2.0098,1.9352,1.9298,1.9976,2.0376,2.0519,2.0417,2.0519,2.0295,1.9752,1.9861,1.963,1.9,1.9081,1.9013,1.8766,1.8221,1.7602,1.7019,1.59,1.4835,0.0,1.3417,0.0,0.0,0.0,0.0,0.0,0.0,0.0,0.0,1.5167,1.5547,1.6252,1.67,1.7257,1.8179,1.8918,1.9461,1.9807,2.0037,2.0268,2.041,2.0817,2.1129,2.1258,2.1652,2.1964,2.2045,2.1896,2.1808,2.1862,2.1699,2.1638,2.1835,2.176,2.1753,2.2045,2.195,2.1774,2.1658,2.1631,2.1665,2.1781,2.1781,2.1828,2.1794,2.1794,2.1808,2.1862,2.2162,2.2637,2.3156,2.4585,2.6505,2.8753,3.0536,3.2921,3.6535,3.7942,3.8195,2.1869,2.1638,2.1753,2.1733,2.1638,2.1753,2.1815,2.1848,2.1977,2.1909,2.1686,2.1333,2.1062,2.0858,2.0607,2.0438,2.0322,2.0227,2.0254,2.0313,2.0519,2.0655,2.0777,2.0926,2.0838,2.0532,2.0241,2.001,1.9895,1.9719,1.978,1.9841,2.001,2.0159,2.0275,0.0,0.0,0.0,2.0689,2.0777,2.0865,2.0777,2.0505,2.0037,1.9813,0.0,1.8843,1.8888,1.8708,1.8409,1.8057,0.0,0.0,0.0,0.0,0.0,0.0,0.0,0.0,0.0,0.0,0.0,1.689,1.6942,1.6592,1.6693,1.6978,1.7534,1.7833,1.8335,1.9101,1.9739,2.0187,2.0363,2.0648,2.0845,2.0892,2.1272,2.1557,2.1584,2.1869,2.2079,2.2106,2.216,2.2167,2.2072,2.2018,2.2004,2.2052,2.1842,2.1747,2.1882,2.1835,2.1672,2.1509,2.1502,2.1536,2.1523,2.1523,2.1536,2.1557,2.155,2.1536,2.1543,2.1569,2.1647,2.1694,2.2505,2.4005,2.5902,2.726,2.9626,3.4513,3.6256,3.6956,2.2025,2.1889,2.1882,2.1882,0.0,2.1964,2.2038,2.2106,2.2106,2.1984,2.176,2.1536,2.1238,2.0865,2.0492,2.0207,1.999,1.9759,1.978,2.001,2.0302,2.056,2.0848,2.1082,2.1062,2.0756,2.039,2.0132,1.9983,1.9834,1.9902,1.9983,2.0207,2.0356,2.0368,2.0512,2.0621,2.077,2.0834,2.0811,2.0878,2.0811,2.0519,2.001,1.9909,0.0,0.0,0.0,0.0,0.0,0.0,0.0,0.0,0.0,0.0,1.6096,1.5927,1.5913,1.6019,1.6551,1.7221,1.7914,1.8586,1.8687,1.8023,1.8296,1.8531,1.8888,1.9135,1.9529,2.0037,2.0438,2.075,2.096,2.1197,2.1353,2.1455,2.1699,2.1889,2.1903,2.2086,2.2221,2.2228,2.2283,2.2276,2.214,2.2113,2.212,2.2099,2.1991,2.1923,2.1984,2.1943,2.1835,2.1692,2.1658,2.1652,2.1658,2.1658,2.1658,2.1658,2.1658,2.1658,2.1658,2.1658,2.1625,2.1637,2.2205,2.3124,2.451,2.5514,2.6931,3.0291,3.2516,3.445,2.2133,2.2106,2.2032,2.2045,2.2113,2.2194,2.2303,2.2405,2.2255,0.0,0.0,2.1801,2.1448,2.0912,2.0458,2.0098,1.98,1.9501,1.9522,1.9834,2.0254,2.06,2.0906,2.1319,2.136,2.1068,2.0675,2.0397,2.022,2.0092,2.0098,2.0234,2.0465,2.0516,2.0594,2.0736,2.0824,2.0845,2.0851,2.0865,2.0892,2.0865,2.0587,2.0044,1.9949,1.9644,1.9094,1.904,1.8959,1.8868,1.8572,1.8382,1.8247,1.7874,1.7623,1.7548,1.7439,1.7514,1.7833,1.8077,1.8521,1.904,1.9827,2.0003,1.9318,1.9583,1.9854,2.0017,2.0282,2.0566,2.0865,2.1055,2.1252,2.1496,2.1652,2.1794,2.1909,2.2059,2.214,2.2167,2.2255,2.235,2.2371,2.2342,2.2357,2.2235,2.2249,2.2194,2.216,2.2154,2.2127,2.2099,2.2072,2.2038,2.1916,2.1862,2.1882,2.1855,2.1869,2.1882,2.1882,2.1882,2.1882,2.1855,2.1882,2.1869,2.1943,2.2261,2.2939,2.3733,2.4209,2.4742,2.5714,2.7971,3.061,2.2235,2.2127,2.2364,2.2323,2.214,2.2527,2.2696,2.2703,2.2554,2.2337,2.2079,2.2059,2.1862,2.1523,2.1075,2.0709,2.0404,2.0112,2.0139,2.0431,2.0756,2.1062,2.1353,2.1672,2.1665,2.138,2.1177,2.0946,2.0702,2.0655,2.0661,2.0675,2.0722,2.0743,2.075,2.0892,2.1028,2.115,2.115,2.1211,2.134,2.1218,2.0987,2.0655,2.0268,1.9847,1.9393,1.925,1.9108,1.8966,1.8918,1.8884,1.8857,1.8674,1.8674,1.8898,1.8898,1.9081,1.9488,1.9569,1.9793,2.0261,2.0763,2.0845,2.0313,2.0268,2.0349,2.0614,2.0804,2.1028,2.1319,2.1577,2.1747,2.1815,2.1957,2.2059,2.2079,2.2208,2.2296,2.2296,2.2254,2.2391,2.25,2.2628,2.2649,2.254,2.2506,2.2574,2.235,2.231,2.2249,2.2147,2.2113,2.2045,2.195,2.1889,2.1909,2.1882,2.1903,2.1916,2.1923,2.1923,2.1923,2.1889,2.1916,2.1909,2.1903,2.195,2.2194,2.2439,2.2608,2.2626,2.2819,2.3806,2.5789,2.2466,2.2486,2.2622,2.2601,2.2493,2.2696,2.2778,2.2778,2.271,2.2513,2.2242,2.2147,2.1903,2.1523,2.1163,2.0831,2.0526,2.0234,2.0261,2.0489,2.0858,2.1157,2.1382,2.1747,2.1815,2.1665,2.1441,2.1265,2.1129,2.098,2.0892,2.0892,2.0899,2.0892,2.0906,2.1041,2.1184,2.1326,2.1252,2.1285,2.1368,2.1292,2.1109,2.0899,2.0607,2.0254,1.9813,1.9725,1.959,1.9366,1.9412,1.9412,1.9412,1.9359,1.9461,1.9678,1.9766,1.9976,2.0399,2.0438,2.0641,2.0936,2.1218,2.1326,2.1279,2.1062,2.1028,2.1238,2.1326,2.1448,2.1658,2.1801,2.1916,2.1998,2.2072,2.2147,2.2228,2.222,2.2337,2.235,2.2411,2.2479,2.2617,2.2757,2.2805,2.2608,2.2567,2.2486,2.2357,2.2344,2.2247,2.218,2.2235,2.2208,2.214,2.2133,2.2133,2.2127,2.2127,2.2133,2.2133,2.2127,2.2127,2.2127,2.2127,2.2133,2.212,2.2133,2.2133,2.212,2.2052,2.1964,2.1963,2.2599,2.4518,2.2712,2.2778,2.2818,2.2852,2.2879,2.2846,2.2852,2.2873,2.2852,2.269,2.2439,2.2242,2.195,2.1584,2.1313,2.1055,2.0783,2.0526,2.0546,2.0811,2.1075,2.134,2.1597,2.1862,2.1971,2.1916,2.1699,2.1504,2.1516,2.1306,2.1163,2.1109,2.1102,2.1102,2.1102,2.1245,2.1374,2.1475,2.1374,2.1353,2.1368,2.1326,2.1224,2.115,2.0967,2.0722,2.0424,2.0343,2.02,2.0045,1.9963,1.9963,2.0031,2.0064,2.0193,2.0343,2.0431,2.0594,2.0845,2.1014,2.1211,2.1469,2.1523,2.1638,2.1828,2.1672,2.1591,2.1699,2.174,2.1815,2.1909,2.1977,2.2038,2.2147,2.216,2.2208,2.2316,2.2344,2.2357,2.2391,2.2486,2.2644,2.2746,2.2866,2.2893,2.2662,2.2452,2.2344,2.2344,2.2344,2.2344,2.2344,2.2344,2.233,2.2344,2.233,2.2323,2.2344,2.233,2.2316,2.2316,2.233,2.2337,2.2247,2.2323,2.2289,2.2289,2.2241,2.2247,2.2303,2.2228,2.212,2.2032,2.2563,2.391,2.2649,2.2791,2.2934,2.3063,2.3151,2.3035,2.3042,2.3137,2.3042,2.29,2.2696,2.2445,2.2146,2.2045,2.1862,2.1699,2.1543,2.1394,2.1401,2.1557,2.1726,2.1889,2.2038,2.2208,2.2228,2.2099,2.2045,2.1943,2.1828,2.1794,2.1652,2.1435,2.1335,2.1328,2.1408,2.1543,2.1631,2.1652,2.1638,2.157,2.1382,2.1362,2.1482,2.1604,2.1326,2.1224,2.1193,2.1062,2.0906,2.0878,2.0858,2.0865,2.0865,2.0885,2.0953,2.1082,2.1001,2.1014,2.1163,2.1313,2.1475,2.1638,2.1767,2.1855,2.1896,2.1862,2.1842,2.1889,2.1991,2.2059,2.2093,2.2201,2.2276,2.2289,2.2241,2.2323,2.2274,2.2344,2.2391,2.252,2.2637,2.2726,2.2886,2.2974,2.2927,2.2764,2.25,2.2344,2.2344,2.2344,2.2344,2.2344,2.2344,2.2344,2.2344,2.2344,2.2344,2.2344,2.2344,2.2344,2.2344,2.2344,2.2344,2.2344,2.2344,2.2296,2.2221,2.2235,2.2261,2.231,2.2283,2.2255,2.2113,2.2168,2.2978,2.2859,2.2927,2.3076,2.3171,2.3191,2.2974,2.2961,2.3069,2.2846,2.2703,2.2628,2.2425,2.2303,2.2242,2.2181,2.212,2.2059,2.1998,2.2004,2.2065,2.2127,2.2188,2.2249,2.2241,2.2234,2.2242,2.2154,2.2079,2.2011,2.193,2.1733,2.1429,2.1611,2.1611,2.1409,2.1679,2.1753,2.1672,2.1672,2.1597,2.1469,2.153,2.1604,2.1658,2.1631,2.1591,2.1564,2.1455,2.136,2.1272,2.1193,2.1258,2.1265,2.1346,2.1421,2.1482,2.1509,2.155,2.1604,2.1665,2.1767,2.1923,2.1984,2.2052,2.2147,2.2154,2.2154,2.2154,2.2127,2.214,2.2235,2.2303,2.2344,2.235,2.2411,2.2466,2.2466,2.254,2.2628,2.269,2.2771,2.2859,2.2961,2.2927,2.2852,2.2757,2.2527,2.235,2.2344,2.2344,2.2344,2.2344,2.2344,2.2344,2.2344,2.2344,2.2344,2.2344,2.2344,2.2344,2.2268,2.2344,2.2344,2.2337,2.2261,2.2276,2.2147,2.2147,2.2139,2.2215,2.2201,2.2154,2.2004,2.1998,2.2328,2.3035,2.3083,2.3178,2.3219,2.3198,2.2995,2.2968,2.3035,2.2832,2.2787,2.2669,2.2567,2.25,2.2452,2.2308,2.2344,2.2344,2.2344,2.2344,2.2344,2.2344,2.2344,2.2344,2.2344,2.2344,2.2323,2.2228,2.1968,2.1605,2.1398,2.122,2.1075,2.1396,2.1592,2.1598,2.1848,2.1896,2.1808,2.1794,2.172,2.1604,2.1713,2.1774,2.1747,2.1828,2.1848,2.1801,2.1753,2.1679,2.157,2.1564,2.1564,2.157,2.1665,2.1726,2.1733,2.1821,2.1903,2.1943,2.1943,2.2032,2.2208,2.2228,2.2296,2.2425,2.2459,2.2459,2.2452,2.2357,2.2344,2.2323,2.2344,2.2344,2.2281,2.2439,2.2506,2.2617,2.2662,2.2737,2.2839,2.292,2.3029,2.3029,2.292,2.2784,2.2751,2.2534,2.2344,2.2344,2.2344,2.2344,2.2344,2.2344,2.2344,2.2344,2.2344,2.2344,2.2344,2.2344,2.2323,2.2241,2.2303,2.2296,2.2262,2.2207,2.2215,2.2059,2.2038,2.2086,2.2113,2.2133,2.2147,2.2093,2.212,2.2032,2.309,2.3133,2.3219,2.3147,2.3212,2.3191,2.312,2.3106,2.3093,2.3025,2.2826,2.2734,2.2815,2.259,2.2131,2.2281,2.235,2.2364,2.2364,2.2357,2.2281,2.2344,2.2344,2.2344,2.2344,2.2344,2.2323,2.155,2.0224,2.0039,1.9965,2.0009,2.0529,2.1277,2.1895,2.2079,2.2099,2.2059,2.2059,2.2004,2.1889,2.1998,2.2004,2.1889,2.1889,2.1964,2.2052,2.195,2.1876,2.1869,2.1862,2.1862,2.1862,2.1876,2.1896,2.1896,2.1903,2.1964,2.2099,2.2127,2.2235,2.2472,2.259,2.2588,2.2696,2.2717,2.2717,2.2744,2.2703,2.2615,2.2411,2.2391,2.2378,2.2378,2.2371,2.2452,2.2561,2.2698,2.271,2.2927,2.3015,2.3076,2.3178,2.2961,2.2818,2.2737,2.2527,2.2344,2.2344,2.2344,2.2344,2.2344,2.2344,2.2337,2.2337,2.2344,2.2344,2.2344,2.233,2.2296,2.2242,2.2201,2.2201,2.2181,2.2167,2.2099,2.1957,2.193,2.1984,2.2059,2.2221,2.2242,2.2113,2.2255,2.2154,2.1958,2.25,2.2507,2.2794,2.314,2.3124,2.2797,2.2355,2.1688,2.1133,2.0593,2.0162,1.9919,1.9866,1.9707,2.0788,2.2482,2.2622,2.2567,2.2486,2.2472,2.2432,2.2274,2.2344,2.2344,2.2344,2.2274,2.101,1.8915,1.8667,1.8541,1.8685,1.9745,2.0919,2.1928,2.2208,2.2215,2.212,2.2113,2.2038,2.1855,2.2032,2.2079,2.2038,2.2127,2.2132,2.2187,2.2201,2.2174,2.2174,2.2174,2.2174,2.2181,2.2262,2.2379,2.2323,2.2405,2.2479,2.2527,2.254,2.2581,2.2676,2.2696,2.2723,2.2771,2.2778,2.2778,2.2784,2.2784,2.271,2.2662,2.2622,2.2622,2.2635,2.271,2.2764,2.2846,2.292,2.3029,2.3124,2.3144,2.3171,2.3164,2.3049,2.2893,2.2784,2.2601,2.2445,2.2364,2.2344,2.2344,2.2344,2.2268,2.2234,2.2194,2.2289,2.2337,2.2344,2.2323,2.2242,2.2181,2.2221,2.2228,2.2099,2.2065,2.1998,2.1876,2.1876,2.1923,2.1977,2.214,2.2242,2.2079,2.2181,2.2059,2.1211,2.1715,2.2003,2.2363,2.2853,2.2974,2.2498,2.1479,2.0388,1.9279,1.8282,1.7279,1.6851,1.6846,1.6851,1.7844,1.9901,2.0833,2.1214,2.1087,2.1081,2.1011,2.0897,2.0878,2.0878,2.074,2.0393,1.8857,1.6759,1.6422,1.6382,1.6317,1.7917,1.94,2.0551,2.0903,2.091,2.0865,2.0865,2.0752,2.0745,2.0815,2.0865,2.0878,2.0891,2.1453,2.2212,2.2344,2.2344,2.2344,2.2344,2.2295,2.2411,2.25,2.2651,2.2698,2.2723,2.2778,2.2778,2.2778,2.2798,2.2852,2.2859,2.2866,2.2913,2.2927,2.2927,2.2927,2.292,2.292,2.292,2.2927,2.2886,2.2825,2.2873,2.2961,2.3008,2.3083,2.3158,2.3198,2.3212,2.3219,2.3198,2.3042,2.2907,2.2791,2.2615,2.2445,2.2364,2.2344,2.2344,2.2344,2.2344,2.2234,2.2249,2.2303,2.2208,2.2188,2.2194,2.214,2.2093,2.2154,2.2154,2.2032,2.1943,2.1882,2.1848,2.1842,2.1869,2.1896,2.2093,2.2269,2.2154,2.2072,2.1957,2.0701,2.0707,2.1709,2.1709,2.1853,2.2415,2.2134,2.0383,1.8998,1.7392,1.5868,1.4514,1.3847,1.3863,1.3847,1.4004,1.462,1.6642,1.7864,1.7968,1.8028,1.7963,1.7854,1.786,1.7854,1.7785,1.6447,1.491,1.3454,1.3388,1.338,1.3651,1.4919,1.6437,1.7925,1.7925,1.8049,1.8098,1.8114,1.8131,1.8163,1.8125,1.8114,1.8131,1.8141,1.9244,2.1678,2.2018,2.2038,2.2163,2.2232,2.2349,2.2534,2.2658,2.2705,2.2764,2.2798,2.2798,2.2805,2.2818,2.2893,2.2981,2.3015,2.3056,2.3144,2.3171,2.3178,2.3171,2.3178,2.3191,2.3185,2.3178,2.309,2.2852,2.2859,2.2913,2.2995,2.3022,2.3069,2.3191,2.3219,2.3219,2.3158,2.3002,2.2832,2.273,2.2554,2.2378,2.235,2.2344,2.2344,2.2344,2.2268,2.2241,2.2316,2.2316,2.2133,2.1991,2.1998,2.1971,2.1889,2.1903,2.1937,2.1848,2.1808,2.1747,2.1679,2.1692,2.1848,2.193,2.214,2.2249,2.212,2.2004,2.1943,1.643,1.7014,1.7737,1.8387,1.8964,1.9686,1.8887,1.6854,1.5842,1.425,1.2366,1.1205,1.0696,1.0696,1.0696,1.0696,1.0835,1.173,1.3108,1.4671,1.5014,1.496,1.4884,1.4871,1.4875,1.4593,1.3397,1.1909,1.0704,1.0427,1.043,1.0707,1.1909,1.3409,1.4849,1.492,1.4942,1.4955,1.4964,1.4964,1.4964,1.4964,1.4964,1.4964,1.4964,1.5424,1.629,1.8758,2.0462,2.1011,2.1584,2.2101,2.2646,2.2812,2.2886,2.294,2.3035,2.3083,2.3083,2.3076,2.3097,2.3144,2.3158,2.3171,2.3212,2.3232,2.3232,2.3225,2.3219,2.3219,2.3219,2.3219,2.3171,2.309,2.3083,2.3083,2.3124,2.3151,2.3178,2.3205,2.3219,2.3178,2.3097,2.2947,2.2832,2.2732,2.2534,2.2445,2.2364,2.2344,2.2344,2.2344,2.2261,2.2241,2.2289,2.2249,2.212,2.1971,2.1923,2.1828,2.174,2.1699,2.172,2.1733,2.1692,2.1652,2.157,2.1652,2.1842,2.1971,2.2147,2.212,2.1998,2.1943,2.1916,1.2507,1.3018,1.3811,1.4391,1.4893,1.5688,1.4821,1.2938,1.1854,1.0261,0.8447,0.7137,0.6703,0.6703,0.6701,0.6703,0.6703,0.6701,0.7699,0.9684,1.1528,1.1913,1.1849,1.1842,1.1842,1.1629,1.0635,0.9424,0.8281,0.8215,0.8215,0.8424,0.9424,1.0648,1.181,1.1888,1.1895,1.192,1.1927,1.1923,1.1923,1.1923,1.1927,1.1927,1.1923,1.1923,1.2138,1.4866,1.7401,1.9465,2.1079,2.2311,2.2866,2.2954,2.3029,2.3097,2.3164,2.3212,2.3225,2.3266,2.3307,2.3314,2.3354,2.3395,2.3395,2.3395,2.3381,2.3248,2.3307,2.328,2.3232,2.3219,2.3219,2.3219,2.3205,2.3219,2.3219,2.3219,2.3219,2.3212,2.3171,2.3103,2.3035,2.2873,2.2784,2.2588,2.2506,2.2459,2.2364,2.2344,2.2344,2.2344,2.2268,2.2296,2.2228,2.2167,2.2106,2.1998,2.1896,2.1747,2.1611,2.1611,2.1618,2.1679,2.1672,2.1726,2.1679,2.1835,2.2004,2.2099,2.2154,2.214,2.2086,2.2025,2.1977,0.9018,0.9163,0.9956,1.0318,1.0463,1.1182,1.0605,0.9015,0.7708,0.6333,0.4664,0.3572,0.2771,0.2552,0.3062,0.3063,0.2479,0.2843,0.3135,0.4291,0.6663,0.8571,0.8676,0.8674,0.8748,0.8743,0.8096,0.7378,0.674,0.6742,0.6659,0.6808,0.7385,0.8113,0.88,0.8952,0.8973,0.9007,0.9018,0.9018,0.9018,0.902,0.902,0.902,0.9015,0.9018,0.9244,1.0993,1.3819,1.7725,2.0639,2.212,2.2639,2.2808,2.2804,2.2976,2.3147,2.3239,2.3259,2.3282,2.337,2.347,2.3565,2.3687,2.3639,2.3619,2.3565,2.337,2.3356,2.3302,2.3259,2.3246,2.3246,2.3239,2.3232,2.3219,2.3219,2.3219,2.3212,2.3178,2.309,2.2988,2.2954,2.273,2.2678,2.252,2.2425,2.2371,2.235,2.2344,2.2344,2.2344,2.2344,2.2323,2.2269,2.2255,2.2188,2.2059,2.1957,2.1821,2.1652,2.1631,2.1631,2.1686,2.172,2.1774,2.1842,2.1964,2.2052,2.2106,2.2154,2.2208,2.2181,2.2093,2.2018,0.59,0.5973,0.6699,0.7062,0.7133,0.7858,0.7351,0.5973,0.5463,0.4299,0.3063,0.2479,0.2188,0.2261,0.2261,0.2261,0.2188,0.2188,0.2261,0.2479,0.3349,0.4433,0.4861,0.5004,0.5439,0.5874,0.5869,0.5443,0.5297,0.5364,0.5365,0.5297,0.5581,0.5733,0.5891,0.6035,0.5895,0.5904,0.5978,0.6051,0.6051,0.6051,0.5905,0.5905,0.598,0.6067,0.624,0.8548,1.2101,1.6445,1.8583,2.003,2.0581,2.1155,2.1755,2.2369,2.2958,2.3286,2.3302,2.3363,2.3503,2.3605,2.368,2.3687,2.3687,2.3687,2.3605,2.349,2.3377,2.3323,2.328,2.3327,2.3381,2.3302,2.33,2.3232,2.3219,2.3219,2.3185,2.3083,2.3035,2.2927,2.2751,2.2698,2.2513,2.2432,2.2378,2.2344,2.2344,2.2344,2.2344,2.2344,2.2344,2.2344,2.2337,2.2337,2.2276,2.214,2.2052,2.1998,2.1862,2.1794,2.1808,2.1835,2.1842,2.1882,2.1923,2.1998,2.2052,2.2147,2.2208,2.2276,2.2188,2.2099,2.2045,0.2771,0.2771,0.3208,0.3353,0.3426,0.3862,0.3498,0.2844,0.2698,0.2261,0.1459,0.1313,0.1313,0.1313,0.1313,0.1313,0.1313,0.1313,0.1313,0.1313,0.1386,0.226,0.3209,0.3501,0.3939,0.4596,0.4669,0.4741,0.4741,0.4669,0.4669,0.4739,0.4669,0.4669,0.4812,0.4669,0.4669,0.4742,0.4669,0.4669,0.4669,0.4669,0.4742,0.4745,0.468,0.4849,0.5469,0.7339,1.0346,1.3729,1.5826,1.7211,1.8381,1.9472,2.0568,2.1669,2.2757,2.3463,2.3531,2.3598,2.3673,2.3761,2.3816,2.3863,2.3877,2.3863,2.3802,2.3673,2.3585,2.3503,2.3456,2.3497,2.3503,2.3377,2.3296,2.3293,2.3232,2.3219,2.3185,2.311,2.3035,2.2927,2.2676,2.2664,2.2486,2.2384,2.2357,2.2344,2.2344,2.2344,2.2344,2.2344,2.2344,2.2344,2.2344,2.2344,2.2344,2.2215,2.2174,2.212,2.2011,2.193,2.1943,2.195,2.1971,2.1998,2.2059,2.2113,2.2181,2.2262,2.2247,2.2234,2.2228,2.2174,2.2113,0.0,0.0,0.0,0.0,0.0,0.0,0.0,0.0,0.0,0.0,0.0,0.0,0.0,0.0,0.0,0.0,0.0,0.0,0.0,0.0,0.0,0.1167,0.2844,0.2991,0.3574,0.4303,0.4523,0.4596,0.4669,0.4669,0.4669,0.4669,0.4669,0.4669,0.4669,0.4669,0.4671,0.4676,0.4679,0.4684,0.4687,0.4688,0.469,0.4692,0.4717,0.5033,0.5575,0.6628,0.8186,1.0851,1.2608,1.4205,1.5909,1.7464,1.9009,2.0477,2.1717,2.2768,2.3047,2.2838,2.3144,2.3036,2.3214,2.3666,2.3409,2.3396,2.356,2.3554,2.3701,2.37,2.3673,2.368,2.3592,2.3497,2.3383,2.3282,2.3259,2.3219,2.3219,2.3198,2.3076,2.2947,2.2784,2.2642,2.25,2.2371,2.2344,2.2344,2.2344,2.2344,2.2344,2.2344,2.2344,2.2344,2.2344,2.2344,2.2344,2.2303,2.2289,2.2235,2.2106,2.2045,2.2059,2.2079,2.212,2.2174,2.2242,2.2296,2.2316,2.2323,2.2261,2.2268,2.2323,2.2289,2.2235,0.0,0.0,0.0,0.0,0.0,0.0,0.0,0.0,0.0,0.0,0.0,0.0,0.0,0.0,0.0,0.0,0.0,0.0,0.0,0.0,0.0,0.0,0.1604,0.175,0.2479,0.3501,0.3793,0.4085,0.4523,0.4669,0.4669,0.4669,0.4669,0.4669,0.4669,0.4669,0.4681,0.4699,0.4703,0.4713,0.4729,0.4732,0.4733,0.4737,0.4763,0.4857,0.5019,0.5191,0.5655,0.6768,0.8888,1.1144,1.277,1.4324,1.5885,1.7441,1.8984,1.9976,2.005,2.0101,2.0153,2.0238,2.0342,2.0595,2.1269,2.1942,2.2402,2.2887,2.3494,2.3829,2.3802,2.3619,2.3571,2.3551,2.3422,2.328,2.3232,2.3219,2.3178,2.3097,2.3042,2.2913,2.2662,2.2642,2.252,2.2384,2.2357,2.235,2.2364,2.2378,2.2371,2.2384,2.2344,2.2344,2.2344,2.2344,2.2344,2.2344,2.2344,2.2337,2.2208,2.2167,2.2188,2.2228,2.2214,2.2261,2.2344,2.2344,2.233,2.2337,2.233,2.231,2.2296,2.2316,2.2276,0.0,0.0,0.0,0.0,0.0,0.0,0.0,0.0,0.0,0.0,0.0,0.0,0.0,0.0,0.0,0.0,0.0,0.0,0.0,0.0,0.0,0.0,0.0511,0.0802,0.1605,0.3209,0.3501,0.3939,0.4523,0.4669,0.4669,0.4669,0.4671,0.4669,0.4669,0.4671,0.4686,0.4707,0.4716,0.4728,0.4752,0.4756,0.4766,0.4775,0.4795,0.4807,0.4823,0.4837,0.4845,0.5216,0.6394,0.8018,0.9591,1.1178,1.2767,1.4343,1.5913,1.6824,1.6951,1.6922,1.6992,1.7045,1.7055,1.7805,1.878,1.9829,2.1083,2.2134,2.3116,2.387,2.3802,2.3768,2.3673,2.3537,2.3436,2.3307,2.3239,2.3219,2.3198,2.3124,2.3117,2.3002,2.2859,2.2744,2.2676,2.2601,2.2581,2.2574,2.2547,2.2554,2.2479,2.2452,2.2378,2.2274,2.2344,2.2344,2.2344,2.2344,2.2344,2.2344,2.2289,2.2296,2.2323,2.2268,2.2261,2.2268,2.2344,2.2344,2.2268,2.2254,2.2234,2.2262,2.2208,2.2147,2.2099,0.0,0.0,0.0,0.0,0.0,0.0,0.0,0.0,0.0,0.0,0.0,0.0,0.0,0.0,0.0,0.0,0.0,0.0,0.0,0.0,0.0,0.0,0.0,0.0,0.1022,0.2993,0.2992,0.3428,0.4013,0.4308,0.417,0.4386,0.4465,0.4546,0.4614,0.4686,0.4705,0.4733,0.4737,0.4751,0.4773,0.4777,0.4789,0.4804,0.482,0.4833,0.4852,0.4787,0.4789,0.4784,0.486,0.5543,0.6837,0.8442,0.9915,1.1504,1.3002,1.3676,1.3741,1.3778,1.3806,1.381,1.3735,1.4566,1.5999,1.75,1.9075,2.0928,2.2296,2.3689,2.3775,2.3795,2.3748,2.3605,2.3444,2.3343,2.3228,2.3253,2.3253,2.3212,2.3178,2.309,2.3015,2.2927,2.2879,2.2832,2.2805,2.2778,2.2751,2.2696,2.2615,2.2561,2.2506,2.2445,2.2439,2.235,2.235,2.235,2.235,2.2344,2.2344,2.2344,2.2344,2.2344,2.2337,2.2344,2.2344,2.2344,2.2261,2.2241,2.2173,2.2174,2.2072,2.1971,2.1937,0.0,0.0,0.0,0.0,0.0,0.0,0.0,0.0,0.0,0.0,0.0,0.0,0.0,0.0,0.0,0.0,0.0,0.0,0.0,0.0,0.0,0.0,0.0,0.0,0.0,0.1247,0.1684,0.2119,0.2706,0.2712,0.3308,0.3607,0.3768,0.4071,0.4661,0.4817,0.4748,0.477,0.4777,0.4793,0.4815,0.4823,0.4825,0.4761,0.4855,0.4872,0.4886,0.4908,0.4846,0.4846,0.4846,0.5074,0.568,0.6967,0.8105,0.9022,0.9932,1.0466,1.0533,1.0472,1.0518,1.0512,1.0509,1.1263,1.2771,1.4499,1.6454,1.9155,2.1475,2.3309,2.3972,2.3944,2.3883,2.3788,2.368,2.3565,2.337,2.3316,2.3334,2.3246,2.3212,2.3185,2.311,2.3049,2.2995,2.294,2.2907,2.2886,2.2866,2.2798,2.2717,2.2683,2.2662,2.2601,2.2554,2.2432,2.2364,2.2371,2.2364,2.2344,2.2344,2.2344,2.2344,2.2344,2.2344,2.2344,2.2344,2.2337,2.2276,2.2215,2.214,2.2059,2.1943,2.1842,2.1835,0.0,0.0,0.0,0.0,0.0,0.0,0.0,0.0,0.0,0.0,0.0,0.0,0.0,0.0,0.0,0.0,0.0,0.0,0.0,0.0,0.0,0.0,0.0,0.0,0.0,0.0515,0.0662,0.1178,0.2211,0.2364,0.2664,0.3332,0.349,0.394,0.4608,0.4755,0.4774,0.4721,0.4729,0.4741,0.4768,0.4772,0.4772,0.478,0.4876,0.4891,0.4898,0.4921,0.4936,0.4936,0.4936,0.4938,0.5169,0.5558,0.6326,0.6784,0.715,0.7291,0.7279,0.7158,0.7192,0.719,0.7266,0.7946,0.9455,1.1336,1.4044,1.7955,2.0583,2.2732,2.3843,2.379,2.387,2.3788,2.3727,2.3553,2.3438,2.3397,2.3388,2.3286,2.3239,2.3212,2.3178,2.3124,2.3083,2.3049,2.3008,2.2988,2.2981,2.292,2.2852,2.2825,2.2798,2.2717,2.2649,2.2527,2.2418,2.2411,2.2371,2.235,2.2344,2.2344,2.2344,2.2344,2.2344,2.2344,2.2241,2.222,2.2201,2.2113,2.1991,2.1882,2.1794,2.1726,2.1733,0.0,0.0,0.0,0.0,0.0,0.0,0.0,0.0,0.0,0.0,0.0,0.0,0.0,0.0,0.0,0.0,0.0,0.0,0.0,0.0,0.0,0.0,0.0,0.0,0.0,0.0,0.0,0.0,0.1411,0.1637,0.2234,0.2609,0.2982,0.3433,0.4033,0.4038,0.4344,0.4353,0.4285,0.4372,0.4538,0.4702,0.478,0.4785,0.4891,0.4915,0.4921,0.4947,0.4962,0.4962,0.4961,0.4881,0.4961,0.498,0.4992,0.4987,0.4958,0.4942,0.5,0.5033,0.5301,0.5376,0.4998,0.5755,0.7264,0.9676,1.2459,1.727,1.9679,2.1089,2.2209,2.2981,2.3157,2.332,2.3353,2.3507,2.3559,2.3571,2.3524,2.3422,2.3314,2.3246,2.3212,2.3185,2.3151,2.3144,2.311,2.3117,2.3103,2.3076,2.3022,2.2981,2.2927,2.2839,2.2744,2.2698,2.254,2.2569,2.2411,2.2344,2.2344,2.2344,2.2344,2.2274,2.2344,2.2337,2.222,2.218,2.2208,2.2093,2.1869,2.1767,2.1781,2.172,2.1679,0.0,0.0,0.0,0.0,0.0,0.0,0.0,0.0,0.0,0.0,0.0,0.0,0.0,0.0,0.0,0.0,0.0,0.0,0.0,0.0,0.0,0.0,0.0,0.0,0.0,0.0,0.0,0.0,0.0,0.0,0.0825,0.1501,0.1807,0.1964,0.294,0.309,0.2647,0.2723,0.2799,0.3178,0.3789,0.4491,0.4807,0.4898,0.4934,0.4965,0.4965,0.4988,0.5007,0.5011,0.5014,0.5015,0.5018,0.502,0.5024,0.5007,0.4976,0.4938,0.4928,0.4806,0.4771,0.4771,0.4771,0.5302,0.6511,0.87,1.1565,1.4503,1.6538,1.8105,1.9577,2.0485,2.1077,2.1948,2.2494,2.3184,2.3608,2.3714,2.366,2.3571,2.347,2.3347,2.3266,2.3239,2.3212,2.3219,2.3219,2.3225,2.3219,2.3185,2.3151,2.3103,2.3049,2.2968,2.2873,2.2751,2.2719,2.2658,2.2452,2.235,2.235,2.2281,2.2281,2.2281,2.2281,2.2344,2.2316,2.2276,2.2235,2.2093,2.1889,2.1848,2.1869,2.1774,2.1658,0.0,0.0,0.0,0.0,0.0,0.0,0.0,0.0,0.0,0.0,0.0,0.0,0.0,0.0,0.0,0.0,0.0,0.0,0.0,0.0,0.0,0.0,0.0,0.0,0.0,0.0,0.0,0.0,0.0,0.0,0.0377,0.1056,0.121,0.1666,0.2197,0.2348,0.2424,0.2575,0.2878,0.3257,0.3716,0.4417,0.4893,0.4895,0.4953,0.4979,0.4991,0.5011,0.5028,0.5028,0.5028,0.5028,0.5028,0.5026,0.5022,0.4999,0.4962,0.4939,0.493,0.4803,0.4779,0.4771,0.4771,0.4999,0.583,0.7493,0.9679,1.1634,1.3216,1.4796,1.6449,1.7725,1.8957,2.0072,2.1089,2.2413,2.3231,2.3749,2.3816,2.3721,2.3626,2.3438,2.3316,2.3314,2.3307,2.3327,2.3314,2.33,2.3286,2.3253,2.3225,2.3198,2.3151,2.309,2.3002,2.29,2.2757,2.2656,2.2445,2.2302,2.2302,2.2302,2.2398,2.2411,2.2432,2.2405,2.2357,2.2269,2.2194,2.2065,2.1916,2.1916,2.1909,2.1801,2.172,0.0,0.0,0.0,0.0,0.0,0.0,0.0,0.0,0.0,0.0,0.0,0.0,0.0,0.0,0.0,0.0,0.0,0.0,0.0,0.0,0.0,0.0,0.0,0.0,0.0,0.0,0.0,0.0,0.0,0.0,0.0302,0.0909,0.0757,0.1136,0.1591,0.1667,0.1591,0.1667,0.2651,0.3105,0.3412,0.4343,0.4741,0.4917,0.4951,0.4987,0.4996,0.5003,0.5014,0.5014,0.5003,0.4998,0.4998,0.4995,0.499,0.4969,0.4939,0.4923,0.4909,0.4803,0.4777,0.4771,0.4771,0.4846,0.5075,0.6207,0.749,0.922,1.0431,1.186,1.3212,1.4717,1.6197,1.7685,1.9267,2.0884,2.2231,2.2356,2.2758,2.2935,2.2992,2.3487,2.3359,2.337,2.3402,2.3429,2.3409,2.3381,2.3334,2.33,2.3253,2.3219,2.3198,2.3158,2.3103,2.3008,2.2879,2.2717,2.2506,2.2418,2.2439,2.2472,2.2506,2.252,2.252,2.2486,2.2445,2.2303,2.2167,2.2127,2.2072,2.1998,2.1937,2.1842,2.1855,0.0,0.0,0.0,0.0,0.0,0.0,0.0,0.0,0.0,0.0,0.0,0.0,0.0,0.0,0.0,0.0,0.0,0.0,0.0,0.0,0.0,0.0,0.0,0.0,0.0,0.0,0.0,0.0,0.0,0.0,0.0,0.0,0.0,0.0,0.0,0.0,0.0,0.0,0.1894,0.2576,0.3111,0.3962,0.4902,0.4931,0.4962,0.4995,0.502,0.5002,0.4987,0.4987,0.4969,0.4958,0.4961,0.496,0.4954,0.4945,0.4927,0.4913,0.49,0.4875,0.4776,0.4771,0.4771,0.4771,0.4846,0.5605,0.6587,0.7339,0.8246,0.9002,1.021,1.149,1.3054,1.4608,1.6174,1.7815,1.9127,2.0284,2.0761,2.1656,2.2339,2.297,2.3588,2.3607,2.3578,2.3598,2.3544,2.351,2.3354,2.33,2.3253,2.3219,2.3219,2.3198,2.3178,2.3063,2.2907,2.2757,2.2581,2.2534,2.254,2.2644,2.2692,2.2705,2.2642,2.2658,2.2583,2.2364,2.2269,2.2276,2.2221,2.2093,2.2099,2.2099,2.2133,0.0,0.0,0.0,0.0,0.0,0.0,0.0,0.0,0.0,0.0,0.0,0.0,0.0,0.0,0.0,0.0,0.0,0.0,0.0,0.0,0.0,0.0,0.0,0.0,0.0,0.0,0.0,0.0,0.0,0.0,0.0,0.0,0.0,0.0,0.0,0.0,0.0,0.0,0.1439,0.2348,0.2731,0.3961,0.4898,0.491,0.4962,0.4973,0.4975,0.4981,0.497,0.4957,0.4942,0.4935,0.4931,0.4932,0.4934,0.4935,0.492,0.4917,0.4908,0.4878,0.4772,0.4771,0.4771,0.4771,0.4771,0.5151,0.5376,0.583,0.6133,0.6814,0.6888,0.8244,0.9743,1.1297,1.3017,1.4833,1.6422,1.794,1.938,2.0485,2.1662,2.2574,2.3284,2.3924,2.3836,2.3768,2.37,2.3605,2.3436,2.3293,2.3246,2.3219,2.3219,2.3219,2.3198,2.3069,2.2927,2.2798,2.2662,2.2656,2.2656,2.269,2.273,2.2744,2.2737,2.2669,2.2567,2.2432,2.2288,2.2254,2.2242,2.2127,2.2188,2.222,2.2254,0.0,0.0,0.0,0.0,0.0,0.0,0.0,0.0,0.0,0.0,0.0,0.0,0.0,0.0,0.0,0.0,0.0,0.0,0.0,0.0,0.0,0.0,0.0,0.0,0.0,0.0,0.0,0.0,0.0,0.0,0.0,0.0,0.0,0.0,0.0,0.0,0.0,0.0,0.1212,0.2045,0.2275,0.3573,0.4504,0.4587,0.478,0.4949,0.4945,0.4947,0.494,0.4927,0.4915,0.4832,0.4832,0.4912,0.4916,0.4921,0.4925,0.4928,0.4921,0.4895,0.4781,0.4773,0.4771,0.4771,0.4771,0.4771,0.4998,0.4922,0.4922,0.4771,0.4922,0.6659,0.839,1.0256,1.1847,1.3588,1.5075,1.6585,1.8025,1.938,2.071,2.2346,2.3309,2.4019,2.3931,2.3809,2.3632,2.3551,2.3436,2.3314,2.3232,2.3219,2.3219,2.3219,2.3212,2.3083,2.2968,2.2913,2.2805,2.2784,2.2784,2.2818,2.2879,2.2947,2.29,2.2764,2.2642,2.2534,2.2439,2.2274,2.2269,2.2194,2.2228,2.2247,2.2261,0.0,0.0,0.0,0.0,0.0,0.0,0.0,0.0,0.0,0.0,0.0,0.0,0.0,0.0,0.0,0.0,0.0,0.0,0.0,0.0,0.0,0.0,0.0,0.0,0.0,0.0,0.0,0.0,0.0,0.0,0.0,0.0,0.0,0.0,0.0,0.0,0.0,0.0,0.0,0.1288,0.1743,0.2957,0.3725,0.4043,0.4595,0.4916,0.4916,0.4915,0.4906,0.4894,0.4798,0.4789,0.4788,0.4787,0.4799,0.4901,0.4901,0.4913,0.4931,0.4905,0.488,0.4853,0.4771,0.4771,0.4771,0.4771,0.4771,0.4771,0.4771,0.4771,0.5376,0.6284,0.7939,0.9522,1.1112,1.2771,1.4337,1.591,1.75,1.9085,2.0745,2.2247,2.3293,2.4087,2.3999,2.3849,2.3539,2.3404,2.3323,2.332,2.3232,2.3219,2.3219,2.3219,2.3198,2.3103,2.3015,2.2974,2.294,2.2913,2.2913,2.2947,2.3029,2.3124,2.2995,2.2784,2.2717,2.2656,2.2574,2.2486,2.2371,2.231,2.2254,2.2261,2.2268,0.0,0.0,0.0,0.0,0.0,0.0,0.0,0.0,0.0,0.0,0.0,0.0,0.0,0.0,0.0,0.0,0.0,0.0,0.0,0.0,0.0,0.0,0.0,0.0,0.0,0.0,0.0,0.0,0.0,0.0,0.0,0.0,0.0,0.0,0.0,0.0,0.0,0.0,0.0758,0.1212,0.1363,0.265,0.356,0.357,0.4344,0.481,0.481,0.4807,0.4882,0.4868,0.4773,0.4772,0.4771,0.4771,0.4795,0.4906,0.4921,0.4925,0.4935,0.4921,0.4822,0.4791,0.4771,0.4771,0.4772,0.4771,0.4771,0.4772,0.4772,0.4772,0.5073,0.6434,0.7939,0.952,1.1106,1.2764,1.4337,1.5915,1.75,1.9155,2.0739,2.2316,2.3592,2.4006,2.4005,2.3904,2.3687,2.339,2.3347,2.3293,2.3219,2.3219,2.3219,2.3219,2.3191,2.313,2.3117,2.3097,2.3063,2.3029,2.3042,2.3063,2.3097,2.3164,2.2981,2.2805,2.2798,2.2784,2.2723,2.2635,2.252,2.2418,2.2405,2.2378,2.2268,0.0,0.0,0.0,0.0,0.0,0.0,0.0,0.0,0.0,0.0,0.0,0.0,0.0,0.0,0.0,0.0,0.0,0.0,0.0,0.0,0.0,0.0,0.0,0.0,0.0,0.0,0.0,0.0,0.0,0.0,0.0,0.0,0.0,0.0,0.0,0.0,0.0,0.0,0.0527,0.0676,0.1052,0.188,0.2635,0.302,0.3634,0.4401,0.4475,0.4632,0.4868,0.4776,0.4771,0.4771,0.4771,0.4853,0.4874,0.4906,0.4932,0.493,0.4923,0.4919,0.4889,0.4777,0.4772,0.4777,0.478,0.4779,0.4783,0.4781,0.4777,0.4772,0.5073,0.6434,0.847,1.0126,1.2309,1.404,1.6149,1.7805,1.878,2.0209,2.1182,2.2689,2.3741,2.383,2.3999,2.3883,2.3761,2.3551,2.3341,2.3266,2.3225,2.3219,2.3219,2.3219,2.3219,2.3205,2.3198,2.3219,2.3171,2.3117,2.3137,2.3151,2.3171,2.3171,2.3029,2.2927,2.2934,2.2907,2.2832,2.2757,2.2676,2.2581,2.25,2.2472,2.2452,0.0,0.0,0.0,0.0,0.0,0.0,0.0,0.0,0.0,0.0,0.0,0.0,0.0,0.0,0.0,0.0,0.0,0.0,0.0,0.0,0.0,0.0,0.0,0.0,0.0,0.0,0.0,0.0,0.0,0.0,0.0,0.0,0.0,0.0,0.0,0.0,0.0,0.0,0.0,0.0,0.0,0.1044,0.1571,0.2027,0.2935,0.3698,0.4007,0.4396,0.4699,0.4771,0.4771,0.4846,0.4846,0.4846,0.4941,0.5195,0.5383,0.5608,0.5669,0.5818,0.572,0.5913,0.5528,0.5167,0.4875,0.4872,0.4876,0.4874,0.487,0.478,0.4999,0.7266,0.9528,1.1863,1.4424,1.6609,1.8941,2.022,2.0889,2.1792,2.2397,2.33,2.3897,2.4073,2.4026,2.3958,2.3843,2.368,2.347,2.3273,2.3232,2.3219,2.3219,2.3219,2.3219,2.3219,2.3219,2.3219,2.3219,2.3185,2.3212,2.3212,2.3205,2.3178,2.3097,2.3035,2.2995,2.2961,2.2927,2.2866,2.2852,2.2757,2.2676,2.2676,2.2669,0.0,0.0,0.0,0.0,0.0,0.0,0.0,0.0,0.0,0.0,0.0,0.0,0.0,0.0,0.0,0.0,0.0,0.0,0.0,0.0,0.0,0.0,0.0,0.0,0.0,0.0,0.0,0.0,0.0,0.0,0.0,0.0,0.0,0.0,0.0,0.0,0.0,0.0,0.0,0.0,0.0,0.0,0.0969,0.1497,0.2549,0.3235,0.3553,0.4241,0.4544,0.4695,0.4771,0.4999,0.5756,0.6286,0.6829,0.8246,0.8439,0.8455,0.8337,0.8325,0.8302,0.826,0.8251,0.6685,0.5798,0.5354,0.5354,0.5502,0.5639,0.5698,0.6364,0.8246,1.0808,1.3517,1.6153,1.8791,2.0975,2.2098,2.2696,2.2845,2.3449,2.3524,2.4046,2.4114,2.4066,2.4019,2.3917,2.3761,2.3592,2.3388,2.3246,2.3225,2.3219,2.3219,2.3219,2.3219,2.3219,2.3219,2.3219,2.3219,2.3219,2.3219,2.3219,2.3191,2.3144,2.3076,2.3015,2.3008,2.3035,2.3097,2.309,2.2961,2.2866,2.2859,2.2846,0.0,0.0,0.0,0.0,0.0,0.0,0.0,0.0,0.0,0.0,0.0,0.0,0.0,0.0,0.0,0.0,0.0,0.0,0.0,0.0,0.0,0.0,0.0,0.0,0.0,0.0,0.0,0.0,0.0,0.0,0.0,0.0,0.0,0.0,0.0,0.0,0.0,0.0,0.0,0.0,0.0,0.0,0.0,0.097,0.2169,0.2555,0.2799,0.3559,0.3863,0.3938,0.4014,0.4922,0.6284,0.7868,0.9905,1.1248,1.1646,1.1653,1.1624,1.162,1.1598,1.1585,1.1585,1.0714,0.9212,0.839,0.7723,0.7275,0.7094,0.7144,0.8111,0.9379,1.2312,1.5163,1.8025,2.082,2.2397,2.3748,2.4046,2.3972,2.4046,2.4046,2.4121,2.4121,2.4107,2.406,2.3965,2.3816,2.3653,2.3476,2.332,2.3239,2.3225,2.3219,2.3219,2.3219,2.3219,2.3219,2.3219,2.3219,2.3219,2.3219,2.3219,2.3219,2.3212,2.3151,2.309,2.3137,2.3178,2.3219,2.3219,2.3117,2.3035,2.3035,2.3015,0.0,0.0,0.0,0.0,0.0,0.0,0.0,0.0,0.0,0.0,0.0,0.0,0.0,0.0,0.0,0.0,0.0,0.0,0.0,0.0,0.0,0.0,0.0,0.0,0.0,0.0,0.0,0.0,0.0,0.0,0.0,0.0,0.0,0.0,0.0,0.0,0.0,0.0,0.0,0.0,0.0,0.0,0.0,0.0,0.082,0.1346,0.151,0.1894,0.2424,0.2727,0.3408,0.4619,0.7791,1.0503,1.2918,1.4273,1.4825,1.49,1.4896,1.4892,1.4888,1.4896,1.4863,1.4665,1.3464,1.1365,1.0407,1.0172,1.0135,1.0093,1.0823,1.2244,1.465,1.6858,1.9295,2.1641,2.3297,2.41,2.4121,2.4121,2.4121,2.4121,2.4121,2.4121,2.4121,2.4087,2.4033,2.389,2.3714,2.3551,2.3409,2.3273,2.3232,2.3225,2.3219,2.3219,2.3219,2.3219,2.3219,2.3219,2.3219,2.3219,2.3219,2.3219,2.3219,2.3219,2.3198,2.3219,2.3219,2.3219,2.3219,2.3219,2.3198,2.3164,2.3144,0.0,0.0,0.0,0.0,0.0,0.0,0.0,0.0,0.0,0.0,0.0,0.0,0.0,0.0,0.0,0.0,0.0,0.0,0.0,0.0,0.0,0.0,0.0,0.0,0.0,0.0,0.0,0.0,0.0,0.0,0.0,0.0,0.0,0.0,0.0,0.0,0.0,0.0,0.0,0.0,0.0,0.0,0.0,0.0,0.067,0.1048,0.1358,0.1818,0.2651,0.3332,0.4089,0.6961,1.1336,1.4198,1.6383,1.7815,1.8185,1.818,1.818,1.818,1.818,1.8185,1.8151,1.8202,1.7194,1.4815,1.3608,1.3506,1.3396,1.3343,1.3762,1.5264,1.6778,1.8634,2.0427,2.2247,2.4058,2.4141,2.4141,2.4121,2.4121,2.4121,2.4121,2.4121,2.4121,2.4121,2.4107,2.3999,2.3795,2.3626,2.349,2.3361,2.3253,2.3232,2.3225,2.3246,2.3253,2.3232,2.3219,2.3219,2.3219,2.3219,2.3219,2.3219,2.3219,2.3232,2.3239,2.3225,2.3225,2.3219,2.3219,2.3219,2.3219,2.3198,2.3205,0.0,0.0,0.0,0.0,0.0,0.0,0.0,0.0,0.0,0.0,0.0,0.0,0.0,0.0,0.0,0.0,0.0,0.0,0.0,0.0,0.0,0.0,0.0,0.0,0.0,0.0,0.0,0.0,0.0,0.0,0.0,0.0,0.0,0.0,0.0,0.0,0.0,0.0,0.0,0.0,0.0,0.0,0.0,0.0,0.0,0.0,0.0754,0.1212,0.1667,0.3558,0.5299,0.9975,1.4194,1.7285,1.9316,2.082,2.1418,2.1418,2.1349,2.12,2.1194,2.1125,2.1349,2.1334,2.141,1.9349,1.8031,1.778,1.6764,1.6623,1.6867,1.8076,1.9026,2.0514,2.1717,2.3128,2.3988,2.4208,2.4195,2.4121,2.4121,2.4121,2.4121,2.4121,2.4121,2.4121,2.4121,2.4053,2.3863,2.3714,2.3578,2.3476,2.3388,2.3273,2.3225,2.3194,2.3241,2.3208,2.3219,2.3219,2.3219,2.3225,2.3225,2.3253,2.3266,2.3201,2.3201,2.3246,2.3225,2.3219,2.3219,2.3219,2.3219,2.3219,2.3219,0.0,0.0,0.0,0.0,0.0,0.0,0.0,0.0,0.0,0.0,0.0,0.0,0.0,0.0,0.0,0.0,0.0,0.0,0.0,0.0,0.0,0.0,0.0,0.0,0.0,0.0,0.0,0.0,0.0,0.0,0.0,0.0,0.0,0.0,0.0,0.0,0.0,0.0,0.0,0.0,0.0,0.0,0.0,0.0,0.0,0.0,0.0151,0.0303,0.0682,0.386,0.7488,1.2309,1.6074,1.9016,2.082,2.2247,2.292,2.3069,2.3374,2.3293,2.3449,2.3673,2.4046,2.3978,2.3754,2.3108,2.1809,2.1121,2.0099,1.9885,2.0133,2.0468,2.1361,2.2068,2.3053,2.3693,2.4068,2.4276,2.4243,2.4148,2.4121,2.4121,2.4121,2.4121,2.4121,2.4121,2.4087,2.4012,2.3924,2.3816,2.3693,2.3632,2.3585,2.3456,2.3307,2.3241,2.3309,2.3201,2.3219,2.3219,2.3219,2.3219,2.3253,2.3314,2.3255,2.3221,2.3286,2.3266,2.3246,2.3239,2.3219,2.3219,2.3219,2.3219,2.3219,0.142,0.0885,0.0898,0.0555,0.0,0.0,0.0,0.0,0.0,0.0,0.0,0.0,0.0,0.0,0.0,0.0,0.0,0.0,0.0,0.0,0.0,0.0,0.0,0.0,0.0,0.0,0.0,0.0,0.0,0.0,0.0,0.0,0.0,0.0,0.0,0.0,0.0,0.0,0.0,0.0,0.0,0.0,0.0,0.0,0.0,0.0,0.0755,0.0984,0.2726,0.5901,1.0204,1.4499,1.751,1.9696,2.1125,2.2179,2.2926,2.315,2.33,2.3524,2.3524,2.3374,2.3449,2.3598,2.3524,2.368,2.2958,2.3183,2.2571,2.2628,2.281,2.2874,2.348,2.3745,2.4335,2.4325,2.4465,2.4406,2.4277,2.4189,2.4121,2.4121,2.4121,2.4121,2.4121,2.4121,2.4121,2.4046,2.3965,2.3883,2.3802,2.3782,2.3754,2.3619,2.339,2.3422,2.3429,2.3314,2.3219,2.3219,2.3219,2.3219,2.3259,2.3341,2.3314,2.3259,2.3259,2.3341,2.33,2.3293,2.3239,2.3219,2.3232,2.3273,2.332]},{"header":{"parameterUnit":"m.s-1","parameterCategory":1,"la1":31.0,"la2":29.5877,"lo1":-88.7671,"lo2":-86.6584,"dy":0.0162,"dx":0.0185,"nx":115,"ny":88,"refTime":"2026-04-03T12:00:00:Z","depth":0,"parameterNumber":3,"parameterNumberName":"V-component_of_WINDS"},"data":[0.0,0.0,0.0,0.0,0.0,0.0,0.0,0.0,0.0,0.0,0.0,0.0,0.0,0.0,0.0,0.0,0.0,0.0,0.0,0.0,0.0,0.0,0.0,0.0,0.0,0.0,0.0,0.0,0.0,0.0,0.0,0.0,0.0,0.0,0.0,0.0,0.0,0.0,0.0,0.0,0.0,0.0,0.0,0.0,0.0,0.0,0.0,0.0,0.0,0.0,0.0,0.0,0.0,0.0,0.0,0.0,0.0,0.0,0.0,0.0,0.0,0.0,0.0,0.0,0.0,0.0,0.0,0.0,0.0,0.0,0.0,0.0,0.0,0.0,0.0,0.0,0.0,0.0,0.0,0.0,0.0,0.0,0.0,0.0,0.0,0.0,0.0,0.0,0.0,0.0,0.0,0.0,0.0,0.0,0.0,0.0,0.0,0.0,0.0,0.0,0.0,0.0,0.0,0.0,0.0,0.0,0.0,0.0,0.0,0.0,0.0,0.0,0.0,0.0,0.0,0.0,0.0,0.0,0.0,0.0,0.0,0.0,0.0,0.0,0.0,0.0,0.0,0.0,0.0,0.0,0.0,0.0,0.0,0.0,0.0,0.0,0.0,0.0,0.0,0.0,0.0,0.0,0.0,0.0,0.0,0.0,0.0,0.0,0.0,0.0,0.0,0.0,0.0,0.0,0.0,0.0,0.0,0.0,0.0,0.0,0.0,0.0,0.0,0.0,0.0,0.0,0.0,0.0,0.0,0.0,0.0,0.0,0.0,0.0,0.0,0.0,0.0,0.0,0.0,0.0,0.0,0.0,0.0,0.0,0.0,0.0,0.0,0.0,0.0,0.0,0.0,0.0,0.0,0.0,0.0,0.0,0.0,0.0,0.0,0.0,0.0,0.0,0.0,0.0,0.0,0.0,0.0,0.0,0.0,0.0,0.0,0.0,0.0,0.0,0.0,0.0,0.0,0.0,0.0,0.0,0.0,0.0,0.0,0.0,0.0,0.0,0.0,0.0,0.0,0.0,0.0,0.0,0.0,0.0,0.0,0.0,0.0,0.0,0.0,0.0,0.0,0.0,0.0,0.0,0.0,0.0,0.0,0.0,0.0,0.0,0.0,0.0,0.0,0.0,0.0,0.0,0.0,0.0,0.0,0.0,0.0,0.0,0.0,0.0,0.0,0.0,0.0,0.0,0.0,0.0,0.0,0.0,0.0,0.0,0.0,0.0,0.0,0.0,0.0,0.0,0.0,0.0,0.0,0.0,0.0,0.0,0.0,0.0,0.0,0.0,0.0,0.0,0.0,0.0,0.0,0.0,0.0,0.0,0.0,0.0,0.0,0.0,0.0,0.0,0.0,0.0,0.0,0.0,0.0,0.0,0.0,0.0,0.0,0.0,0.0,0.0,0.0,0.0,0.0,0.0,0.0,0.0,0.0,0.0,0.0,0.0,0.0,0.0,0.0,0.0,0.0,0.0,0.0,0.0,0.0,0.0,0.0,0.0,0.0,0.0,0.0,0.0,0.0,0.0,0.0,0.0,0.0,0.0,0.0,0.0,0.0,0.0,0.0,0.0,0.0,0.0,0.0,0.0,0.0,0.0,0.0,0.0,0.0,0.0,0.0,0.0,0.0,0.0,0.0,0.0,0.0,0.0,0.0,0.0,0.0,0.0,0.0,0.0,0.0,0.0,0.0,0.0,0.0,0.0,0.0,0.0,0.0,0.0,0.0,0.0,0.0,0.0,0.0,0.0,0.0,0.0,0.0,0.0,0.0,0.0,0.0,0.0,0.0,0.0,0.0,0.0,0.0,0.0,0.0,0.0,0.0,0.0,0.0,0.0,0.0,0.0,0.0,0.0,0.0,0.0,0.0,0.0,0.0,0.0,0.0,0.0,0.0,0.0,0.0,0.0,0.0,0.0,0.0,0.0,0.0,0.0,0.0,0.0,0.0,0.0,0.0,0.0,0.0,0.0,0.0,0.0,0.0,0.0,0.0,0.0,0.0,0.0,0.0,0.0,0.0,0.0,0.0,0.0,0.0,0.0,0.0,0.0,0.0,0.0,0.0,0.0,0.0,0.0,0.0,0.0,0.0,0.0,0.0,0.0,0.0,0.0,0.0,0.0,0.0,0.0,0.0,0.0,0.0,0.0,0.0,0.0,0.0,0.0,0.0,0.0,0.0,0.0,0.0,0.0,0.0,0.0,0.0,0.0,0.0,0.0,0.0,0.0,0.0,0.0,0.0,0.0,0.0,0.0,0.0,0.0,0.0,0.0,0.0,0.0,0.0,0.0,0.0,0.0,0.0,0.0,0.0,0.0,0.0,0.0,0.0,0.0,0.0,0.0,0.0,0.0,0.0,0.0,0.0,0.0,0.0,0.0,0.0,0.0,0.0,0.0,0.0,0.0,0.0,0.0,0.0,0.0,0.0,0.0,0.0,0.0,0.0,0.0,0.0,0.0,0.0,0.0,0.0,0.0,0.0,0.0,0.0,0.0,0.0,0.0,0.0,0.0,0.0,0.0,0.0,0.0,0.0,0.0,0.0,0.0,0.0,0.0,0.0,0.0,0.0,0.0,0.0,0.0,0.0,0.0,0.0,0.0,0.0,0.0,0.0,0.0,0.0,0.0,0.0,0.0,0.0,0.0,0.0,0.0,0.0,0.0,0.0,0.0,0.0,0.0,0.0,0.0,0.0,0.0,0.0,0.0,0.0,0.0,0.0,0.0,0.0,0.0,0.0,0.0,0.0,0.0,0.0,0.0,0.0,0.0,0.0,0.0,0.0,0.0,0.0,0.0,0.0,0.0,0.0,0.0,0.0,0.0,0.0,0.0,0.0,0.0,0.0,0.0,0.0,0.0,0.0,0.0,0.0,0.0,0.0,0.0,0.0,0.0,0.0,0.0,0.0,0.0,0.0,0.0,0.0,0.0,0.0,0.0,0.0,0.0,0.0,0.0,0.0,0.0,0.0,0.0,0.0,0.0,0.0,0.0,0.0,0.0,0.0,0.0,0.0,0.0,0.0,0.0,0.0,0.0,0.0,0.0,0.0,0.0,0.0,0.0,0.0,0.0,0.0,0.0,0.0,0.0,0.0,0.0,0.0,0.0,0.0,0.0,0.0,0.0,0.0,0.0,0.0,0.0,0.0,0.0,0.0,0.0,0.0,0.0,0.0,0.0,0.0,0.0,0.0,0.0,0.0,0.0,0.0,0.0,0.0,0.0,0.0,0.0,0.0,0.0,0.0,0.0,0.0,0.0,0.0,0.0,0.0,0.0,0.0,0.0,0.0,0.0,0.0,0.0,0.0,0.0,0.0,0.0,0.0,0.0,0.0,0.0,0.0,0.0,0.0,0.0,0.0,0.0,0.0,0.0,0.0,0.0,0.0,0.0,0.0,0.0,0.0,0.0,0.0,0.0,0.0,0.0,0.0,0.0,0.0,0.0,0.0,0.0,0.0,0.0,0.0,0.0,0.0,0.0,0.0,0.0,0.0,0.0,0.0,0.0,0.0,0.0,0.0,0.0,0.0,0.0,0.0,0.0,0.0,0.0,0.0,0.0,0.0,0.0,0.0,0.0,0.0,0.0,0.0,0.0,0.0,0.0,0.0,0.0,0.0,0.0,0.0,0.0,0.0,0.0,0.0,0.0,0.0,0.0,0.0,0.0,0.0,0.0,0.0,0.0,0.0,0.0,0.0,0.0,0.0,0.0,0.0,0.0,0.0,0.0,0.0,0.0,0.0,0.0,0.0,0.0,0.0,0.0,0.0,0.0,0.0,0.0,0.0,0.0,0.0,0.0,0.0,0.0,0.0,0.0,0.0,0.0,0.0,0.0,0.0,0.0,0.0,0.0,0.0,0.0,0.0,0.0,0.0,0.0,0.0,0.0,0.0,0.0,0.0,0.0,0.0,0.0,0.0,0.0,0.0,0.0,0.0,0.0,0.0,0.0,0.0,0.0,0.0,0.0,0.0,0.0,0.0,0.0,0.0,0.0,0.0,0.0,0.0,0.0,0.0,0.0,0.0,0.0,0.0,0.0,0.0,0.0,0.0,0.0,0.0,0.0,0.0,0.0,0.0,0.0,0.0,0.0,0.0,0.0,0.0,0.0,0.0,0.0,0.0,0.0,0.0,0.0,0.0,0.0,0.0,0.0,0.0,0.0,0.0,0.0,0.0,0.0,0.0,0.0,0.0,0.0,0.0,0.0,0.0,0.0,0.0,0.0,0.0,0.0,0.0,0.0,0.0,0.0,0.0,0.0,0.0,0.0,0.0,0.0,0.0,0.0,4.5295,0.0,0.0,0.0,0.0,0.0,0.0,0.0,0.0,0.0,0.0,0.0,0.0,0.0,0.0,0.0,0.0,0.0,0.0,0.0,0.0,0.0,0.0,0.0,0.0,0.0,0.0,0.0,0.0,0.0,0.0,0.0,0.0,0.0,0.0,0.0,0.0,0.0,0.0,0.0,0.0,0.0,0.0,0.0,0.0,0.0,0.0,0.0,0.0,0.0,0.0,0.0,0.0,0.0,0.0,0.0,0.0,0.0,0.0,0.0,0.0,0.0,0.0,0.0,0.0,0.0,0.0,0.0,0.0,0.0,0.0,0.0,0.0,0.0,0.0,0.0,0.0,0.0,0.0,0.0,0.0,0.0,0.0,0.0,0.0,0.0,0.0,0.0,0.0,0.0,0.0,0.0,0.0,0.0,0.0,0.0,0.0,0.0,0.0,0.0,0.0,0.0,0.0,0.0,0.0,0.0,0.0,0.0,0.0,0.0,0.0,4.7813,4.7776,4.6595,4.5963,4.5926,0.0,0.0,0.0,0.0,0.0,0.0,0.0,0.0,0.0,0.0,0.0,0.0,0.0,0.0,0.0,0.0,0.0,0.0,0.0,0.0,0.0,0.0,0.0,0.0,0.0,0.0,0.0,0.0,0.0,0.0,0.0,0.0,0.0,0.0,0.0,0.0,0.0,0.0,0.0,0.0,0.0,0.0,0.0,0.0,0.0,0.0,0.0,0.0,0.0,0.0,0.0,0.0,0.0,0.0,0.0,0.0,0.0,0.0,0.0,0.0,0.0,0.0,0.0,0.0,0.0,0.0,0.0,0.0,0.0,0.0,0.0,0.0,0.0,0.0,0.0,0.0,0.0,0.0,0.0,0.0,0.0,0.0,0.0,0.0,0.0,0.0,0.0,0.0,0.0,0.0,0.0,0.0,0.0,0.0,0.0,0.0,0.0,0.0,0.0,0.0,0.0,0.0,0.0,0.0,0.0,0.0,0.0,0.0,0.0,0.0,0.0,0.0,4.7516,4.6587,4.6215,0.0,0.0,0.0,0.0,0.0,0.0,0.0,0.0,0.0,0.0,0.0,0.0,0.0,0.0,0.0,0.0,0.0,0.0,0.0,0.0,0.0,0.0,0.0,0.0,0.0,0.0,0.0,0.0,0.0,0.0,0.0,0.0,0.0,0.0,0.0,0.0,0.0,0.0,0.0,0.0,0.0,0.0,0.0,0.0,0.0,0.0,0.0,0.0,0.0,0.0,0.0,0.0,0.0,0.0,0.0,0.0,0.0,0.0,0.0,0.0,0.0,0.0,0.0,0.0,0.0,0.0,0.0,0.0,0.0,0.0,0.0,0.0,0.0,0.0,0.0,0.0,0.0,0.0,0.0,0.0,0.0,0.0,0.0,0.0,0.0,0.0,0.0,0.0,0.0,0.0,0.0,0.0,0.0,0.0,0.0,0.0,0.0,0.0,0.0,0.0,0.0,0.0,0.0,0.0,0.0,0.0,0.0,0.0,0.0,0.0,4.889,4.8881,4.8036,0.0,4.5472,0.0,0.0,0.0,0.0,0.0,0.0,0.0,0.0,0.0,0.0,0.0,0.0,0.0,0.0,0.0,0.0,0.0,0.0,0.0,0.0,0.0,0.0,0.0,0.0,0.0,0.0,0.0,0.0,0.0,0.0,0.0,0.0,0.0,0.0,0.0,0.0,0.0,0.0,0.0,0.0,0.0,0.0,0.0,0.0,0.0,0.0,0.0,0.0,0.0,0.0,0.0,0.0,0.0,0.0,0.0,0.0,0.0,0.0,0.0,0.0,0.0,0.0,0.0,0.0,0.0,0.0,0.0,0.0,0.0,0.0,0.0,0.0,0.0,0.0,0.0,0.0,0.0,0.0,0.0,0.0,0.0,0.0,0.0,0.0,0.0,0.0,0.0,0.0,0.0,0.0,0.0,0.0,0.0,0.0,0.0,0.0,0.0,0.0,0.0,0.0,0.0,0.0,0.0,0.0,0.0,0.0,0.0,0.0,0.0,0.0,0.0,5.0367,4.863,4.6698,0.0,0.0,0.0,0.0,0.0,0.0,0.0,0.0,0.0,0.0,0.0,0.0,0.0,0.0,0.0,0.0,0.0,0.0,0.0,0.0,0.0,0.0,0.0,0.0,0.0,0.0,0.0,0.0,0.0,0.0,0.0,0.0,0.0,0.0,0.0,0.0,0.0,0.0,0.0,0.0,0.0,0.0,0.0,0.0,0.0,0.0,0.0,0.0,0.0,0.0,0.0,0.0,0.0,0.0,0.0,0.0,0.0,0.0,0.0,0.0,0.0,0.0,0.0,0.0,0.0,0.0,0.0,0.0,0.0,0.0,0.0,0.0,0.0,0.0,0.0,0.0,0.0,0.0,0.0,0.0,0.0,0.0,0.0,0.0,0.0,0.0,0.0,0.0,0.0,0.0,0.0,0.0,0.0,0.0,0.0,0.0,0.0,0.0,0.0,0.0,0.0,0.0,0.0,0.0,0.0,0.0,0.0,0.0,0.0,0.0,4.9819,0.0,5.0265,4.8444,4.6327,4.4098,0.0,0.0,0.0,0.0,0.0,0.0,0.0,0.0,0.0,0.0,0.0,0.0,0.0,0.0,0.0,0.0,0.0,0.0,0.0,0.0,0.0,0.0,0.0,0.0,0.0,0.0,0.0,0.0,0.0,0.0,0.0,0.0,0.0,0.0,0.0,0.0,0.0,0.0,0.0,0.0,0.0,0.0,0.0,0.0,0.0,0.0,0.0,0.0,0.0,0.0,0.0,0.0,0.0,0.0,0.0,0.0,0.0,0.0,0.0,0.0,0.0,0.0,0.0,0.0,0.0,0.0,0.0,0.0,0.0,0.0,0.0,0.0,0.0,0.0,0.0,0.0,0.0,0.0,0.0,0.0,0.0,0.0,0.0,0.0,0.0,0.0,0.0,0.0,0.0,0.0,0.0,0.0,0.0,0.0,0.0,0.0,0.0,0.0,0.0,0.0,0.0,0.0,0.0,0.0,0.0,0.0,0.0,0.0,0.0,4.8964,4.8621,4.7961,4.6995,4.5732,0.0,0.0,0.0,0.0,0.0,0.0,0.0,0.0,0.0,0.0,0.0,0.0,0.0,0.0,0.0,0.0,0.0,0.0,0.0,0.0,0.0,0.0,0.0,0.0,0.0,0.0,0.0,0.0,0.0,0.0,0.0,0.0,0.0,0.0,0.0,0.0,0.0,0.0,0.0,0.0,0.0,0.0,0.0,0.0,0.0,0.0,0.0,0.0,0.0,0.0,0.0,0.0,0.0,0.0,0.0,0.0,0.0,0.0,0.0,0.0,0.0,0.0,0.0,0.0,0.0,0.0,0.0,0.0,0.0,0.0,0.0,0.0,0.0,0.0,0.0,0.0,0.0,0.0,0.0,0.0,0.0,0.0,0.0,0.0,0.0,0.0,0.0,0.0,0.0,0.0,0.0,0.0,0.0,0.0,0.0,0.0,0.0,0.0,0.0,0.0,0.0,0.0,0.0,0.0,0.0,0.0,0.0,0.0,0.0,4.889,4.889,4.8519,4.7701,4.6438,4.4952,0.0,0.0,0.0,0.0,0.0,0.0,0.0,0.0,0.0,0.0,0.0,0.0,0.0,0.0,0.0,0.0,0.0,0.0,0.0,0.0,0.0,0.0,0.0,0.0,0.0,0.0,0.0,0.0,0.0,0.0,0.0,0.0,0.0,0.0,0.0,0.0,0.0,0.0,0.0,0.0,0.0,0.0,0.0,0.0,0.0,0.0,0.0,0.0,0.0,0.0,0.0,0.0,0.0,0.0,0.0,0.0,0.0,0.0,0.0,0.0,0.0,0.0,0.0,0.0,0.0,0.0,0.0,0.0,0.0,0.0,0.0,0.0,0.0,0.0,0.0,0.0,0.0,0.0,0.0,0.0,0.0,0.0,0.0,0.0,0.0,0.0,0.0,0.0,0.0,0.0,0.0,0.0,0.0,0.0,0.0,0.0,0.0,0.0,0.0,0.0,0.0,0.0,0.0,0.0,0.0,0.0,0.0,0.0,0.0,4.9262,0.0,4.9447,0.0,4.7033,4.5435,0.0,0.0,0.0,0.0,0.0,0.0,0.0,0.0,0.0,0.0,0.0,0.0,0.0,0.0,0.0,0.0,0.0,0.0,0.0,0.0,0.0,0.0,0.0,0.0,0.0,0.0,0.0,0.0,0.0,0.0,0.0,0.0,0.0,0.0,0.0,0.0,0.0,0.0,0.0,0.0,0.0,0.0,0.0,0.0,0.0,0.0,0.0,0.0,0.0,0.0,0.0,0.0,0.0,0.0,0.0,0.0,0.0,0.0,0.0,0.0,0.0,0.0,0.0,0.0,0.0,0.0,0.0,0.0,0.0,0.0,0.0,0.0,0.0,0.0,0.0,0.0,0.0,0.0,0.0,0.0,0.0,0.0,0.0,0.0,0.0,0.0,0.0,0.0,0.0,0.0,0.0,0.0,0.0,0.0,0.0,0.0,0.0,0.0,0.0,0.0,0.0,0.0,0.0,0.0,0.0,0.0,0.0,0.0,4.9364,5.0153,5.1714,5.1416,4.903,4.8853,4.733,0.0,0.0,0.0,0.0,0.0,0.0,0.0,0.0,0.0,0.0,0.0,0.0,0.0,0.0,0.0,0.0,0.0,0.0,0.0,0.0,0.0,0.0,0.0,0.0,0.0,0.0,0.0,0.0,0.0,0.0,0.0,0.0,0.0,0.0,0.0,0.0,0.0,0.0,0.0,0.0,0.0,0.0,0.0,0.0,0.0,0.0,0.0,0.0,0.0,0.0,0.0,0.0,0.0,0.0,0.0,0.0,0.0,0.0,0.0,0.0,0.0,0.0,0.0,0.0,0.0,0.0,0.0,0.0,0.0,0.0,0.0,0.0,0.0,0.0,0.0,0.0,0.0,0.0,0.0,0.0,0.0,0.0,0.0,0.0,0.0,0.0,0.0,0.0,0.0,0.0,0.0,0.0,0.0,0.0,0.0,0.0,0.0,0.0,0.0,0.0,0.0,0.0,0.0,0.0,0.0,0.0,0.0,0.0,0.0,5.1082,5.2605,5.2791,5.1454,4.9782,4.7924,0.0,0.0,0.0,0.0,0.0,0.0,0.0,0.0,0.0,0.0,0.0,0.0,0.0,0.0,0.0,0.0,0.0,0.0,0.0,0.0,0.0,0.0,0.0,0.0,0.0,0.0,0.0,0.0,0.0,0.0,0.0,0.0,0.0,0.0,0.0,0.0,0.0,0.0,0.0,0.0,0.0,0.0,0.0,0.0,0.0,0.0,0.0,0.0,0.0,0.0,0.0,0.0,0.0,0.0,0.0,0.0,0.0,0.0,0.0,0.0,0.0,0.0,0.0,0.0,0.0,0.0,0.0,0.0,0.0,0.0,0.0,0.0,0.0,0.0,0.0,0.0,0.0,0.0,0.0,0.0,0.0,0.0,0.0,0.0,0.0,0.0,0.0,0.0,0.0,0.0,0.0,0.0,0.0,0.0,0.0,0.0,0.0,0.0,0.0,0.0,0.0,0.0,0.0,0.0,0.0,0.0,0.0,0.0,0.0,5.6915,5.7536,5.7053,5.5382,5.3534,5.1231,4.8407,0.0,0.0,0.0,0.0,0.0,0.0,0.0,0.0,0.0,0.0,0.0,0.0,0.0,0.0,0.0,0.0,0.0,0.0,0.0,0.0,0.0,0.0,0.0,0.0,0.0,0.0,0.0,0.0,0.0,0.0,0.0,0.0,0.0,0.0,0.0,0.0,0.0,0.0,0.0,0.0,0.0,0.0,0.0,0.0,0.0,0.0,0.0,0.0,0.0,0.0,0.0,0.0,0.0,0.0,0.0,0.0,0.0,0.0,0.0,0.0,0.0,0.0,0.0,0.0,0.0,0.0,0.0,0.0,0.0,0.0,0.0,0.0,0.0,0.0,0.0,0.0,0.0,0.0,0.0,0.0,0.0,0.0,0.0,0.0,0.0,0.0,0.0,0.0,0.0,0.0,0.0,0.0,0.0,0.0,0.0,0.0,0.0,0.0,0.0,0.0,0.0,0.0,0.0,0.0,0.0,0.0,0.0,0.0,6.6462,6.5968,6.4036,6.0582,5.9579,5.6803,0.0,0.0,0.0,0.0,0.0,0.0,0.0,0.0,0.0,0.0,0.0,0.0,0.0,0.0,0.0,0.0,0.0,0.0,0.0,0.0,0.0,0.0,0.0,0.0,0.0,0.0,0.0,0.0,0.0,0.0,0.0,0.0,0.0,0.0,0.0,0.0,0.0,0.0,0.0,0.0,0.0,0.0,0.0,0.0,0.0,0.0,0.0,0.0,0.0,0.0,0.0,0.0,0.0,0.0,0.0,0.0,0.0,0.0,0.0,0.0,0.0,0.0,0.0,0.0,0.0,0.0,0.0,0.0,0.0,0.0,0.0,0.0,0.0,0.0,0.0,0.0,0.0,0.0,0.0,0.0,0.0,0.0,0.0,0.0,0.0,0.0,0.0,0.0,0.0,0.0,0.0,0.0,0.0,0.0,0.0,0.0,0.0,0.0,0.0,0.0,0.0,0.0,0.0,0.0,0.0,0.0,0.0,0.0,0.0,7.1305,7.4784,7.3545,6.7379,6.5151,6.151,0.0,0.0,0.0,0.0,0.0,0.0,0.0,0.0,0.0,0.0,0.0,0.0,0.0,0.0,0.0,0.0,0.0,0.0,0.0,0.0,0.0,0.0,0.0,0.0,0.0,0.0,0.0,0.0,0.0,0.0,0.0,0.0,0.0,0.0,0.0,0.0,0.0,0.0,0.0,0.0,0.0,0.0,0.0,0.0,0.0,0.0,0.0,0.0,0.0,0.0,0.0,0.0,0.0,0.0,0.0,0.0,0.0,0.0,0.0,0.0,0.0,0.0,0.0,0.0,0.0,0.0,0.0,0.0,0.0,0.0,0.0,0.0,0.0,0.0,0.0,0.0,0.0,0.0,0.0,0.0,0.0,0.0,0.0,0.0,0.0,0.0,0.0,0.0,0.0,0.0,0.0,0.0,0.0,0.0,0.0,0.0,0.0,0.0,0.0,0.0,0.0,0.0,0.0,0.0,0.0,0.0,0.0,0.0,6.9174,7.5355,8.1248,8.1471,7.5527,7.0995,6.5756,0.0,0.0,0.0,0.0,0.0,0.0,0.0,0.0,0.0,0.0,0.0,0.0,0.0,0.0,0.0,0.0,0.0,0.0,0.0,0.0,0.0,0.0,0.0,0.0,0.0,0.0,0.0,0.0,0.0,0.0,0.0,0.0,0.0,0.0,0.0,0.0,0.0,0.0,0.0,0.0,0.0,0.0,0.0,0.0,0.0,0.0,0.0,0.0,0.0,0.0,0.0,0.0,0.0,0.0,0.0,0.0,0.0,0.0,0.0,0.0,0.0,0.0,0.0,0.0,0.0,0.0,0.0,0.0,0.0,0.0,0.0,0.0,0.0,0.0,0.0,0.0,0.0,0.0,0.0,0.0,0.0,0.0,0.0,0.0,0.0,0.0,0.0,0.0,0.0,0.0,0.0,0.0,0.0,0.0,0.0,0.0,0.0,0.0,0.0,0.0,0.0,0.0,0.0,0.0,0.0,0.0,0.0,0.0,7.3075,7.8736,8.5743,8.7564,8.3604,7.6767,6.993,0.0,0.0,0.0,0.0,0.0,0.0,0.0,0.0,0.0,0.0,0.0,0.0,0.0,0.0,0.0,0.0,0.0,0.0,0.0,0.0,0.0,0.0,0.0,0.0,0.0,0.0,0.0,0.0,0.0,0.0,0.0,0.0,0.0,0.0,0.0,0.0,0.0,0.0,0.0,0.0,0.0,0.0,0.0,0.0,0.0,0.0,0.0,0.0,0.0,0.0,0.0,0.0,0.0,0.0,0.0,0.0,0.0,0.0,0.0,0.0,0.0,0.0,0.0,0.0,0.0,0.0,0.0,0.0,0.0,0.0,0.0,0.0,0.0,0.0,0.0,0.0,0.0,0.0,0.0,0.0,0.0,0.0,0.0,0.0,0.0,0.0,0.0,0.0,0.0,0.0,0.0,0.0,0.0,0.0,0.0,0.0,0.0,0.0,0.0,0.0,0.0,0.0,0.0,0.0,0.0,0.0,0.0,0.0,7.6976,8.208,8.7452,8.8901,8.6078,8.1411,7.523,0.0,0.0,0.0,0.0,0.0,0.0,0.0,0.0,0.0,0.0,0.0,0.0,0.0,0.0,0.0,0.0,0.0,0.0,0.0,0.0,0.0,0.0,0.0,0.0,0.0,0.0,0.0,0.0,0.0,0.0,0.0,0.0,0.0,0.0,0.0,0.0,0.0,0.0,0.0,0.0,0.0,0.0,0.0,0.0,0.0,0.0,0.0,0.0,5.7165,0.0,0.0,0.0,0.0,0.0,0.0,0.0,0.0,0.0,0.0,0.0,0.0,0.0,0.0,0.0,0.0,0.0,0.0,0.0,0.0,0.0,0.0,0.0,0.0,0.0,0.0,0.0,0.0,0.0,0.0,0.0,0.0,0.0,0.0,0.0,0.0,0.0,0.0,0.0,0.0,0.0,0.0,0.0,0.0,0.0,0.0,0.0,0.0,0.0,0.0,0.0,0.0,0.0,0.0,0.0,0.0,0.0,0.0,0.0,8.0742,8.4867,8.9681,9.087,8.8047,8.5112,7.9354,0.0,0.0,0.0,0.0,0.0,0.0,0.0,0.0,0.0,0.0,0.0,0.0,0.0,0.0,0.0,0.0,0.0,0.0,0.0,0.0,0.0,0.0,0.0,0.0,0.0,0.0,0.0,0.0,0.0,0.0,0.0,0.0,0.0,0.0,0.0,0.0,0.0,0.0,0.0,0.0,0.0,0.0,0.0,0.0,0.0,0.0,0.0,0.0,0.0,0.0,0.0,0.0,0.0,0.0,0.0,0.0,0.0,0.0,0.0,0.0,0.0,0.0,0.0,0.0,0.0,0.0,0.0,0.0,0.0,0.0,0.0,0.0,0.0,0.0,0.0,0.0,0.0,0.0,0.0,0.0,0.0,0.0,0.0,0.0,0.0,0.0,0.0,0.0,0.0,0.0,0.0,0.0,0.0,0.0,0.0,0.0,0.0,0.0,0.0,0.0,0.0,0.0,0.0,0.0,0.0,0.0,0.0,7.8382,8.4369,8.7239,9.1778,9.2579,8.9198,8.723,8.1806,7.2531,0.0,0.0,0.0,0.0,0.0,0.0,0.0,0.0,0.0,0.0,0.0,0.0,0.0,0.0,0.0,0.0,0.0,0.0,0.0,0.0,0.0,0.0,0.0,0.0,0.0,0.0,0.0,0.0,0.0,0.0,0.0,0.0,0.0,0.0,0.0,0.0,0.0,0.0,5.5605,5.8762,0.0,0.0,0.0,0.0,0.0,0.0,0.0,0.0,6.115,0.0,0.0,0.0,0.0,0.0,0.0,0.0,0.0,0.0,0.0,0.0,0.0,0.0,0.0,0.0,0.0,0.0,0.0,0.0,0.0,0.0,0.0,0.0,0.0,0.0,0.0,0.0,0.0,0.0,0.0,0.0,0.0,0.0,0.0,0.0,0.0,0.0,0.0,0.0,0.0,0.0,0.0,0.0,0.0,0.0,0.0,0.0,0.0,0.0,0.0,0.0,0.0,0.0,0.0,0.0,0.0,7.3902,8.2823,8.7974,8.9082,9.2438,9.2319,8.8418,8.5387,8.0148,7.2531,0.0,0.0,0.0,0.0,0.0,0.0,0.0,0.0,0.0,0.0,0.0,0.0,0.0,0.0,0.0,0.0,0.0,0.0,0.0,0.0,0.0,0.0,0.0,0.0,0.0,0.0,0.0,0.0,0.0,0.0,0.0,0.0,0.0,0.0,0.0,0.0,0.0,0.0,0.0,6.2996,6.4482,0.0,0.0,0.0,0.0,0.0,0.0,0.0,0.0,6.2922,0.0,0.0,0.0,0.0,0.0,0.0,0.0,0.0,0.0,0.0,0.0,0.0,0.0,0.0,0.0,0.0,0.0,0.0,0.0,0.0,0.0,0.0,0.0,0.0,0.0,0.0,0.0,0.0,0.0,0.0,0.0,0.0,0.0,0.0,0.0,0.0,0.0,0.0,0.0,0.0,0.0,0.0,0.0,0.0,0.0,0.0,0.0,0.0,0.0,0.0,0.0,0.0,0.0,0.0,0.0,7.7277,8.6036,9.07,9.1051,9.3502,9.2468,8.7564,8.3849,7.8425,0.0,0.0,0.0,0.0,0.0,0.0,0.0,0.0,0.0,0.0,0.0,0.0,0.0,0.0,0.0,0.0,0.0,0.0,0.0,0.0,0.0,0.0,0.0,0.0,0.0,0.0,0.0,0.0,0.0,0.0,0.0,0.0,0.0,0.0,0.0,0.0,0.0,0.0,0.0,0.0,6.6648,6.8654,6.7008,0.0,0.0,0.0,0.0,0.0,0.0,6.6376,6.4853,0.0,0.0,0.0,0.0,0.0,0.0,0.0,0.0,0.0,0.0,0.0,0.0,0.0,0.0,0.0,0.0,0.0,0.0,0.0,0.0,0.0,0.0,0.0,0.0,0.0,0.0,0.0,0.0,0.0,0.0,0.0,0.0,0.0,0.0,0.0,0.0,0.0,0.0,0.0,0.0,0.0,0.0,0.0,0.0,0.0,0.0,0.0,0.0,0.0,0.0,0.0,0.0,0.0,0.0,0.0,8.0144,8.8759,9.3157,9.3109,9.4724,9.2923,8.7346,8.3051,7.7318,0.0,0.0,0.0,0.0,0.0,0.0,0.0,0.0,0.0,0.0,0.0,0.0,0.0,0.0,0.0,0.0,0.0,0.0,0.0,0.0,0.0,0.0,0.0,0.0,0.0,0.0,0.0,0.0,0.0,0.0,0.0,0.0,0.0,0.0,0.0,0.0,0.0,0.0,0.0,0.0,0.0,7.2481,7.1354,6.9942,0.0,0.0,0.0,0.0,7.0202,6.9682,0.0,0.0,0.0,0.0,0.0,0.0,0.0,0.0,0.0,0.0,0.0,0.0,0.0,0.0,0.0,0.0,0.0,0.0,0.0,0.0,0.0,0.0,0.0,0.0,0.0,0.0,0.0,0.0,0.0,0.0,0.0,0.0,0.0,0.0,0.0,0.0,0.0,0.0,0.0,0.0,0.0,0.0,0.0,0.0,0.0,0.0,0.0,0.0,0.0,0.0,0.0,0.0,0.0,0.0,0.0,0.0,8.3036,9.1282,9.5426,9.5277,9.5938,9.3822,8.8685,8.3746,7.761,0.0,0.0,0.0,0.0,0.0,0.0,0.0,0.0,0.0,0.0,0.0,0.0,0.0,0.0,0.0,0.0,0.0,0.0,0.0,0.0,0.0,0.0,0.0,0.0,0.0,0.0,0.0,0.0,0.0,0.0,0.0,0.0,0.0,0.0,0.0,0.0,0.0,0.0,0.0,0.0,0.0,7.5615,7.6172,7.5429,7.4821,0.0,0.0,7.5243,7.5986,7.6024,0.0,0.0,0.0,0.0,0.0,0.0,0.0,0.0,0.0,0.0,0.0,0.0,0.0,0.0,0.0,0.0,0.0,0.0,0.0,0.0,0.0,0.0,0.0,0.0,0.0,0.0,0.0,0.0,0.0,0.0,0.0,0.0,0.0,0.0,0.0,0.0,0.0,0.0,0.0,0.0,0.0,0.0,0.0,0.0,0.0,0.0,0.0,0.0,0.0,0.0,0.0,0.0,0.0,0.0,0.0,7.6366,8.4729,9.3343,9.7476,9.6907,9.7739,9.5578,9.0098,8.5767,7.9741,0.0,0.0,0.0,0.0,0.0,0.0,0.0,0.0,0.0,0.0,0.0,0.0,0.0,0.0,0.0,0.0,0.0,0.0,0.0,0.0,0.0,0.0,0.0,0.0,0.0,0.0,0.0,0.0,0.0,0.0,0.0,0.0,0.0,0.0,0.0,0.0,0.0,0.0,0.0,0.0,0.0,0.0,8.0334,8.0222,0.0,0.0,0.0,8.0297,8.1114,0.0,0.0,0.0,0.0,0.0,0.0,0.0,0.0,0.0,0.0,0.0,0.0,0.0,0.0,0.0,0.0,0.0,0.0,0.0,0.0,0.0,0.0,0.0,0.0,0.0,0.0,0.0,0.0,0.0,0.0,0.0,0.0,0.0,0.0,0.0,0.0,0.0,0.0,0.0,0.0,0.0,0.0,0.0,0.0,0.0,0.0,0.0,0.0,0.0,0.0,0.0,0.0,0.0,0.0,0.0,0.0,0.0,8.5991,9.4811,9.9072,9.8613,9.9378,9.7426,9.2367,8.8268,0.0,0.0,0.0,0.0,0.0,0.0,0.0,0.0,0.0,0.0,0.0,0.0,0.0,0.0,0.0,0.0,0.0,0.0,0.0,0.0,0.0,0.0,0.0,0.0,0.0,0.0,0.0,4.8407,0.0,0.0,0.0,0.0,0.0,0.0,0.0,0.0,0.0,0.0,0.0,0.0,0.0,0.0,8.1917,8.4384,8.509,8.5483,0.0,0.0,8.5238,8.5833,8.6449,8.483,0.0,0.0,0.0,0.0,0.0,0.0,0.0,0.0,0.0,0.0,0.0,0.0,0.0,0.0,0.0,0.0,0.0,0.0,0.0,0.0,0.0,0.0,0.0,0.0,0.0,0.0,0.0,0.0,0.0,0.0,0.0,0.0,0.0,0.0,0.0,0.0,0.0,0.0,0.0,0.0,0.0,0.0,0.0,0.0,0.0,0.0,0.0,0.0,0.0,0.0,0.0,0.0,0.0,0.0,0.0,8.6889,9.5343,9.9994,10.0573,10.0562,9.9138,9.6141,9.1095,8.4729,0.0,0.0,0.0,0.0,0.0,0.0,0.0,0.0,0.0,0.0,0.0,0.0,0.0,0.0,0.0,0.0,0.0,0.0,0.0,0.0,0.0,0.0,0.0,0.0,0.0,0.0,0.0,0.0,0.0,0.0,0.0,0.0,0.0,0.0,0.0,0.0,0.0,0.0,0.0,0.0,0.0,8.6078,8.853,9.0164,9.0907,0.0,0.0,9.0016,9.009,9.0127,8.7973,8.1523,0.0,0.0,0.0,0.0,0.0,0.0,0.0,0.0,0.0,0.0,0.0,0.0,0.0,0.0,0.0,0.0,0.0,0.0,0.0,0.0,0.0,0.0,0.0,0.0,0.0,0.0,0.0,0.0,0.0,0.0,0.0,0.0,0.0,0.0,0.0,0.0,0.0,0.0,0.0,0.0,0.0,0.0,0.0,0.0,0.0,0.0,0.0,0.0,0.0,0.0,0.0,0.0,0.0,7.9515,8.8759,9.8173,10.3147,10.3462,10.3908,10.2901,10.0191,9.6891,9.0757,0.0,0.0,0.0,0.0,0.0,0.0,0.0,0.0,0.0,0.0,0.0,0.0,0.0,0.0,0.0,0.0,0.0,0.0,0.0,0.0,0.0,0.0,0.0,0.0,0.0,0.0,0.0,0.0,5.4983,5.527,5.501,0.0,0.0,0.0,0.0,0.0,0.0,0.0,0.0,0.0,0.0,8.931,9.3248,9.5217,0.0,0.0,9.6443,9.544,9.4437,9.3434,9.0536,8.4035,7.7807,0.0,0.0,0.0,0.0,0.0,0.0,0.0,0.0,0.0,0.0,0.0,0.0,0.0,0.0,0.0,0.0,0.0,0.0,0.0,0.0,0.0,0.0,0.0,0.0,0.0,0.0,0.0,0.0,0.0,0.0,0.0,0.0,0.0,0.0,0.0,0.0,0.0,0.0,0.0,0.0,0.0,0.0,0.0,0.0,0.0,0.0,0.0,0.0,0.0,0.0,0.0,0.0,8.0708,9.0239,10.0058,10.5107,10.5107,10.5944,10.5123,10.2484,10.0426,9.4905,0.0,0.0,0.0,0.0,0.0,0.0,0.0,0.0,0.0,0.0,0.0,0.0,0.0,0.0,0.0,0.0,0.0,0.0,0.0,0.0,0.0,0.0,0.0,0.0,0.0,0.0,0.0,0.0,5.7769,5.7202,5.5902,0.0,0.0,0.0,0.0,0.0,0.0,0.0,0.0,0.0,0.0,9.1477,9.6112,9.8399,9.9999,10.1153,10.0594,9.9163,9.6694,9.5102,9.2059,8.5743,0.0,0.0,0.0,0.0,0.0,0.0,0.0,0.0,0.0,0.0,0.0,0.0,0.0,0.0,0.0,0.0,0.0,0.0,0.0,0.0,0.0,0.0,0.0,0.0,0.0,0.0,0.0,5.5057,0.0,0.0,5.3971,0.0,0.0,0.0,0.0,0.0,0.0,0.0,0.0,0.0,0.0,0.0,0.0,0.0,0.0,0.0,0.0,0.0,0.0,0.0,0.0,0.0,0.0,8.1016,9.1095,10.0404,10.5146,10.5223,10.5982,10.52,10.2571,10.0701,9.595,8.7923,0.0,0.0,0.0,0.0,0.0,0.0,0.0,0.0,0.0,0.0,0.0,0.0,0.0,0.0,0.0,0.0,0.0,0.0,0.0,0.0,0.0,0.0,0.0,0.0,0.0,0.0,6.0752,6.1076,6.0009,0.0,0.0,0.0,0.0,0.0,0.0,0.0,0.0,0.0,0.0,8.7335,9.2424,9.6676,9.927,10.0952,10.1009,10.1587,10.0602,9.639,9.4867,9.2245,0.0,0.0,0.0,0.0,0.0,0.0,0.0,0.0,0.0,0.0,0.0,0.0,0.0,0.0,0.0,0.0,0.0,0.0,0.0,0.0,0.0,0.0,0.0,0.0,0.0,0.0,0.0,6.3123,6.2711,0.0,0.0,0.0,0.0,0.0,0.0,0.0,0.0,0.0,0.0,0.0,8.1652,8.2512,0.0,0.0,0.0,0.0,0.0,0.0,0.0,0.0,0.0,0.0,0.0,0.0,8.2131,9.271,10.2058,10.7367,10.8454,10.8752,10.7962,10.5969,10.4218,9.7709,8.5925,0.0,0.0,0.0,0.0,0.0,0.0,0.0,0.0,0.0,0.0,0.0,0.0,0.0,0.0,0.0,0.0,0.0,0.0,0.0,0.0,0.0,0.0,0.0,0.0,0.0,6.1202,0.0,0.0,0.0,0.0,0.0,0.0,0.0,0.0,0.0,0.0,0.0,7.9392,8.5587,9.055,9.5172,9.948,10.2488,10.4197,0.0,0.0,0.0,0.0,0.0,0.0,0.0,0.0,0.0,0.0,0.0,0.0,0.0,0.0,8.6078,8.2549,8.1486,8.1174,8.1434,0.0,0.0,0.0,0.0,0.0,0.0,0.0,0.0,0.0,0.0,0.0,0.0,0.0,0.0,7.1522,0.0,6.8005,0.0,0.0,0.0,0.0,0.0,0.0,0.0,0.0,8.7072,9.0561,9.1931,9.3053,9.3466,0.0,9.2161,8.6735,0.0,0.0,0.0,0.0,0.0,0.0,0.0,0.0,8.4332,9.4104,10.3982,10.9252,10.9752,11.0598,11.0137,10.8136,10.5259,9.8672,8.7915,8.1167,7.4434,0.0,0.0,0.0,0.0,0.0,0.0,0.0,0.0,0.0,0.0,0.0,0.0,0.0,0.0,0.0,0.0,0.0,0.0,0.0,0.0,0.0,0.0,0.0,6.4991,0.0,0.0,0.0,0.0,0.0,0.0,0.0,0.0,0.0,7.6134,8.0352,8.5214,8.9659,9.3418,9.7142,10.0812,0.0,0.0,0.0,0.0,0.0,0.0,0.0,9.345,9.1354,9.1034,9.1855,9.4409,9.6388,9.7976,9.9042,0.0,0.0,9.2872,9.1502,9.1353,9.2171,9.1725,9.1539,9.2579,9.3025,9.3582,0.0,0.0,0.0,0.0,0.0,0.0,0.0,0.0,8.1824,8.0911,0.0,7.577,0.0,0.0,0.0,0.0,7.1328,7.6501,0.0,0.0,9.6634,10.0712,10.151,10.3087,10.352,10.2674,10.0943,9.8365,9.445,8.267,0.0,0.0,0.0,0.0,0.0,0.0,8.7448,9.5297,10.5905,11.0675,10.929,11.1483,11.156,10.9021,10.417,9.917,9.3995,8.8948,8.3137,7.6453,7.2095,0.0,0.0,0.0,0.0,0.0,0.0,0.0,0.0,0.0,0.0,0.0,0.0,0.0,0.0,0.0,0.0,0.0,0.0,0.0,0.0,7.1064,0.0,0.0,0.0,0.0,0.0,0.0,0.0,0.0,0.0,0.0,8.3882,8.7832,9.1739,9.4002,0.0,0.0,0.0,0.0,10.6198,10.6221,10.7586,10.7135,10.2807,10.0466,9.9185,9.9178,0.0,0.0,10.4941,10.6257,10.6767,10.6751,10.6602,10.5439,10.2381,10.142,10.1588,10.235,10.2907,10.391,10.4096,10.3873,10.4802,9.2186,0.0,0.0,0.0,0.0,8.7566,9.0808,9.3306,9.2695,9.1816,9.0593,8.5998,0.0,0.0,0.0,0.0,0.0,0.0,8.9633,9.5211,10.1635,10.5059,10.5905,10.6944,10.7021,10.6213,10.5136,10.3174,10.025,9.4941,8.6748,7.6015,0.0,0.0,0.0,0.0,8.944,9.9288,10.6828,11.1214,11.2522,11.3253,11.2714,11.0791,10.8115,10.4864,10.1038,9.6568,9.16,8.6065,8.0068,0.0,0.0,0.0,0.0,0.0,0.0,0.0,0.0,0.0,0.0,0.0,0.0,0.0,0.0,0.0,0.0,0.0,0.0,0.0,7.4323,7.5503,7.4801,0.0,0.0,0.0,0.0,0.0,0.0,0.0,0.0,0.0,9.6726,9.7085,9.8477,0.0,0.0,10.3959,10.5992,10.85,11.004,10.957,11.0829,0.0,10.7617,10.5855,10.5092,10.566,10.8645,11.1967,11.4886,11.5151,11.4886,11.4848,11.3795,11.2269,11.0443,10.7381,10.5619,10.6065,10.6417,10.6994,10.8071,10.8145,10.8108,10.403,9.535,9.4465,9.4094,9.4556,9.8223,10.1602,10.4385,10.3553,10.2901,10.2084,9.6726,9.22,8.8336,8.489,0.0,0.0,0.0,9.698,10.175,10.6626,10.9521,11.0714,11.1214,11.1021,11.0175,10.8983,10.729,10.5059,10.2904,9.7211,8.7979,0.0,0.0,8.2524,8.644,9.2787,10.1635,10.8021,11.2099,11.3945,11.433,11.3714,11.2022,11.0637,10.8175,10.452,10.1904,9.8173,9.3086,8.7432,8.1785,0.0,0.0,0.0,0.0,0.0,0.0,0.0,0.0,0.0,0.0,0.0,5.762,0.0,0.0,0.0,0.0,7.1441,7.596,7.9332,8.1512,0.0,0.0,0.0,0.0,0.0,0.0,0.0,9.4906,10.0456,10.4694,10.6707,10.649,10.622,10.6489,10.7239,10.8452,11.0197,0.0,11.306,11.2994,11.408,11.4043,11.1749,11.0687,11.0751,11.2604,11.582,11.8744,12.054,12.054,12.0121,11.9688,11.8469,11.6918,11.5341,11.2533,11.0348,11.0156,11.0318,11.0986,11.2249,11.212,11.1878,11.3036,11.1149,10.6336,10.4614,10.5361,10.8117,11.1242,11.4291,11.3599,11.3176,11.256,10.7059,10.2635,9.9019,9.4287,0.0,9.725,10.0442,10.4049,10.8098,11.1406,11.3753,11.5291,11.5264,11.483,11.3907,11.2291,11.0637,10.8944,10.7318,10.5318,10.2674,9.1941,8.7594,8.9757,9.2835,9.7288,10.3174,10.956,11.3253,11.4176,11.4984,11.4561,11.2868,11.2099,10.979,10.5828,10.552,10.3289,9.8519,9.421,8.9556,8.4409,0.0,0.0,0.0,0.0,0.0,0.0,0.0,0.0,0.0,0.0,0.0,0.0,0.0,0.0,0.0,7.7329,0.0,8.5019,8.8413,0.0,0.0,0.0,8.6333,9.0355,9.524,9.9596,10.2904,0.0,0.0,11.3984,11.5099,11.422,11.0238,11.0943,11.2383,11.3905,11.4915,11.5759,11.6526,11.732,11.7245,11.5803,11.5268,11.5982,11.8646,12.0952,12.1984,12.2658,12.285,12.2658,12.1946,12.098,11.958,11.761,11.6636,11.606,11.4167,11.4522,11.5373,11.6021,11.6149,11.5852,11.9985,11.891,11.7657,11.4579,11.084,11.4053,11.6397,11.7907,11.8292,11.7407,11.5368,11.206,10.8021,10.3482,10.0981,10.1404,10.4087,10.6174,10.8367,11.0703,11.3407,11.4918,11.5303,11.5303,11.483,11.3907,11.2329,11.0944,10.9867,10.8829,10.7367,10.5395,10.1981,9.9635,9.8404,9.975,10.3097,10.8329,11.1868,11.4407,11.5869,11.611,11.5407,11.3753,11.3522,11.2329,11.006,10.9329,10.7829,10.5328,10.0596,9.5374,8.9633,8.2346,0.0,0.0,0.0,0.0,0.0,0.0,0.0,0.0,0.0,6.7201,7.0293,0.0,7.4343,0.0,8.204,8.7079,9.0194,9.3608,0.0,0.0,9.4441,9.5326,9.8279,10.2548,10.6328,10.906,11.3253,11.6215,11.683,11.8177,11.8742,11.7681,11.785,11.825,11.8723,11.9453,12.0069,12.0287,12.0941,12.1429,12.0855,12.0343,12.0127,12.0972,12.1459,12.1767,12.1959,12.1959,12.1894,12.1728,12.1412,12.0272,11.8322,11.8089,11.7595,11.6028,11.6322,11.7226,11.7862,11.8006,11.7746,12.2408,12.1612,12.1612,11.9619,11.6631,11.8573,11.9927,12.0831,12.1254,12.0869,11.9677,11.6792,11.3368,10.9647,10.8675,10.9021,11.0406,11.1714,11.2791,11.3791,11.5561,11.6407,11.6446,11.683,11.633,11.5061,11.3407,11.1983,11.0791,11.0291,10.9598,10.8664,10.8944,10.8367,10.6944,10.5213,10.6597,11.1252,11.383,11.5368,11.5945,11.6303,11.5341,11.3022,11.3214,11.2291,10.9895,10.9675,10.8867,10.7136,10.2981,9.8442,9.3672,8.6585,7.9323,0.0,0.0,0.0,0.0,0.0,0.0,0.0,0.0,0.0,0.0,0.0,8.1003,8.3815,8.805,9.2332,9.652,10.0336,10.2904,10.3664,10.4405,10.5559,10.7328,11.0637,11.3445,11.5215,11.8484,12.0754,12.1139,12.1331,12.16,12.1908,12.1331,12.1139,12.1831,12.2139,12.2408,12.3189,12.337,12.3293,12.2985,12.2485,12.2293,12.2639,12.2716,12.2716,12.2716,12.2716,12.2716,12.2666,12.2313,12.1488,11.9851,11.9166,11.8668,11.8119,11.8315,11.8649,11.8152,11.8341,11.8304,12.2639,12.1804,12.187,12.1881,12.1766,12.187,12.237,12.3062,12.3166,12.3485,12.3755,12.0639,11.7984,11.5792,11.5522,11.5418,11.533,11.5907,11.6226,11.6369,11.7253,11.7677,11.7819,11.8677,11.8215,11.6457,11.4791,11.3214,11.1665,11.1549,11.1549,11.1703,11.3253,11.406,11.3984,10.9752,10.9444,11.3291,11.5561,11.6369,11.5792,11.6369,11.5099,11.2022,11.228,11.0972,10.7752,10.8213,10.7829,10.6087,10.301,9.9827,9.6519,9.0171,8.4132,0.0,7.6092,0.0,0.0,0.0,0.0,0.0,0.0,0.0,0.0,8.6017,8.8171,9.2172,9.4711,9.8182,10.3097,10.729,11.0367,11.1972,11.3637,11.4945,11.5753,11.8061,11.9831,12.0562,12.2793,12.4562,12.5024,12.4178,12.3678,12.3985,12.3062,12.2716,12.3832,12.3408,12.337,12.5024,12.4486,12.3485,12.2831,12.2678,12.287,12.3524,12.3524,12.3793,12.3601,12.3601,12.3678,12.3589,12.294,12.2138,12.1246,12.0167,11.9558,11.9479,11.9963,11.9979,11.8806,11.8979,11.8652,12.4024,12.2716,12.337,12.3255,12.2716,12.337,12.3716,12.3909,12.4639,12.4255,12.2985,12.0985,11.9446,11.8292,11.6869,11.5907,11.5253,11.4714,11.4868,11.5572,11.6369,11.7138,11.783,11.8677,11.8177,11.6446,11.4791,11.3483,11.2472,11.1829,11.1819,11.2522,11.3483,11.433,11.4984,0.0,0.0,0.0,11.733,11.783,11.8331,11.783,11.6292,11.3637,11.2368,0.0,10.6867,10.678,10.6097,10.4405,10.2404,0.0,0.0,0.0,0.0,0.0,0.0,0.0,0.0,0.0,0.0,0.0,9.5788,9.5778,9.4095,9.4672,9.6288,9.9125,10.1135,10.3982,10.8329,11.1945,11.4484,11.5484,11.71,11.8215,11.8484,12.0639,12.2254,12.2408,12.4024,12.5216,12.537,12.5678,12.5717,12.5178,12.487,12.4793,12.5063,12.387,12.3332,12.4101,12.3832,12.2908,12.1985,12.1947,12.2139,12.2062,12.2062,12.2139,12.2254,12.2216,12.2139,12.2177,12.1935,12.1604,12.0722,12.0693,12.0682,11.961,12.047,12.1358,12.1359,12.191,12.2067,12.4909,12.4139,12.4101,12.4101,0.0,12.4562,12.4986,12.537,12.537,12.4678,12.3408,12.2139,12.0446,11.8331,11.6215,11.4599,11.3368,11.206,11.2175,11.3483,11.5138,11.6599,11.7858,11.9562,11.9446,11.7715,11.5638,11.4176,11.333,11.2483,11.2511,11.333,11.4599,11.5445,11.588,11.633,11.6946,11.7792,11.7781,11.8023,11.8407,11.8023,11.6369,11.3483,11.2549,0.0,0.0,0.0,0.0,0.0,0.0,0.0,0.0,0.0,0.0,9.1287,9.0325,9.0248,9.1142,9.3864,9.7356,10.1597,10.5405,10.5982,10.2212,10.3433,10.5097,10.678,10.8521,11.0752,11.3637,11.5907,11.7677,11.8869,12.0216,12.11,12.1677,12.3062,12.4139,12.4216,12.5255,12.6024,12.6063,12.6371,12.6332,12.5563,12.5409,12.5447,12.5332,12.4716,12.4332,12.4678,12.4447,12.3832,12.3024,12.2831,12.2793,12.2831,12.2831,12.2831,12.2831,12.2831,12.2831,12.2831,12.2831,12.2639,12.232,12.2416,12.2524,12.2175,12.2328,12.2744,12.3206,12.296,12.2149,12.5524,12.537,12.4947,12.5024,12.5409,12.587,12.6486,12.7063,12.6217,0.0,0.0,12.3639,12.1639,11.86,11.6022,11.3984,11.2291,11.0598,11.0714,11.2483,11.4868,11.683,11.8561,12.0908,12.1139,11.9485,11.7253,11.5676,11.4676,11.3945,11.3984,11.4753,11.6061,11.6726,11.6792,11.76,11.81,11.8215,11.8254,11.8331,11.8484,11.8331,11.6753,11.3676,11.3137,11.1406,10.829,10.7982,10.7521,10.6664,10.5328,10.4251,10.3482,10.1366,9.9942,9.9519,9.8904,9.9327,10.1135,10.252,10.4702,10.7982,11.2445,11.3445,10.956,11.106,11.2599,11.3522,11.5022,11.6638,11.8331,11.9408,12.0523,12.1908,12.2793,12.3601,12.4255,12.5101,12.5563,12.5717,12.6217,12.6755,12.6871,12.7114,12.6794,12.6101,12.6178,12.587,12.5678,12.564,12.5486,12.5332,12.5178,12.4986,12.4293,12.3985,12.4101,12.3947,12.4024,12.4101,12.4101,12.4101,12.4101,12.3947,12.4101,12.4024,12.405,12.3875,12.4148,12.4635,12.4185,12.3682,12.3962,12.2992,12.1637,12.6101,12.5486,12.6832,12.6601,12.5563,12.7755,12.8717,12.8756,12.7909,12.6678,12.5216,12.5101,12.3985,12.2062,11.9523,11.7446,11.5715,11.406,11.4214,11.5869,11.7715,11.9446,12.11,12.2908,12.287,12.1254,12.01,11.8792,11.7407,11.7138,11.7176,11.7253,11.7523,11.7638,11.7677,11.8484,11.9254,11.9946,11.9946,12.0292,12.1023,12.0331,11.9023,11.7138,11.4945,11.256,10.9983,10.9175,10.8367,10.7559,10.729,10.7098,10.6944,10.5905,10.5905,10.7175,10.7175,10.8213,11.0521,11.0983,11.2252,11.4907,11.7753,11.8215,11.5572,11.4945,11.5407,11.6907,11.7984,11.9254,12.0908,12.237,12.3332,12.3716,12.4524,12.5101,12.5216,12.5947,12.6447,12.6447,12.6614,12.6986,12.7602,12.8332,12.8448,12.7832,12.764,12.8025,12.6755,12.6524,12.6178,12.5601,12.5409,12.5024,12.4486,12.4139,12.4255,12.4101,12.4216,12.4293,12.4332,12.4332,12.4332,12.4139,12.4293,12.4255,12.4216,12.4089,12.4284,12.4478,12.4249,12.3967,12.3495,12.2831,12.2311,12.7409,12.7525,12.8294,12.8179,12.7563,12.8717,12.9179,12.9179,12.8794,12.7678,12.614,12.5601,12.4216,12.2062,12.0023,11.8138,11.6407,11.4753,11.4907,11.6572,11.8292,11.9985,12.1651,12.3332,12.3716,12.287,12.16,12.06,11.9831,11.8985,11.8484,11.8484,11.8523,11.8484,11.8561,11.9331,12.0139,12.0946,12.0523,12.0716,12.1574,12.0754,11.9715,11.8523,11.6869,11.4868,11.2368,11.1868,11.1098,10.9829,10.9741,10.9741,10.9741,10.979,11.0367,11.1598,11.2099,11.3291,11.5319,11.5907,11.7061,11.9111,12.0331,12.0946,12.0677,11.9446,11.9254,12.0446,12.0946,12.1639,12.2831,12.3639,12.4293,12.4755,12.5178,12.5601,12.6063,12.6421,12.6678,12.6755,12.7101,12.7486,12.7859,12.9063,12.9333,12.8217,12.7986,12.7525,12.6794,12.6717,12.6575,12.619,12.6101,12.5947,12.5563,12.5524,12.5524,12.5486,12.5486,12.5524,12.5524,12.5486,12.5486,12.5486,12.5486,12.5524,12.5447,12.5524,12.5524,12.5447,12.5063,12.4562,12.3769,12.3059,12.2213,12.8397,12.9179,12.941,12.9602,12.9756,12.9563,12.9602,12.9717,12.9602,12.8679,12.7255,12.614,12.4486,12.2408,12.0869,11.9408,11.7869,11.6407,11.6522,11.8023,11.9523,12.1023,12.2485,12.3985,12.4601,12.4293,12.3062,12.2343,12.2024,12.0831,12.0023,11.9715,11.9677,11.9677,11.9677,12.0485,12.1216,12.1793,12.1216,12.11,12.1574,12.0946,12.0369,11.9946,11.8908,11.7523,11.583,11.5368,11.4561,11.3319,11.3214,11.3214,11.3242,11.3791,11.4522,11.5368,11.5869,11.6792,11.8215,11.9177,12.0292,12.1754,12.2062,12.2716,12.3793,12.2908,12.2447,12.3062,12.3293,12.3716,12.4255,12.4639,12.4986,12.5601,12.5678,12.5947,12.6563,12.6717,12.6794,12.6986,12.7525,12.8012,12.8589,12.9679,12.9833,12.8525,12.7332,12.6717,12.6717,12.6717,12.6717,12.6717,12.6717,12.664,12.6717,12.664,12.6601,12.6717,12.664,12.6563,12.6563,12.664,12.6678,12.6575,12.6601,12.6409,12.6409,12.6537,12.6575,12.6486,12.6063,12.5447,12.4551,12.3622,12.2294,12.8448,12.9256,13.0064,13.0794,13.1295,13.0641,13.0679,13.1218,13.0679,12.9871,12.8717,12.7294,12.5998,12.5024,12.3985,12.3062,12.2177,12.1331,12.137,12.2254,12.3216,12.4139,12.4986,12.5947,12.6063,12.5332,12.5024,12.4447,12.3793,12.3601,12.2793,12.1562,12.1381,12.1343,12.1408,12.2177,12.2678,12.2793,12.2716,12.2331,12.1651,12.1535,12.1831,12.2524,12.0946,12.0369,12.0573,11.9446,11.8561,11.8407,11.8292,11.8331,11.8331,11.8446,11.8831,11.9562,11.91,11.9177,12.0023,12.0869,12.1793,12.2716,12.3447,12.3947,12.4178,12.3985,12.387,12.4139,12.4716,12.5101,12.5293,12.5909,12.6332,12.6409,12.6537,12.6601,12.6729,12.6717,12.6986,12.7717,12.7974,12.8474,12.9794,13.0294,13.0025,12.9102,12.7602,12.6717,12.6717,12.6717,12.6717,12.6717,12.6717,12.6717,12.6717,12.6717,12.6717,12.6717,12.6717,12.6717,12.6717,12.6717,12.6717,12.6717,12.6717,12.6447,12.6024,12.6101,12.6652,12.6524,12.6371,12.6217,12.5409,12.4526,12.3227,12.964,13.0025,13.0871,13.141,13.1525,13.0294,13.0217,13.0833,12.9563,12.8756,12.8332,12.7178,12.6486,12.614,12.5794,12.5447,12.5101,12.4755,12.4793,12.514,12.5486,12.5832,12.6178,12.6537,12.6498,12.614,12.564,12.5216,12.4832,12.437,12.3255,12.192,12.2562,12.2562,12.1804,12.2947,12.337,12.2908,12.2908,12.2485,12.1754,12.21,12.2524,12.2831,12.2678,12.2447,12.2293,12.1677,12.1139,12.0639,12.0573,12.0562,12.06,12.1062,12.1485,12.1831,12.1985,12.2216,12.2524,12.287,12.3447,12.4332,12.4678,12.5063,12.5601,12.564,12.564,12.564,12.5486,12.5563,12.6101,12.6486,12.6717,12.6755,12.7101,12.7409,12.7409,12.7832,12.8332,12.8679,12.914,12.964,13.0217,13.0025,12.9602,12.9063,12.7755,12.6755,12.6717,12.6717,12.6717,12.6717,12.6717,12.6717,12.6717,12.6717,12.6717,12.6717,12.6717,12.6717,12.669,12.6717,12.6717,12.6678,12.6652,12.6332,12.5601,12.5601,12.5959,12.5986,12.5909,12.564,12.4793,12.4755,12.3863,13.0641,13.091,13.1448,13.1679,13.1564,13.041,13.0256,13.0641,12.9487,12.882,12.8563,12.7986,12.7602,12.7332,12.6921,12.6717,12.6717,12.6717,12.6717,12.6717,12.6717,12.6717,12.6717,12.6717,12.6717,12.6601,12.6063,12.5791,12.5735,12.4938,12.3899,12.3052,12.371,12.3636,12.2882,12.3909,12.4178,12.3678,12.3601,12.3178,12.2524,12.3139,12.3485,12.3332,12.3793,12.3909,12.3639,12.337,12.2947,12.2331,12.2293,12.2293,12.2331,12.287,12.3216,12.3255,12.3755,12.4216,12.4447,12.4447,12.4947,12.5947,12.6063,12.6447,12.7178,12.7371,12.7371,12.7332,12.6794,12.6717,12.6601,12.6717,12.6717,12.6767,12.7255,12.764,12.7859,12.8525,12.8948,12.9525,12.9987,13.0602,13.0602,12.9987,12.9217,12.9025,12.7794,12.6717,12.6717,12.6717,12.6717,12.6717,12.6717,12.6717,12.6717,12.6717,12.6717,12.6717,12.6717,12.6601,12.6537,12.6486,12.6447,12.6255,12.6344,12.5986,12.5101,12.4986,12.5255,12.5409,12.5524,12.5601,12.5293,12.5447,12.4947,13.0948,13.1615,13.1679,13.1692,13.1641,13.1525,13.1538,13.1461,13.1384,13.0999,13.0281,13.0178,12.9807,12.8934,12.7547,12.6767,12.6755,12.6832,12.6832,12.6794,12.6767,12.6717,12.6717,12.6717,12.6717,12.6717,12.6601,12.6656,12.6795,12.6073,12.561,12.5445,12.4767,12.4642,12.4971,12.5216,12.5332,12.5101,12.5101,12.4793,12.4139,12.4755,12.4793,12.4139,12.4139,12.4562,12.5063,12.4486,12.4062,12.4024,12.3985,12.3985,12.3985,12.4062,12.4178,12.4178,12.4216,12.4562,12.5332,12.5486,12.6101,12.7448,12.7705,12.8102,12.8717,12.8833,12.8833,12.8986,12.8756,12.8256,12.7101,12.6986,12.6909,12.6909,12.6871,12.7332,12.7948,12.832,12.8794,13.0025,13.0525,13.0871,13.1448,13.0217,12.941,12.8948,12.7755,12.6717,12.6717,12.6717,12.6717,12.6717,12.6717,12.6678,12.6678,12.6717,12.6717,12.6717,12.664,12.6447,12.614,12.5909,12.5909,12.5794,12.5717,12.5332,12.4524,12.437,12.4678,12.5101,12.6024,12.614,12.5409,12.6217,12.564,13.1658,13.1804,13.1842,13.1793,13.1653,13.1141,13.096,13.0957,13.0475,13.021,13.002,13.0048,12.9887,12.954,12.8972,12.8525,12.8319,12.8294,12.7986,12.7525,12.7448,12.7217,12.6729,12.6717,12.6717,12.6717,12.6729,12.6826,12.7037,12.6797,12.6421,12.5965,12.6001,12.5851,12.556,12.5947,12.5986,12.5447,12.5409,12.4986,12.4344,12.4947,12.5216,12.4986,12.5486,12.5921,12.6229,12.5909,12.5755,12.5755,12.5755,12.5755,12.5794,12.6255,12.6512,12.6601,12.7063,12.7486,12.7755,12.7832,12.8063,12.8602,12.8717,12.8871,12.914,12.9179,12.9179,12.9217,12.9217,12.8794,12.8525,12.8294,12.8294,12.8371,12.8794,12.9102,12.9563,12.9987,13.0602,13.1141,13.1256,13.141,13.1372,13.0718,12.9833,12.9217,12.8179,12.7294,12.6832,12.6717,12.6717,12.6717,12.669,12.6498,12.587,12.6409,12.6678,12.6717,12.6601,12.614,12.5794,12.6024,12.6063,12.5332,12.514,12.4755,12.4062,12.4062,12.4332,12.4639,12.5563,12.614,12.5216,12.5794,12.5101,13.2057,13.1975,13.1927,13.1867,13.1704,13.1127,13.0932,13.0985,13.0566,13.0458,13.0601,13.0698,13.0754,13.0715,13.0754,13.0583,13.0246,12.9704,12.893,12.8159,12.8121,12.7697,12.7003,12.6887,12.6887,12.691,12.6966,12.7124,12.73,12.7422,12.7112,12.6609,12.6984,12.6964,12.6624,12.7041,12.708,12.681,12.681,12.6552,12.6078,12.6502,12.681,12.6887,12.74,12.7346,12.678,12.6717,12.6717,12.6717,12.6717,12.6844,12.7101,12.7602,12.8051,12.832,12.8871,12.9179,12.9179,12.9179,12.9294,12.9602,12.964,12.9679,12.9948,13.0025,13.0025,13.0025,12.9987,12.9987,12.9987,13.0025,12.9794,12.9448,12.9717,13.0217,13.0487,13.091,13.1333,13.1564,13.1641,13.1679,13.1564,13.0679,12.991,12.9256,12.8256,12.7294,12.6832,12.6717,12.6717,12.6717,12.6717,12.6498,12.6178,12.6486,12.5947,12.5832,12.587,12.5563,12.5293,12.564,12.564,12.4947,12.4447,12.4101,12.3909,12.387,12.4024,12.4178,12.5293,12.6294,12.564,12.5178,12.4524,13.2098,13.2137,13.1937,13.1937,13.1913,13.1739,13.1826,13.195,13.2038,13.2102,13.2215,13.2528,13.2442,13.2597,13.2442,13.2543,13.2162,13.082,12.9673,12.887,12.8783,12.8319,12.7545,12.7584,12.7545,12.7555,12.7616,12.7765,12.8006,12.8052,12.7974,12.7867,12.7843,12.809,12.8561,12.8561,12.8938,12.9286,12.9402,12.9518,12.975,12.9479,12.9402,12.9518,12.9595,12.8765,12.6991,12.6893,12.7008,12.6907,12.6895,12.7152,12.7794,12.8089,12.8359,12.9102,12.9294,12.9294,12.9333,12.941,12.9833,13.0333,13.0525,13.0756,13.1256,13.141,13.1448,13.141,13.1448,13.1525,13.1487,13.1448,13.0948,12.9602,12.964,12.9948,13.041,13.0564,13.0833,13.1525,13.1679,13.1679,13.1333,13.0448,12.9487,12.8909,12.7909,12.6909,12.6755,12.6717,12.6717,12.6717,12.669,12.6537,12.6563,12.6563,12.5524,12.4716,12.4755,12.4601,12.4139,12.4216,12.4409,12.3909,12.3678,12.3332,12.2947,12.3024,12.3909,12.437,12.5563,12.6178,12.5447,12.4793,12.4447,13.2619,13.2584,13.249,13.2401,13.2319,13.2214,13.2291,13.2487,13.2611,13.2792,13.2981,13.3084,13.3125,13.3125,13.3125,13.3125,13.3036,13.2411,13.1614,13.0663,13.0506,13.004,12.9381,12.9264,12.9303,12.9335,12.9504,12.961,12.9676,12.9777,12.9816,12.9715,12.961,12.962,12.9699,12.9691,12.9885,13.0002,13.0079,13.0079,13.0079,13.0079,13.0079,13.0079,13.0079,12.9711,12.9172,12.8876,12.8735,12.8568,12.8552,12.8622,12.8845,12.9371,12.9794,13.0102,13.0641,13.091,13.091,13.0871,13.0987,13.1256,13.1333,13.141,13.1641,13.1756,13.1756,13.1718,13.1679,13.1679,13.1679,13.1679,13.141,13.0948,13.091,13.091,13.1141,13.1295,13.1448,13.1602,13.1679,13.1448,13.0987,13.0141,12.9487,12.8512,12.7794,12.7294,12.6832,12.6717,12.6717,12.6717,12.6652,12.6537,12.6409,12.6178,12.5447,12.4601,12.4332,12.3793,12.3293,12.3062,12.3178,12.3255,12.3024,12.2793,12.2331,12.2793,12.387,12.4601,12.5601,12.5447,12.4755,12.4447,12.4293,13.2928,13.2918,13.2799,13.2738,13.2643,13.2551,13.2651,13.2848,13.2988,13.316,13.3326,13.3403,13.3464,13.3464,13.3425,13.3464,13.3464,13.3425,13.3019,13.2263,13.1762,13.1218,13.0518,13.044,13.044,13.0459,13.0583,13.0676,13.0714,13.0797,13.0797,13.0705,13.0676,13.0739,13.0874,13.0946,13.1023,13.1296,13.1373,13.1335,13.1335,13.1335,13.1373,13.1373,13.1335,13.1335,13.1315,13.1113,13.0525,12.9759,12.9427,12.9419,12.9679,13.0179,13.0602,13.0987,13.1372,13.1641,13.1718,13.1949,13.2179,13.2218,13.2449,13.2679,13.2679,13.2679,13.2603,13.2269,13.2179,13.2025,13.1756,13.1679,13.1679,13.1679,13.1602,13.1679,13.1679,13.1679,13.1679,13.1641,13.141,13.1025,13.0641,12.9717,12.9217,12.8102,12.764,12.7371,12.6832,12.6717,12.6717,12.6717,12.669,12.6447,12.6063,12.5717,12.537,12.4755,12.4178,12.3332,12.2562,12.2562,12.2601,12.2947,12.2908,12.3216,12.2947,12.3832,12.4793,12.5332,12.564,12.5563,12.5255,12.4909,12.4639,13.3132,13.3122,13.2987,13.2959,13.2948,13.2811,13.2898,13.3093,13.3175,13.3365,13.3551,13.3624,13.3682,13.3686,13.3636,13.3676,13.3688,13.3641,13.3635,13.329,13.2684,13.187,13.1276,13.1237,13.1271,13.1193,13.1195,13.1199,13.135,13.1389,13.1159,13.1269,13.1316,13.1468,13.2051,13.2158,13.247,13.2976,13.3132,13.3132,13.3132,13.3171,13.3171,13.3171,13.3093,13.3132,13.3234,13.318,13.217,13.0244,12.9854,13.0006,13.0472,13.0601,13.0998,13.1563,13.1692,13.1795,13.191,13.2461,13.2962,13.3103,13.3641,13.4334,13.4064,13.3949,13.3641,13.2962,13.2885,13.2577,13.191,13.1833,13.1833,13.1795,13.1756,13.1679,13.1679,13.1679,13.1641,13.1448,13.0948,13.0371,13.0179,12.8909,12.8205,12.7717,12.7178,12.6871,12.6755,12.6717,12.6717,12.6717,12.6717,12.6601,12.6294,12.6217,12.5832,12.5101,12.4524,12.3755,12.2793,12.2678,12.2678,12.2985,12.3178,12.3485,12.387,12.4562,12.5063,12.537,12.564,12.5947,12.5794,12.5293,12.487,13.3463,13.346,13.3386,13.3368,13.3325,13.3245,13.3313,13.346,13.3482,13.3563,13.3676,13.3688,13.3693,13.3692,13.3692,13.3692,13.3693,13.3693,13.3692,13.3649,13.3473,13.3207,13.2958,13.2913,13.2896,13.2878,13.2761,13.2974,13.298,13.2821,13.286,13.298,13.2812,13.2962,13.3268,13.3222,13.3346,13.3541,13.3577,13.3574,13.3574,13.3574,13.358,13.358,13.3616,13.3925,13.4503,13.4925,13.4103,13.2144,13.1703,13.157,13.1801,13.171,13.1771,13.1905,13.1884,13.2064,13.2577,13.2923,13.3295,13.3872,13.4295,13.4334,13.4334,13.4334,13.3872,13.3218,13.3,13.2692,13.2025,13.2295,13.2603,13.2577,13.2141,13.1756,13.1679,13.1679,13.1487,13.091,13.0641,13.0025,12.9025,12.832,12.7678,12.7217,12.6909,12.6717,12.6717,12.6717,12.6717,12.6717,12.6717,12.6717,12.6678,12.6678,12.6332,12.5563,12.5063,12.4755,12.3985,12.3601,12.3678,12.3832,12.387,12.4101,12.4332,12.4755,12.5063,12.5601,12.5947,12.6332,12.5832,12.5332,12.5024,13.3682,13.3682,13.3633,13.3629,13.3628,13.3577,13.3587,13.368,13.3683,13.3692,13.3742,13.3743,13.3743,13.3743,13.3743,13.3743,13.3743,13.3743,13.3743,13.3743,13.3703,13.3652,13.3672,13.3704,13.3692,13.371,13.3707,13.3666,13.3666,13.3707,13.3707,13.3627,13.3707,13.3707,13.3624,13.3707,13.3707,13.3705,13.3707,13.3707,13.3707,13.3707,13.3705,13.3783,13.402,13.4639,13.5436,13.5778,13.5229,13.4143,13.3715,13.3544,13.3427,13.3272,13.3147,13.3051,13.287,13.3064,13.3449,13.3834,13.4257,13.4757,13.5065,13.5334,13.5411,13.5334,13.4988,13.4257,13.3757,13.3295,13.3026,13.3256,13.3295,13.3,13.2538,13.2102,13.1756,13.1679,13.1487,13.1064,13.0641,13.0025,12.8602,12.8128,12.7525,12.6948,12.6794,12.6717,12.6717,12.6717,12.6717,12.6717,12.6717,12.6717,12.6717,12.6717,12.6717,12.5986,12.5755,12.5447,12.4832,12.437,12.4447,12.4486,12.4601,12.4755,12.5101,12.5409,12.5794,12.6255,12.6575,12.6498,12.6063,12.5755,12.5409,13.3789,13.3789,13.3789,13.3789,13.3789,13.3789,13.3789,13.3789,13.3789,13.3789,13.3789,13.3789,13.3789,13.3789,13.3789,13.3789,13.3789,13.3789,13.3789,13.3789,13.3789,13.3745,13.368,13.3716,13.3702,13.368,13.3712,13.371,13.3707,13.3707,13.3707,13.3707,13.3707,13.3707,13.3707,13.3707,13.3746,13.3902,13.3981,13.4137,13.4215,13.4254,13.4293,13.4371,13.5074,13.5649,13.6214,13.644,13.6277,13.5974,13.5587,13.5154,13.5042,13.4929,13.472,13.4505,13.427,13.4255,13.4564,13.5114,13.5577,13.5834,13.6437,13.6835,13.6681,13.6604,13.6219,13.5309,13.4847,13.4411,13.4257,13.4295,13.3795,13.3256,13.3038,13.2461,13.191,13.1679,13.1679,13.1564,13.0871,13.0141,12.9217,12.8409,12.7602,12.6871,12.6717,12.6717,12.6717,12.6717,12.6717,12.6717,12.6717,12.6717,12.6717,12.6717,12.6717,12.6486,12.6409,12.6101,12.537,12.5024,12.5101,12.5216,12.5447,12.5755,12.614,12.6447,12.6563,12.6601,12.6652,12.669,12.6601,12.6409,12.6101,13.3789,13.3789,13.3789,13.3789,13.3789,13.3789,13.3789,13.375,13.3789,13.375,13.3789,13.3789,13.3789,13.3789,13.3789,13.3789,13.3789,13.3789,13.3789,13.3789,13.3789,13.375,13.3701,13.3699,13.3688,13.3704,13.3696,13.3687,13.3712,13.3707,13.3707,13.3707,13.3707,13.3707,13.3707,13.3707,13.4059,13.4566,13.4683,13.4956,13.5425,13.5503,13.5542,13.5659,13.6401,13.6945,13.7291,13.7871,13.8165,13.7763,13.6742,13.5911,13.5728,13.5573,13.5478,13.5326,13.5078,13.5172,13.5675,13.6022,13.637,13.695,13.7132,13.7292,13.7189,13.7083,13.6613,13.5859,13.5398,13.5141,13.4988,13.3949,13.368,13.3564,13.2833,13.2025,13.1756,13.1679,13.1448,13.0987,13.0679,12.9948,12.8525,12.8409,12.7717,12.6948,12.6794,12.6755,12.6832,12.6909,12.6871,12.6948,12.6717,12.6717,12.6717,12.6717,12.6717,12.6717,12.6717,12.6678,12.5947,12.5717,12.5832,12.6063,12.6383,12.6652,12.6717,12.6717,12.664,12.6678,12.664,12.6524,12.6447,12.6563,12.6332,13.3789,13.375,13.3359,13.3203,13.3125,13.2773,13.2812,13.3125,13.3203,13.3437,13.375,13.3789,13.3789,13.3789,13.3789,13.3789,13.3789,13.3789,13.3789,13.3789,13.3789,13.3789,13.3749,13.3747,13.374,13.3711,13.3704,13.3692,13.3712,13.3707,13.3707,13.3707,13.3746,13.3707,13.3707,13.3746,13.4176,13.48,13.5035,13.5386,13.6089,13.6206,13.6479,13.6752,13.7299,13.765,13.8119,13.8509,13.8743,13.8534,13.782,13.7227,13.7165,13.7241,13.7298,13.7182,13.7008,13.7018,13.7435,13.7202,13.7154,13.7581,13.7658,13.7563,13.7433,13.7286,13.698,13.6379,13.586,13.5372,13.4988,13.4795,13.4257,13.3487,13.291,13.2179,13.1795,13.1679,13.1564,13.1141,13.1102,13.0448,12.964,12.8986,12.8602,12.8179,12.8063,12.8025,12.7871,12.7909,12.7486,12.7332,12.6909,12.6729,12.6717,12.6717,12.6717,12.6717,12.6717,12.6717,12.6409,12.6447,12.6601,12.669,12.6652,12.669,12.6717,12.6717,12.669,12.6614,12.6498,12.6255,12.5947,12.5601,12.5332,13.3789,13.3711,13.2851,13.25,13.2343,13.164,13.1797,13.2461,13.25,13.3047,13.3672,13.3789,13.3789,13.3789,13.3789,13.3789,13.3789,13.3789,13.3789,13.3789,13.3789,13.3789,13.3789,13.3789,13.3902,13.3833,13.3755,13.3706,13.3729,13.3837,13.4075,13.399,13.4144,13.4376,13.4217,13.4176,13.4722,13.5542,13.5659,13.605,13.6674,13.6791,13.7143,13.7572,13.8041,13.8392,13.8938,13.9253,13.9331,13.9175,13.9173,13.9147,13.9168,13.9275,13.9609,13.9369,13.9002,13.8859,13.8735,13.8339,13.7865,13.7904,13.7911,13.7865,13.7746,13.7563,13.7353,13.6965,13.6432,13.5642,13.4834,13.4949,13.468,13.3872,13.3385,13.2808,13.2154,13.1872,13.1872,13.1641,13.1448,13.0948,13.0525,13.0025,12.9756,12.9487,12.9333,12.9179,12.9025,12.8717,12.8256,12.7948,12.764,12.7294,12.7255,12.6755,12.6755,12.6755,12.6755,12.6717,12.6717,12.6717,12.6717,12.6717,12.6678,12.6717,12.6717,12.6717,12.6652,12.6537,12.6152,12.5755,12.5178,12.4601,12.4409,13.3789,13.3711,13.2851,13.25,13.2343,13.1562,13.1562,13.2422,13.2383,13.3008,13.3672,13.375,13.3672,13.375,13.3789,13.3789,13.375,13.3789,13.3789,13.3789,13.3789,13.3789,13.3789,13.3945,13.4179,13.4447,13.4247,13.3928,13.4074,13.4386,13.4764,13.4951,13.5416,13.5681,13.5584,13.5813,13.5971,13.6596,13.6791,13.726,13.7884,13.8119,13.8158,13.8512,13.9016,13.9524,13.9914,14.0539,14.0971,14.0971,14.0971,14.0885,14.0666,14.0256,14.0039,13.9983,13.9843,13.9804,13.9681,13.8863,13.8468,13.839,13.8351,13.8292,13.8161,13.7951,13.7731,13.7382,13.7038,13.654,13.6386,13.5795,13.5449,13.4911,13.4295,13.3641,13.2962,13.2654,13.2333,13.1833,13.1641,13.1487,13.1064,13.0718,13.041,13.0102,12.991,12.9794,12.9679,12.9294,12.8833,12.864,12.8525,12.8179,12.7909,12.7217,12.6832,12.6871,12.6832,12.6717,12.6717,12.6717,12.6717,12.6717,12.6717,12.6717,12.6717,12.6678,12.6332,12.5986,12.5563,12.5101,12.4447,12.387,12.3832,13.2461,13.2383,13.1523,13.1133,13.0976,13.0234,13.0351,13.1093,13.1172,13.164,13.2265,13.2461,13.2734,13.3008,13.3125,13.3359,13.3711,13.3789,13.3789,13.3789,13.3789,13.3789,13.3867,13.414,13.4609,13.496,13.4959,13.4995,13.5099,13.5448,13.5677,13.574,13.6127,13.6271,13.6211,13.6167,13.6713,13.734,13.7575,13.7926,13.8707,13.8824,13.8824,13.9058,13.9641,14.0071,14.0266,14.0929,14.1359,14.1359,14.1359,14.1398,14.139,14.1453,14.1343,14.1243,14.0834,14.0592,14.0358,13.9504,13.868,13.8641,13.8638,13.86,13.8466,13.8247,13.7959,13.7544,13.7214,13.6756,13.6091,13.5783,13.5372,13.4911,13.4564,13.4,13.3346,13.3115,13.2641,13.2064,13.1795,13.1641,13.1448,13.1141,13.091,13.0718,13.0487,13.0371,13.0333,12.9987,12.9602,12.9448,12.9294,12.8833,12.8448,12.7755,12.714,12.7101,12.6871,12.6755,12.6717,12.6717,12.6717,12.6717,12.6717,12.6717,12.6537,12.6421,12.5909,12.5409,12.4716,12.4101,12.3601,12.3216,12.3255,13.1211,13.1133,13.0273,12.9883,12.9765,12.8984,12.914,12.9765,12.9961,13.0508,13.1133,13.1289,13.1758,13.2383,13.2812,13.3203,13.3789,13.3789,13.3789,13.3789,13.3789,13.3789,13.3984,13.4375,13.4883,13.5468,13.5781,13.6289,13.6125,13.6435,13.6544,13.6654,13.6686,13.6793,13.6893,13.705,13.7275,13.7548,13.7785,13.8173,13.8636,13.8983,13.9058,13.9214,14.0071,14.0734,14.0929,14.1671,14.2101,14.2101,14.2062,14.1986,14.2062,14.2608,14.2959,14.2803,14.1983,14.1515,14.0966,13.9753,13.8766,13.8763,13.8777,13.8748,13.8599,13.8373,13.8071,13.7553,13.7308,13.7019,13.6367,13.5962,13.5654,13.527,13.5026,13.4603,13.4039,13.368,13.341,13.2833,13.2218,13.1833,13.1641,13.1487,13.1295,13.1256,13.1064,13.1102,13.1025,13.0871,13.0564,13.0333,13.0025,12.9525,12.8986,12.832,12.7832,12.7589,12.7101,12.6717,12.6717,12.6717,12.6717,12.6729,12.6717,12.6678,12.6421,12.619,12.5947,12.5293,12.4024,12.3447,12.3524,12.3178,12.2947,13.1211,13.1133,13.0234,12.9883,12.9726,12.8945,12.9062,12.9804,12.9804,13.039,13.0976,13.1172,13.1523,13.2422,13.3281,13.3632,13.3789,13.3789,13.3789,13.3789,13.3789,13.3789,13.3789,13.3828,13.4883,13.5703,13.6172,13.6289,13.6562,13.7148,13.7458,13.757,13.8035,13.8501,13.8172,13.8168,13.8646,13.8684,13.8682,13.8713,13.8893,13.9498,13.9839,14.0266,14.1281,14.2179,14.2179,14.2842,14.3389,14.3506,14.3584,14.3623,14.3701,14.374,14.3857,14.3389,14.2491,14.1398,14.1125,13.98,13.8785,13.8785,13.8785,13.8805,13.8714,13.8516,13.8267,13.799,13.78,13.7524,13.7125,13.7071,13.6942,13.6647,13.6241,13.5809,13.518,13.4487,13.418,13.368,13.3103,13.241,13.1949,13.1795,13.1641,13.1679,13.1679,13.1718,13.1679,13.1487,13.1295,13.1025,13.0718,13.0256,12.9717,12.9025,12.8436,12.8089,12.7332,12.6755,12.6755,12.6767,12.6767,12.6767,12.6767,12.6717,12.6563,12.6332,12.6101,12.5293,12.4139,12.3909,12.4024,12.3485,12.2831,12.9726,12.9687,12.9297,12.914,12.9101,12.875,12.8789,12.9101,12.914,12.9375,12.9687,12.9726,13.0468,13.1836,13.3125,13.3789,13.3789,13.3789,13.3789,13.3789,13.3789,13.3789,13.3906,13.4257,13.5078,13.5586,13.6484,13.7109,13.7304,13.7773,13.8319,13.8355,13.8666,13.8818,13.8889,13.8886,13.8885,13.8843,13.8837,13.8829,13.9013,13.9578,14.011,14.0188,14.1827,14.2569,14.292,14.3506,14.3974,14.3974,14.3974,14.3974,14.3974,14.3935,14.3818,14.3155,14.2101,14.1437,14.1164,13.9722,13.9019,13.8785,13.8785,13.8816,13.8744,13.8625,13.8412,13.8183,13.804,13.788,13.7692,13.7534,13.7054,13.6856,13.7019,13.6215,13.5642,13.5552,13.5065,13.4526,13.3987,13.3346,13.2654,13.2218,13.2179,13.2295,13.2218,13.2141,13.2064,13.1872,13.1718,13.1564,13.1295,13.0948,13.0448,12.9871,12.9063,12.8486,12.7294,12.6883,12.6883,12.6883,12.7025,12.7101,12.7217,12.7063,12.6794,12.6294,12.587,12.514,12.4293,12.4293,12.4255,12.3639,12.3178,12.8593,12.8593,12.8593,12.8593,12.8593,12.8593,12.8593,12.8633,12.8633,12.8633,12.875,12.914,13.0117,13.1367,13.2929,13.3789,13.3789,13.3789,13.3789,13.3789,13.3789,13.3789,13.3945,13.4414,13.4726,13.5,13.6015,13.6914,13.7617,13.8125,13.8476,13.8864,13.8826,13.8901,13.8897,13.8896,13.8897,13.8896,13.8881,13.8832,13.8981,13.9659,14.0154,14.0812,14.1788,14.2803,14.3077,14.3272,14.3584,14.3584,14.3272,14.3116,14.3116,14.3037,14.2881,14.2296,14.1437,14.0968,14.0578,13.9722,13.898,13.8785,13.8785,13.8782,13.8813,13.8689,13.8586,13.8365,13.8318,13.8163,13.8001,13.7849,13.7486,13.7224,13.709,13.6181,13.5572,13.5868,13.5999,13.5692,13.5128,13.4488,13.3757,13.2962,13.2718,13.2872,13.2756,13.2603,13.2333,13.2141,13.1872,13.1679,13.1564,13.1333,13.1025,13.0487,12.9756,12.8833,12.764,12.714,12.7255,12.7448,12.764,12.7717,12.7717,12.7525,12.7294,12.6486,12.5717,12.5486,12.5178,12.4755,12.4409,12.387,12.3947,12.8593,12.8593,12.8593,12.8593,12.8593,12.8593,12.8593,12.8593,12.8593,12.8593,12.8828,13.0156,13.0898,13.1601,13.2851,13.3789,13.3789,13.3789,13.3789,13.3789,13.3789,13.3789,13.3906,13.4023,13.4297,13.4804,13.5468,13.6328,13.7187,13.7461,13.8125,13.8789,13.8789,13.8867,13.8906,13.8906,13.8906,13.8906,13.8893,13.8882,13.9106,13.967,14.0383,14.1203,14.2101,14.3037,14.374,14.3233,14.2803,14.2803,14.2296,14.1983,14.2062,14.2022,14.1866,14.1593,14.1086,14.0695,14.0305,13.9602,13.8941,13.8785,13.8785,13.8785,13.8782,13.8793,13.8711,13.8595,13.8544,13.8497,13.8413,13.8273,13.7938,13.7546,13.7292,13.705,13.6636,13.6746,13.6872,13.6733,13.6227,13.5449,13.5065,13.4308,13.3718,13.3834,13.3526,13.3333,13.2449,13.2141,13.1872,13.1679,13.1679,13.1564,13.1448,13.0794,12.991,12.9063,12.8063,12.7794,12.7832,12.8012,12.8282,12.8359,12.8409,12.8089,12.7666,12.6832,12.6294,12.6332,12.6024,12.5293,12.5332,12.5332,12.5524,12.8593,12.8593,12.8593,12.8593,12.8593,12.8593,12.8593,12.8593,12.8593,12.8593,12.875,13.0351,13.1211,13.1718,13.2929,13.3789,13.3789,13.3789,13.3789,13.3789,13.3789,13.3789,13.3789,13.3828,13.3984,13.4336,13.4726,13.5156,13.5859,13.6523,13.6914,13.7461,13.832,13.8789,13.8906,13.8789,13.8867,13.8906,13.8898,13.8886,13.9074,13.9631,14.0266,14.0617,14.2101,14.2413,14.2452,14.2647,14.2335,14.1944,14.1515,14.132,14.1203,14.1242,14.1281,14.132,14.089,14.0812,14.0539,13.968,13.8824,13.8785,13.8785,13.8785,13.8785,13.881,13.8763,13.8744,13.8731,13.87,13.8657,13.8505,13.8251,13.7779,13.7549,13.7522,13.746,13.7427,13.735,13.7071,13.6771,13.6267,13.595,13.568,13.518,13.4795,13.4411,13.3872,13.291,13.2102,13.1833,13.1679,13.1679,13.1679,13.1564,13.0833,13.0025,12.9294,12.8525,12.8486,12.8486,12.8679,12.8909,12.8986,12.8948,12.8563,12.7986,12.7217,12.6806,12.6614,12.614,12.5486,12.5832,12.6421,12.6614,12.8593,12.8593,12.8593,12.8593,12.8593,12.8593,12.8593,12.8593,12.8593,12.8789,12.9101,13.0781,13.1601,13.2031,13.3047,13.3789,13.3789,13.3789,13.3789,13.3789,13.3789,13.3789,13.3789,13.3828,13.3828,13.3945,13.4257,13.4726,13.5195,13.5664,13.6132,13.6797,13.7656,13.8203,13.8086,13.8437,13.8632,13.8828,13.8901,13.8891,13.9004,13.9368,13.9927,14.012,14.1286,14.171,14.1593,14.1671,14.1476,14.1086,14.0734,14.0581,14.0581,14.0656,14.0773,14.0929,14.1047,14.1125,14.0929,14.0188,13.9097,13.8863,13.8785,13.8785,13.8785,13.8785,13.8777,13.878,13.878,13.8785,13.878,13.8629,13.8417,13.8018,13.8008,13.7965,13.7653,13.7558,13.7495,13.735,13.7037,13.674,13.654,13.6219,13.5719,13.5026,13.4026,13.3564,13.291,13.2218,13.1756,13.1679,13.1679,13.1679,13.1641,13.091,13.0256,12.9948,12.9333,12.9217,12.9217,12.941,12.9756,13.0141,12.9871,12.9102,12.8409,12.7794,12.7255,12.6729,12.6294,12.587,12.6063,12.6575,12.6652,12.8593,12.8593,12.8593,12.8593,12.8593,12.8593,12.8593,12.8633,12.8711,12.9101,12.9922,13.1562,13.2343,13.2578,13.3398,13.375,13.3789,13.3789,13.3789,13.3789,13.3789,13.3789,13.3789,13.3789,13.3789,13.3789,13.3984,13.4375,13.4883,13.4961,13.5429,13.6054,13.6757,13.7382,13.6562,13.7265,13.8086,13.875,13.8867,13.89,13.8934,13.8992,13.9364,13.9824,14.0354,14.0773,14.0773,14.0734,14.05,14.0149,13.9566,13.9331,13.9292,13.9253,13.9605,14.0344,14.0344,14.0695,14.1203,14.0461,13.9758,13.8977,13.8785,13.8785,13.8785,13.8785,13.8785,13.8785,13.8785,13.8785,13.8763,13.8725,13.8483,13.8344,13.8304,13.8161,13.785,13.7638,13.7563,13.7431,13.7269,13.7073,13.6899,13.6603,13.6103,13.5257,13.3923,13.3154,13.2692,13.2256,13.1756,13.1679,13.1679,13.1679,13.1564,13.1025,13.0525,13.0294,13.0102,12.9948,12.9948,13.0141,13.0602,13.1141,13.041,12.9217,12.8833,12.8486,12.8025,12.7525,12.6871,12.6524,12.6614,12.6652,12.669,12.8593,12.8593,12.8593,12.8593,12.8593,12.8593,12.8593,12.8711,12.9179,12.9648,13.0234,13.1718,13.25,13.2773,13.332,13.3789,13.3789,13.3789,13.3789,13.3789,13.3789,13.3789,13.3789,13.3789,13.3789,13.3789,13.3828,13.3906,13.414,13.4297,13.4336,13.4804,13.5937,13.6718,13.7695,13.8398,13.8711,13.8867,13.8904,13.8901,13.886,13.8803,13.886,13.9251,13.9698,13.9917,13.9917,13.9839,13.9797,13.9407,13.8863,13.8824,13.8785,13.8785,13.9488,14.05,14.0929,14.1047,14.132,14.0929,14.0268,13.937,13.8785,13.8785,13.8824,13.8785,13.8785,13.8824,13.8824,13.8824,13.8774,13.8679,13.8483,13.8305,13.8226,13.8083,13.785,13.7677,13.7563,13.7382,13.7231,13.7023,13.6848,13.6578,13.6142,13.5565,13.4334,13.3077,13.241,13.2102,13.1679,13.1679,13.1679,13.1679,13.1525,13.1179,13.1102,13.0987,13.0794,13.0602,13.0679,13.0794,13.0987,13.1372,13.0333,12.9333,12.9294,12.9217,12.8871,12.8371,12.7717,12.714,12.7063,12.6909,12.669,12.832,12.8593,12.8593,12.8593,12.8593,12.8593,12.8593,12.8828,12.9804,13.0351,13.0742,13.2187,13.2968,13.3164,13.3476,13.3789,13.3789,13.3789,13.3789,13.3789,13.3789,13.3789,13.3789,13.3789,13.3789,13.3789,13.3789,13.3828,13.3867,13.3828,13.4297,13.4922,13.5195,13.6836,13.8007,13.8359,13.8007,13.8086,13.8085,13.7811,13.7808,13.7877,13.8021,13.8404,13.878,13.9071,13.9029,13.918,13.9407,13.8941,13.8785,13.8785,13.8785,13.8977,13.9563,14.05,14.1242,14.1164,14.0968,14.0851,13.9992,13.898,13.8824,13.898,13.9058,13.9019,13.9136,13.9097,13.898,13.8824,13.8774,13.8679,13.8491,13.8301,13.8085,13.792,13.7728,13.7563,13.7433,13.727,13.7123,13.6961,13.6822,13.645,13.6103,13.5449,13.4757,13.3564,13.2372,13.1949,13.1718,13.1679,13.1679,13.1679,13.1679,13.1602,13.1564,13.1679,13.141,13.1102,13.1218,13.1295,13.141,13.141,13.0602,13.0025,13.0064,12.991,12.9487,12.9063,12.8602,12.8063,12.7602,12.7448,12.7332,12.7812,12.8554,12.8593,12.8593,12.8593,12.8593,12.8593,12.875,13.0351,13.1054,13.1211,13.2773,13.3398,13.3593,13.375,13.3789,13.3789,13.3789,13.3789,13.3789,13.3789,13.3789,13.3789,13.3789,13.3789,13.3789,13.3789,13.3789,13.3789,13.3789,13.457,13.5586,13.5703,13.6875,13.7461,13.7304,13.707,13.7422,13.7187,13.6914,13.6875,13.6675,13.7178,13.7602,13.7976,13.8349,13.8575,13.8915,13.8905,13.8785,13.8785,13.8782,13.8782,13.8782,13.9326,14.0021,14.0913,14.0786,14.0393,14.027,13.9765,13.8897,13.8757,13.924,13.9602,13.9524,13.9641,13.9563,13.9446,13.9058,13.8816,13.8638,13.8422,13.8202,13.7959,13.7752,13.749,13.7347,13.7208,13.7107,13.7049,13.6938,13.6835,13.6526,13.6257,13.5872,13.5218,13.4295,13.3103,13.1987,13.1756,13.1679,13.1679,13.1679,13.1679,13.1679,13.1679,13.1679,13.1679,13.1487,13.1641,13.1641,13.1602,13.1448,13.0987,13.0641,13.041,13.0217,13.0025,12.9679,12.9602,12.9063,12.8602,12.8602,12.8563,12.7812,12.8593,12.8593,12.8593,12.8593,12.8593,12.8593,12.8789,12.9804,13.0273,13.039,13.2109,13.2929,13.2929,13.3515,13.375,13.3789,13.3789,13.3789,13.3789,13.3789,13.3789,13.3789,13.3789,13.3789,13.3789,13.3789,13.3789,13.3789,13.3789,13.4257,13.5156,13.5508,13.625,13.6406,13.5976,13.6562,13.6836,13.6484,13.6172,13.6093,13.6093,13.6676,13.7218,13.7437,13.793,13.8587,13.8802,13.8793,13.8787,13.8785,13.8816,13.8787,13.8764,13.9012,13.9835,14.0489,14.0762,14.0064,13.9869,13.9479,13.8778,13.8622,13.9175,13.9801,14.0171,14.0171,14.0048,13.9651,13.9219,13.8799,13.8544,13.8289,13.8011,13.7767,13.7511,13.7274,13.7097,13.7,13.6975,13.6912,13.69,13.6809,13.6757,13.6488,13.6219,13.5642,13.4757,13.3795,13.2641,13.1833,13.1718,13.1679,13.1679,13.1679,13.1679,13.1679,13.1679,13.1679,13.1679,13.1679,13.1679,13.1679,13.1525,13.1256,13.0871,13.0525,13.0487,13.0641,13.0987,13.0948,13.0217,12.9679,12.964,12.9563,12.6992,12.8047,12.8086,12.8281,12.8593,12.8593,12.8593,12.875,12.9531,12.9883,13.0117,13.1758,13.25,13.2695,13.3398,13.3789,13.3789,13.3789,13.3789,13.3789,13.3789,13.3789,13.3789,13.3789,13.3789,13.3789,13.3789,13.3789,13.3789,13.3867,13.4218,13.4961,13.5,13.5547,13.5859,13.5664,13.5625,13.5859,13.5781,13.5468,13.539,13.5468,13.6015,13.6871,13.7092,13.7749,13.8682,13.8821,13.8852,13.8811,13.8809,13.878,13.8725,13.8566,13.8396,13.9038,13.924,13.9318,13.8968,13.8929,13.8656,13.85,13.85,13.9041,13.9383,13.967,14.006,14.028,13.9742,13.9231,13.8825,13.8471,13.8124,13.7761,13.7495,13.7258,13.7049,13.6861,13.6809,13.6822,13.6809,13.6809,13.6796,13.6796,13.6719,13.6449,13.5911,13.5065,13.4141,13.3141,13.2256,13.1795,13.1718,13.1679,13.1679,13.1679,13.1679,13.1679,13.1679,13.1679,13.1679,13.1679,13.1679,13.1679,13.1641,13.1295,13.0948,13.1218,13.1448,13.1679,13.1679,13.1102,13.0641,13.0641,13.0525,12.582,12.7343,12.7383,12.7929,12.8554,12.8593,12.8593,12.8672,12.9414,12.9765,13.0078,13.1523,13.2109,13.2109,13.2968,13.3476,13.3593,13.3672,13.3789,13.3789,13.3789,13.3789,13.3789,13.3789,13.3789,13.3789,13.3789,13.3789,13.3789,13.3867,13.414,13.4883,13.4804,13.5078,13.5429,13.5039,13.4883,13.4922,13.4648,13.4218,13.4062,13.4101,13.457,13.6054,13.6599,13.7102,13.839,13.8893,13.8885,13.8879,13.8825,13.879,13.8531,13.8273,13.8108,13.7974,13.8152,13.8144,13.8105,13.8066,13.8027,13.8105,13.8501,13.8797,13.9037,13.9538,14.0043,13.9982,13.9476,13.8891,13.8484,13.8208,13.7935,13.7919,13.7835,13.7605,13.7374,13.7117,13.6796,13.6796,13.6796,13.6796,13.6796,13.6796,13.6796,13.6603,13.6296,13.5488,13.4487,13.3564,13.2756,13.1987,13.1756,13.1718,13.1679,13.1679,13.1679,13.1679,13.1679,13.1679,13.1679,13.1679,13.1679,13.1679,13.1679,13.1679,13.1564,13.1679,13.1679,13.1679,13.1679,13.1679,13.1564,13.1372,13.1256,12.5781,12.7343,12.8008,12.8398,12.8593,12.8593,12.8593,12.8633,12.8789,12.8945,12.914,13.0,13.0625,13.0937,13.2343,13.2929,13.3008,13.3554,13.375,13.3789,13.3789,13.3789,13.3789,13.3789,13.3789,13.3789,13.3789,13.3789,13.3789,13.3828,13.3828,13.4101,13.414,13.4453,13.4609,13.4218,13.4218,13.4218,13.4023,13.3789,13.3789,13.4023,13.4531,13.5742,13.6482,13.7222,13.8313,13.8894,13.8881,13.8827,13.8807,13.8614,13.8247,13.7982,13.7779,13.7641,13.7553,13.7514,13.7514,13.7514,13.7514,13.7553,13.7872,13.826,13.8782,13.9489,13.9729,13.9464,13.9122,13.8577,13.8183,13.7986,13.7889,13.8045,13.8225,13.8023,13.7758,13.7347,13.6911,13.6796,13.6796,13.6796,13.6796,13.6796,13.6796,13.6796,13.6719,13.6103,13.4949,13.3987,13.3218,13.2487,13.1872,13.1756,13.1718,13.1833,13.1872,13.1756,13.1679,13.1679,13.1679,13.1679,13.1679,13.1679,13.1679,13.1756,13.1795,13.1718,13.1718,13.1679,13.1679,13.1679,13.1679,13.1564,13.1602,12.5,12.6289,12.7539,12.8047,12.8086,12.8437,12.8593,12.8593,12.8593,12.8593,12.875,12.9453,12.9883,13.0156,13.1718,13.2422,13.2578,13.3437,13.3711,13.3789,13.3789,13.3789,13.3789,13.3789,13.3789,13.3789,13.3789,13.3789,13.3789,13.3789,13.3789,13.3789,13.3789,13.3789,13.3789,13.3789,13.3789,13.3828,13.3789,13.3789,13.3789,13.3945,13.4648,13.5781,13.6562,13.7343,13.8279,13.8901,13.8896,13.8782,13.8727,13.8312,13.7943,13.7669,13.7438,13.7258,13.7166,13.7166,13.7216,13.7239,13.7201,13.7251,13.7216,13.7614,13.7602,13.8222,13.8715,13.8551,13.8402,13.7868,13.7996,13.7882,13.8109,13.8291,13.8582,13.867,13.8246,13.7732,13.7219,13.6796,13.6796,13.6796,13.6796,13.6796,13.6796,13.6796,13.6796,13.6411,13.5334,13.4487,13.3718,13.3141,13.2641,13.1987,13.1718,13.1961,13.2231,13.2038,13.1679,13.1679,13.1679,13.1718,13.1718,13.1872,13.1949,13.2,13.2,13.1833,13.1718,13.1679,13.1679,13.1679,13.1679,13.1679,13.1679,12.4023,12.4961,12.6601,12.7304,12.7422,12.8242,12.8593,12.8593,12.8593,12.8593,12.8672,12.9375,12.9687,13.0312,13.1289,13.1836,13.2422,13.3008,13.3398,13.3593,13.375,13.3789,13.3789,13.3789,13.3789,13.3789,13.3789,13.3789,13.3789,13.3789,13.3789,13.3789,13.3789,13.3789,13.3789,13.3789,13.3789,13.3789,13.3789,13.3789,13.3789,13.3867,13.4843,13.5703,13.6445,13.7226,13.832,13.8906,13.8904,13.8735,13.8547,13.8085,13.7737,13.748,13.7258,13.7073,13.6962,13.6937,13.6925,13.6899,13.6912,13.6874,13.6809,13.686,13.6899,13.7168,13.7697,13.7725,13.7563,13.7673,13.7794,13.7982,13.8281,13.8843,13.9158,13.9248,13.8708,13.8117,13.7488,13.695,13.6796,13.6796,13.6796,13.6796,13.6796,13.6796,13.6603,13.618,13.568,13.5065,13.4372,13.4026,13.3757,13.3026,13.2179,13.2231,13.2615,13.2,13.1679,13.1679,13.1679,13.1679,13.1872,13.2218,13.2307,13.2115,13.2064,13.1949,13.1833,13.1795,13.1679,13.1679,13.1679,13.1679,13.1679,12.3937,12.484,12.6598,12.7264,12.7422,12.8242,12.8593,12.8593,12.8593,12.8593,12.8633,12.8672,12.8828,12.8906,12.9883,13.0547,13.1054,13.2148,13.2695,13.2773,13.3515,13.375,13.3789,13.3789,13.3789,13.3789,13.3789,13.3789,13.3789,13.3789,13.3789,13.3789,13.3789,13.3789,13.3789,13.3789,13.3789,13.3789,13.3789,13.3789,13.3789,13.4062,13.4804,13.5586,13.6328,13.7422,13.8396,13.8824,13.8801,13.8624,13.8335,13.7951,13.764,13.7424,13.7251,13.7124,13.7001,13.6963,13.6938,13.69,13.69,13.6925,13.6912,13.6887,13.69,13.6912,13.7194,13.7156,13.7179,13.7525,13.7693,13.8079,13.8453,13.9556,14.0248,13.9734,13.9194,13.8411,13.768,13.718,13.6796,13.6796,13.6796,13.6796,13.6796,13.6796,13.6796,13.6372,13.5911,13.5449,13.4988,13.4872,13.4718,13.3949,13.3077,13.2833,13.2872,13.2218,13.1679,13.1679,13.1679,13.1679,13.191,13.2372,13.2218,13.191,13.191,13.2372,13.2141,13.2102,13.1795,13.1679,13.1756,13.1987,13.2256]}]]